<?xml version="1.0" encoding="UTF-8" standalone="no" ?>
<gpx xmlns="http://www.topografix.com/GPX/1/1" xmlns:xsi="http://www.w3.org/2001/XMLSchema-instance" xsi:schemaLocation="http://www.topografix.com/GPX/1/1 http://www.topografix.com/GPX/1/1/gpx.xsd" version="1.1" creator="VisuGPX - https://www.visugpx.com">
  <metadata>
    <name>2019-06-08 14:07:24</name>
    <desc><![CDATA[

]]></desc>
  </metadata>
  <trk>
    <name><![CDATA[2019-06-08 14:07:24]]></name>
    <trkseg>
      <trkpt lat="42.74325" lon="-8.65688">
        <ele>1.1</ele>
        <time>2019-06-08T05:12:20Z</time>
      </trkpt>
      <trkpt lat="42.74324" lon="-8.65709">
        <ele>0.62</ele>
        <time>2019-06-08T05:12:36Z</time>
      </trkpt>
      <trkpt lat="42.74327" lon="-8.65713">
        <ele>1.1</ele>
        <time>2019-06-08T05:12:45Z</time>
      </trkpt>
      <trkpt lat="42.74333" lon="-8.65717">
        <ele>0.62</ele>
        <time>2019-06-08T05:13:02Z</time>
      </trkpt>
      <trkpt lat="42.74334" lon="-8.65719">
        <ele>1.1</ele>
        <time>2019-06-08T05:13:20Z</time>
      </trkpt>
      <trkpt lat="42.74341" lon="-8.65714">
        <ele>0.62</ele>
        <time>2019-06-08T05:13:32Z</time>
      </trkpt>
      <trkpt lat="42.74338" lon="-8.65712">
        <ele>1.1</ele>
        <time>2019-06-08T05:13:46Z</time>
      </trkpt>
      <trkpt lat="42.74348" lon="-8.65703">
        <ele>1.1</ele>
        <time>2019-06-08T05:13:57Z</time>
      </trkpt>
      <trkpt lat="42.74357" lon="-8.65697">
        <ele>0.62</ele>
        <time>2019-06-08T05:14:09Z</time>
      </trkpt>
      <trkpt lat="42.74368" lon="-8.65693">
        <ele>0.14</ele>
        <time>2019-06-08T05:14:20Z</time>
      </trkpt>
      <trkpt lat="42.74378" lon="-8.65689">
        <ele>0.62</ele>
        <time>2019-06-08T05:14:32Z</time>
      </trkpt>
      <trkpt lat="42.74395" lon="-8.65678">
        <ele>0.62</ele>
        <time>2019-06-08T05:14:49Z</time>
      </trkpt>
      <trkpt lat="42.74399" lon="-8.65675">
        <ele>0.62</ele>
        <time>2019-06-08T05:14:53Z</time>
      </trkpt>
      <trkpt lat="42.74413" lon="-8.65667">
        <ele>1.58</ele>
        <time>2019-06-08T05:15:05Z</time>
      </trkpt>
      <trkpt lat="42.74424" lon="-8.65656">
        <ele>1.1</ele>
        <time>2019-06-08T05:15:17Z</time>
      </trkpt>
      <trkpt lat="42.74444" lon="-8.65642">
        <ele>1.1</ele>
        <time>2019-06-08T05:15:32Z</time>
      </trkpt>
      <trkpt lat="42.74464" lon="-8.65632">
        <ele>0.62</ele>
        <time>2019-06-08T05:15:47Z</time>
      </trkpt>
      <trkpt lat="42.74474" lon="-8.65624">
        <ele>0.62</ele>
        <time>2019-06-08T05:15:57Z</time>
      </trkpt>
      <trkpt lat="42.7448" lon="-8.65617">
        <ele>1.1</ele>
        <time>2019-06-08T05:16:08Z</time>
      </trkpt>
      <trkpt lat="42.74487" lon="-8.65602">
        <ele>0.62</ele>
        <time>2019-06-08T05:16:19Z</time>
      </trkpt>
      <trkpt lat="42.74498" lon="-8.65585">
        <ele>1.1</ele>
        <time>2019-06-08T05:16:34Z</time>
      </trkpt>
      <trkpt lat="42.74506" lon="-8.65574">
        <ele>1.1</ele>
        <time>2019-06-08T05:16:44Z</time>
      </trkpt>
      <trkpt lat="42.74507" lon="-8.65569">
        <ele>1.1</ele>
        <time>2019-06-08T05:16:54Z</time>
      </trkpt>
      <trkpt lat="42.74517" lon="-8.6555">
        <ele>1.58</ele>
        <time>2019-06-08T05:17:09Z</time>
      </trkpt>
      <trkpt lat="42.74528" lon="-8.65544">
        <ele>2.06</ele>
        <time>2019-06-08T05:17:23Z</time>
      </trkpt>
      <trkpt lat="42.74533" lon="-8.65533">
        <ele>3.02</ele>
        <time>2019-06-08T05:17:36Z</time>
      </trkpt>
      <trkpt lat="42.74537" lon="-8.65528">
        <ele>2.54</ele>
        <time>2019-06-08T05:17:49Z</time>
      </trkpt>
      <trkpt lat="42.74544" lon="-8.65512">
        <ele>3.02</ele>
        <time>2019-06-08T05:18:01Z</time>
      </trkpt>
      <trkpt lat="42.74552" lon="-8.65493">
        <ele>3.02</ele>
        <time>2019-06-08T05:18:15Z</time>
      </trkpt>
      <trkpt lat="42.74552" lon="-8.65492">
        <ele>3.02</ele>
        <time>2019-06-08T05:18:16Z</time>
      </trkpt>
      <trkpt lat="42.74558" lon="-8.65477">
        <ele>2.54</ele>
        <time>2019-06-08T05:18:32Z</time>
      </trkpt>
      <trkpt lat="42.74558" lon="-8.65475">
        <ele>3.02</ele>
        <time>2019-06-08T05:18:34Z</time>
      </trkpt>
      <trkpt lat="42.74559" lon="-8.65473">
        <ele>3.02</ele>
        <time>2019-06-08T05:18:36Z</time>
      </trkpt>
      <trkpt lat="42.74562" lon="-8.65462">
        <ele>3.98</ele>
        <time>2019-06-08T05:18:51Z</time>
      </trkpt>
      <trkpt lat="42.74559" lon="-8.65463">
        <ele>3.5</ele>
        <time>2019-06-08T05:19:10Z</time>
      </trkpt>
      <trkpt lat="42.74559" lon="-8.65459">
        <ele>3.5</ele>
        <time>2019-06-08T05:19:30Z</time>
      </trkpt>
      <trkpt lat="42.74559" lon="-8.65458">
        <ele>3.98</ele>
        <time>2019-06-08T05:20:01Z</time>
      </trkpt>
      <trkpt lat="42.74561" lon="-8.65445">
        <ele>3.5</ele>
        <time>2019-06-08T05:20:17Z</time>
      </trkpt>
      <trkpt lat="42.74564" lon="-8.65423">
        <ele>1.58</ele>
        <time>2019-06-08T05:20:32Z</time>
      </trkpt>
      <trkpt lat="42.74565" lon="-8.65398">
        <ele>0.62</ele>
        <time>2019-06-08T05:20:46Z</time>
      </trkpt>
      <trkpt lat="42.74566" lon="-8.65393">
        <ele>0.62</ele>
        <time>2019-06-08T05:20:50Z</time>
      </trkpt>
      <trkpt lat="42.7457" lon="-8.65381">
        <ele>1.1</ele>
        <time>2019-06-08T05:20:59Z</time>
      </trkpt>
      <trkpt lat="42.74574" lon="-8.65376">
        <ele>2.06</ele>
        <time>2019-06-08T05:21:04Z</time>
      </trkpt>
      <trkpt lat="42.74575" lon="-8.6537">
        <ele>2.54</ele>
        <time>2019-06-08T05:21:08Z</time>
      </trkpt>
      <trkpt lat="42.74584" lon="-8.65351">
        <ele>4.46</ele>
        <time>2019-06-08T05:21:23Z</time>
      </trkpt>
      <trkpt lat="42.74598" lon="-8.65342">
        <ele>6.39</ele>
        <time>2019-06-08T05:21:37Z</time>
      </trkpt>
      <trkpt lat="42.74603" lon="-8.65337">
        <ele>6.87</ele>
        <time>2019-06-08T05:21:42Z</time>
      </trkpt>
      <trkpt lat="42.74621" lon="-8.65322">
        <ele>7.35</ele>
        <time>2019-06-08T05:22:00Z</time>
      </trkpt>
      <trkpt lat="42.74636" lon="-8.6531">
        <ele>8.31</ele>
        <time>2019-06-08T05:22:16Z</time>
      </trkpt>
      <trkpt lat="42.74641" lon="-8.65308">
        <ele>8.31</ele>
        <time>2019-06-08T05:22:21Z</time>
      </trkpt>
      <trkpt lat="42.74656" lon="-8.65297">
        <ele>9.75</ele>
        <time>2019-06-08T05:22:35Z</time>
      </trkpt>
      <trkpt lat="42.74671" lon="-8.65289">
        <ele>10.23</ele>
        <time>2019-06-08T05:22:51Z</time>
      </trkpt>
      <trkpt lat="42.74675" lon="-8.65282">
        <ele>10.71</ele>
        <time>2019-06-08T05:23:07Z</time>
      </trkpt>
      <trkpt lat="42.74676" lon="-8.65282">
        <ele>10.71</ele>
        <time>2019-06-08T05:23:09Z</time>
      </trkpt>
      <trkpt lat="42.74677" lon="-8.65282">
        <ele>10.23</ele>
        <time>2019-06-08T05:23:11Z</time>
      </trkpt>
      <trkpt lat="42.74692" lon="-8.65279">
        <ele>10.71</ele>
        <time>2019-06-08T05:23:25Z</time>
      </trkpt>
      <trkpt lat="42.74706" lon="-8.65277">
        <ele>10.71</ele>
        <time>2019-06-08T05:23:39Z</time>
      </trkpt>
      <trkpt lat="42.74707" lon="-8.65277">
        <ele>10.71</ele>
        <time>2019-06-08T05:23:40Z</time>
      </trkpt>
      <trkpt lat="42.74713" lon="-8.65279">
        <ele>10.71</ele>
        <time>2019-06-08T05:23:45Z</time>
      </trkpt>
      <trkpt lat="42.74733" lon="-8.65284">
        <ele>10.71</ele>
        <time>2019-06-08T05:24:02Z</time>
      </trkpt>
      <trkpt lat="42.74735" lon="-8.65285">
        <ele>10.71</ele>
        <time>2019-06-08T05:24:03Z</time>
      </trkpt>
      <trkpt lat="42.74753" lon="-8.65279">
        <ele>10.71</ele>
        <time>2019-06-08T05:24:19Z</time>
      </trkpt>
      <trkpt lat="42.7477" lon="-8.6527">
        <ele>11.19</ele>
        <time>2019-06-08T05:24:34Z</time>
      </trkpt>
      <trkpt lat="42.74774" lon="-8.65268">
        <ele>10.71</ele>
        <time>2019-06-08T05:24:43Z</time>
      </trkpt>
      <trkpt lat="42.7479" lon="-8.65255">
        <ele>11.67</ele>
        <time>2019-06-08T05:24:58Z</time>
      </trkpt>
      <trkpt lat="42.74806" lon="-8.65246">
        <ele>12.15</ele>
        <time>2019-06-08T05:25:12Z</time>
      </trkpt>
      <trkpt lat="42.74822" lon="-8.65236">
        <ele>14.08</ele>
        <time>2019-06-08T05:25:27Z</time>
      </trkpt>
      <trkpt lat="42.74835" lon="-8.6523">
        <ele>15.52</ele>
        <time>2019-06-08T05:25:42Z</time>
      </trkpt>
      <trkpt lat="42.74844" lon="-8.65229">
        <ele>16.48</ele>
        <time>2019-06-08T05:25:54Z</time>
      </trkpt>
      <trkpt lat="42.74853" lon="-8.65233">
        <ele>17.44</ele>
        <time>2019-06-08T05:26:04Z</time>
      </trkpt>
      <trkpt lat="42.74859" lon="-8.65231">
        <ele>17.92</ele>
        <time>2019-06-08T05:26:09Z</time>
      </trkpt>
      <trkpt lat="42.74864" lon="-8.65233">
        <ele>17.92</ele>
        <time>2019-06-08T05:26:13Z</time>
      </trkpt>
      <trkpt lat="42.74871" lon="-8.65234">
        <ele>17.92</ele>
        <time>2019-06-08T05:26:18Z</time>
      </trkpt>
      <trkpt lat="42.74878" lon="-8.65234">
        <ele>18.4</ele>
        <time>2019-06-08T05:26:23Z</time>
      </trkpt>
      <trkpt lat="42.74882" lon="-8.65238">
        <ele>17.44</ele>
        <time>2019-06-08T05:26:28Z</time>
      </trkpt>
      <trkpt lat="42.74888" lon="-8.6525">
        <ele>16.48</ele>
        <time>2019-06-08T05:26:38Z</time>
      </trkpt>
      <trkpt lat="42.74889" lon="-8.65265">
        <ele>14.56</ele>
        <time>2019-06-08T05:26:48Z</time>
      </trkpt>
      <trkpt lat="42.74888" lon="-8.65283">
        <ele>12.63</ele>
        <time>2019-06-08T05:26:59Z</time>
      </trkpt>
      <trkpt lat="42.74888" lon="-8.65291">
        <ele>12.15</ele>
        <time>2019-06-08T05:27:04Z</time>
      </trkpt>
      <trkpt lat="42.74888" lon="-8.65304">
        <ele>11.67</ele>
        <time>2019-06-08T05:27:17Z</time>
      </trkpt>
      <trkpt lat="42.74889" lon="-8.65326">
        <ele>10.71</ele>
        <time>2019-06-08T05:27:31Z</time>
      </trkpt>
      <trkpt lat="42.7489" lon="-8.65347">
        <ele>10.71</ele>
        <time>2019-06-08T05:27:44Z</time>
      </trkpt>
      <trkpt lat="42.74894" lon="-8.65369">
        <ele>10.23</ele>
        <time>2019-06-08T05:27:59Z</time>
      </trkpt>
      <trkpt lat="42.74894" lon="-8.65377">
        <ele>10.23</ele>
        <time>2019-06-08T05:28:04Z</time>
      </trkpt>
      <trkpt lat="42.74894" lon="-8.65407">
        <ele>9.27</ele>
        <time>2019-06-08T05:28:21Z</time>
      </trkpt>
      <trkpt lat="42.74893" lon="-8.65429">
        <ele>8.79</ele>
        <time>2019-06-08T05:28:35Z</time>
      </trkpt>
      <trkpt lat="42.74894" lon="-8.65445">
        <ele>8.31</ele>
        <time>2019-06-08T05:28:45Z</time>
      </trkpt>
      <trkpt lat="42.74898" lon="-8.65448">
        <ele>7.83</ele>
        <time>2019-06-08T05:28:49Z</time>
      </trkpt>
      <trkpt lat="42.74907" lon="-8.65446">
        <ele>7.83</ele>
        <time>2019-06-08T05:29:01Z</time>
      </trkpt>
      <trkpt lat="42.7491" lon="-8.65448">
        <ele>7.83</ele>
        <time>2019-06-08T05:29:03Z</time>
      </trkpt>
      <trkpt lat="42.7493" lon="-8.65445">
        <ele>8.31</ele>
        <time>2019-06-08T05:29:18Z</time>
      </trkpt>
      <trkpt lat="42.74951" lon="-8.65436">
        <ele>8.79</ele>
        <time>2019-06-08T05:29:35Z</time>
      </trkpt>
      <trkpt lat="42.74962" lon="-8.65433">
        <ele>9.27</ele>
        <time>2019-06-08T05:29:47Z</time>
      </trkpt>
      <trkpt lat="42.74976" lon="-8.65429">
        <ele>9.75</ele>
        <time>2019-06-08T05:30:01Z</time>
      </trkpt>
      <trkpt lat="42.74977" lon="-8.65428">
        <ele>9.27</ele>
        <time>2019-06-08T05:30:03Z</time>
      </trkpt>
      <trkpt lat="42.7498" lon="-8.65426">
        <ele>9.75</ele>
        <time>2019-06-08T05:30:05Z</time>
      </trkpt>
      <trkpt lat="42.74988" lon="-8.65422">
        <ele>9.75</ele>
        <time>2019-06-08T05:30:13Z</time>
      </trkpt>
      <trkpt lat="42.75007" lon="-8.65418">
        <ele>10.23</ele>
        <time>2019-06-08T05:30:28Z</time>
      </trkpt>
      <trkpt lat="42.75026" lon="-8.6541">
        <ele>9.75</ele>
        <time>2019-06-08T05:30:44Z</time>
      </trkpt>
      <trkpt lat="42.75042" lon="-8.65404">
        <ele>10.23</ele>
        <time>2019-06-08T05:30:58Z</time>
      </trkpt>
      <trkpt lat="42.75061" lon="-8.65396">
        <ele>10.23</ele>
        <time>2019-06-08T05:31:14Z</time>
      </trkpt>
      <trkpt lat="42.75079" lon="-8.65391">
        <ele>10.71</ele>
        <time>2019-06-08T05:31:30Z</time>
      </trkpt>
      <trkpt lat="42.75095" lon="-8.65381">
        <ele>10.71</ele>
        <time>2019-06-08T05:31:45Z</time>
      </trkpt>
      <trkpt lat="42.75111" lon="-8.65375">
        <ele>11.19</ele>
        <time>2019-06-08T05:31:59Z</time>
      </trkpt>
      <trkpt lat="42.7513" lon="-8.65368">
        <ele>11.67</ele>
        <time>2019-06-08T05:32:16Z</time>
      </trkpt>
      <trkpt lat="42.75149" lon="-8.65363">
        <ele>12.63</ele>
        <time>2019-06-08T05:32:32Z</time>
      </trkpt>
      <trkpt lat="42.7516" lon="-8.65354">
        <ele>13.6</ele>
        <time>2019-06-08T05:32:46Z</time>
      </trkpt>
      <trkpt lat="42.75175" lon="-8.65346">
        <ele>13.12</ele>
        <time>2019-06-08T05:33:00Z</time>
      </trkpt>
      <trkpt lat="42.7518" lon="-8.65352">
        <ele>13.12</ele>
        <time>2019-06-08T05:33:12Z</time>
      </trkpt>
      <trkpt lat="42.7518" lon="-8.65352">
        <ele>12.63</ele>
        <time>2019-06-08T05:33:14Z</time>
      </trkpt>
      <trkpt lat="42.75188" lon="-8.65357">
        <ele>12.15</ele>
        <time>2019-06-08T05:33:22Z</time>
      </trkpt>
      <trkpt lat="42.75209" lon="-8.65351">
        <ele>11.67</ele>
        <time>2019-06-08T05:33:39Z</time>
      </trkpt>
      <trkpt lat="42.75223" lon="-8.6534">
        <ele>11.19</ele>
        <time>2019-06-08T05:33:53Z</time>
      </trkpt>
      <trkpt lat="42.75234" lon="-8.65333">
        <ele>11.19</ele>
        <time>2019-06-08T05:34:07Z</time>
      </trkpt>
      <trkpt lat="42.75251" lon="-8.65326">
        <ele>11.19</ele>
        <time>2019-06-08T05:34:22Z</time>
      </trkpt>
      <trkpt lat="42.7527" lon="-8.65319">
        <ele>10.71</ele>
        <time>2019-06-08T05:34:36Z</time>
      </trkpt>
      <trkpt lat="42.75286" lon="-8.65314">
        <ele>10.23</ele>
        <time>2019-06-08T05:34:50Z</time>
      </trkpt>
      <trkpt lat="42.75304" lon="-8.65308">
        <ele>10.71</ele>
        <time>2019-06-08T05:35:05Z</time>
      </trkpt>
      <trkpt lat="42.75322" lon="-8.65303">
        <ele>9.75</ele>
        <time>2019-06-08T05:35:21Z</time>
      </trkpt>
      <trkpt lat="42.75338" lon="-8.65306">
        <ele>10.23</ele>
        <time>2019-06-08T05:35:35Z</time>
      </trkpt>
      <trkpt lat="42.75338" lon="-8.65306">
        <ele>10.23</ele>
        <time>2019-06-08T05:35:36Z</time>
      </trkpt>
      <trkpt lat="42.75348" lon="-8.65306">
        <ele>10.23</ele>
        <time>2019-06-08T05:35:46Z</time>
      </trkpt>
      <trkpt lat="42.75351" lon="-8.65317">
        <ele>9.75</ele>
        <time>2019-06-08T05:35:59Z</time>
      </trkpt>
      <trkpt lat="42.75352" lon="-8.65324">
        <ele>10.71</ele>
        <time>2019-06-08T05:36:12Z</time>
      </trkpt>
      <trkpt lat="42.75355" lon="-8.65327">
        <ele>6.87</ele>
        <time>2019-06-08T05:36:30Z</time>
      </trkpt>
      <trkpt lat="42.75355" lon="-8.65327">
        <ele>9.75</ele>
        <time>2019-06-08T05:36:31Z</time>
      </trkpt>
      <trkpt lat="42.75351" lon="-8.65319">
        <ele>10.23</ele>
        <time>2019-06-08T05:37:07Z</time>
      </trkpt>
      <trkpt lat="42.75352" lon="-8.65317">
        <ele>10.23</ele>
        <time>2019-06-08T05:37:48Z</time>
      </trkpt>
      <trkpt lat="42.75351" lon="-8.65315">
        <ele>10.71</ele>
        <time>2019-06-08T05:38:30Z</time>
      </trkpt>
      <trkpt lat="42.75358" lon="-8.65316">
        <ele>10.23</ele>
        <time>2019-06-08T05:39:09Z</time>
      </trkpt>
      <trkpt lat="42.75356" lon="-8.65317">
        <ele>10.71</ele>
        <time>2019-06-08T05:39:48Z</time>
      </trkpt>
      <trkpt lat="42.75351" lon="-8.6531">
        <ele>11.19</ele>
        <time>2019-06-08T05:40:32Z</time>
      </trkpt>
      <trkpt lat="42.75342" lon="-8.65311">
        <ele>11.67</ele>
        <time>2019-06-08T05:41:08Z</time>
      </trkpt>
      <trkpt lat="42.75345" lon="-8.65306">
        <ele>12.63</ele>
        <time>2019-06-08T05:41:47Z</time>
      </trkpt>
      <trkpt lat="42.75345" lon="-8.65315">
        <ele>12.15</ele>
        <time>2019-06-08T05:42:20Z</time>
      </trkpt>
      <trkpt lat="42.75347" lon="-8.65303">
        <ele>12.63</ele>
        <time>2019-06-08T05:42:50Z</time>
      </trkpt>
      <trkpt lat="42.75351" lon="-8.65302">
        <ele>13.6</ele>
        <time>2019-06-08T05:43:17Z</time>
      </trkpt>
      <trkpt lat="42.75351" lon="-8.65308">
        <ele>13.6</ele>
        <time>2019-06-08T05:43:47Z</time>
      </trkpt>
      <trkpt lat="42.75348" lon="-8.65311">
        <ele>13.12</ele>
        <time>2019-06-08T05:44:19Z</time>
      </trkpt>
      <trkpt lat="42.7535" lon="-8.65311">
        <ele>13.12</ele>
        <time>2019-06-08T05:45:01Z</time>
      </trkpt>
      <trkpt lat="42.75351" lon="-8.65317">
        <ele>12.63</ele>
        <time>2019-06-08T05:45:44Z</time>
      </trkpt>
      <trkpt lat="42.75355" lon="-8.65317">
        <ele>12.15</ele>
        <time>2019-06-08T05:46:19Z</time>
      </trkpt>
      <trkpt lat="42.75345" lon="-8.65313">
        <ele>12.63</ele>
        <time>2019-06-08T05:47:02Z</time>
      </trkpt>
      <trkpt lat="42.75344" lon="-8.65313">
        <ele>12.15</ele>
        <time>2019-06-08T05:47:37Z</time>
      </trkpt>
      <trkpt lat="42.75342" lon="-8.65313">
        <ele>12.63</ele>
        <time>2019-06-08T05:48:04Z</time>
      </trkpt>
      <trkpt lat="42.7534" lon="-8.65326">
        <ele>12.63</ele>
        <time>2019-06-08T05:48:26Z</time>
      </trkpt>
      <trkpt lat="42.75336" lon="-8.65324">
        <ele>12.15</ele>
        <time>2019-06-08T05:48:51Z</time>
      </trkpt>
      <trkpt lat="42.75338" lon="-8.65304">
        <ele>12.63</ele>
        <time>2019-06-08T05:49:23Z</time>
      </trkpt>
      <trkpt lat="42.75342" lon="-8.65299">
        <ele>13.12</ele>
        <time>2019-06-08T05:50:03Z</time>
      </trkpt>
      <trkpt lat="42.75344" lon="-8.65311">
        <ele>12.63</ele>
        <time>2019-06-08T05:50:36Z</time>
      </trkpt>
      <trkpt lat="42.75347" lon="-8.65317">
        <ele>13.6</ele>
        <time>2019-06-08T05:51:26Z</time>
      </trkpt>
      <trkpt lat="42.75339" lon="-8.65318">
        <ele>14.08</ele>
        <time>2019-06-08T05:52:08Z</time>
      </trkpt>
      <trkpt lat="42.75341" lon="-8.65314">
        <ele>14.08</ele>
        <time>2019-06-08T05:52:54Z</time>
      </trkpt>
      <trkpt lat="42.75342" lon="-8.6531">
        <ele>13.6</ele>
        <time>2019-06-08T05:53:29Z</time>
      </trkpt>
      <trkpt lat="42.75345" lon="-8.65314">
        <ele>13.12</ele>
        <time>2019-06-08T05:54:08Z</time>
      </trkpt>
      <trkpt lat="42.75345" lon="-8.65311">
        <ele>13.12</ele>
        <time>2019-06-08T05:54:39Z</time>
      </trkpt>
      <trkpt lat="42.75345" lon="-8.65315">
        <ele>13.6</ele>
        <time>2019-06-08T05:55:13Z</time>
      </trkpt>
      <trkpt lat="42.75345" lon="-8.65315">
        <ele>12.15</ele>
        <time>2019-06-08T05:55:44Z</time>
      </trkpt>
      <trkpt lat="42.75351" lon="-8.65317">
        <ele>13.12</ele>
        <time>2019-06-08T05:56:25Z</time>
      </trkpt>
      <trkpt lat="42.75351" lon="-8.65308">
        <ele>14.56</ele>
        <time>2019-06-08T05:56:50Z</time>
      </trkpt>
      <trkpt lat="42.78811" lon="-8.64717">
        <ele>51.09</ele>
        <time>2019-06-08T07:05:05Z</time>
      </trkpt>
      <trkpt lat="42.78813" lon="-8.64718">
        <ele>51.09</ele>
        <time>2019-06-08T07:05:06Z</time>
      </trkpt>
      <trkpt lat="42.78832" lon="-8.64715">
        <ele>51.09</ele>
        <time>2019-06-08T07:05:21Z</time>
      </trkpt>
      <trkpt lat="42.78845" lon="-8.64709">
        <ele>50.61</ele>
        <time>2019-06-08T07:05:32Z</time>
      </trkpt>
      <trkpt lat="42.78849" lon="-8.64707">
        <ele>50.61</ele>
        <time>2019-06-08T07:05:36Z</time>
      </trkpt>
      <trkpt lat="42.78865" lon="-8.64703">
        <ele>49.65</ele>
        <time>2019-06-08T07:05:49Z</time>
      </trkpt>
      <trkpt lat="42.78885" lon="-8.64697">
        <ele>50.13</ele>
        <time>2019-06-08T07:06:05Z</time>
      </trkpt>
      <trkpt lat="42.78904" lon="-8.64693">
        <ele>49.65</ele>
        <time>2019-06-08T07:06:20Z</time>
      </trkpt>
      <trkpt lat="42.78922" lon="-8.64687">
        <ele>49.65</ele>
        <time>2019-06-08T07:06:35Z</time>
      </trkpt>
      <trkpt lat="42.78931" lon="-8.64684">
        <ele>49.16</ele>
        <time>2019-06-08T07:06:43Z</time>
      </trkpt>
      <trkpt lat="42.78952" lon="-8.64677">
        <ele>48.68</ele>
        <time>2019-06-08T07:07:00Z</time>
      </trkpt>
      <trkpt lat="42.78975" lon="-8.64672">
        <ele>48.2</ele>
        <time>2019-06-08T07:07:18Z</time>
      </trkpt>
      <trkpt lat="42.78994" lon="-8.64657">
        <ele>47.24</ele>
        <time>2019-06-08T07:07:36Z</time>
      </trkpt>
      <trkpt lat="42.7899" lon="-8.64631">
        <ele>48.68</ele>
        <time>2019-06-08T07:07:53Z</time>
      </trkpt>
      <trkpt lat="42.78988" lon="-8.64604">
        <ele>51.09</ele>
        <time>2019-06-08T07:08:12Z</time>
      </trkpt>
      <trkpt lat="42.78987" lon="-8.64603">
        <ele>51.09</ele>
        <time>2019-06-08T07:08:13Z</time>
      </trkpt>
      <trkpt lat="42.78993" lon="-8.64577">
        <ele>53.49</ele>
        <time>2019-06-08T07:08:31Z</time>
      </trkpt>
      <trkpt lat="42.79" lon="-8.64554">
        <ele>54.93</ele>
        <time>2019-06-08T07:08:49Z</time>
      </trkpt>
      <trkpt lat="42.79" lon="-8.6455">
        <ele>55.89</ele>
        <time>2019-06-08T07:08:52Z</time>
      </trkpt>
      <trkpt lat="42.79001" lon="-8.64547">
        <ele>56.86</ele>
        <time>2019-06-08T07:08:54Z</time>
      </trkpt>
      <trkpt lat="42.79005" lon="-8.64527">
        <ele>59.26</ele>
        <time>2019-06-08T07:09:08Z</time>
      </trkpt>
      <trkpt lat="42.79006" lon="-8.64501">
        <ele>60.22</ele>
        <time>2019-06-08T07:09:26Z</time>
      </trkpt>
      <trkpt lat="42.79007" lon="-8.64495">
        <ele>60.7</ele>
        <time>2019-06-08T07:09:30Z</time>
      </trkpt>
      <trkpt lat="42.79012" lon="-8.64492">
        <ele>61.66</ele>
        <time>2019-06-08T07:09:37Z</time>
      </trkpt>
      <trkpt lat="42.79021" lon="-8.64495">
        <ele>61.66</ele>
        <time>2019-06-08T07:09:52Z</time>
      </trkpt>
      <trkpt lat="42.79022" lon="-8.64496">
        <ele>61.66</ele>
        <time>2019-06-08T07:09:53Z</time>
      </trkpt>
      <trkpt lat="42.79038" lon="-8.64498">
        <ele>61.66</ele>
        <time>2019-06-08T07:10:07Z</time>
      </trkpt>
      <trkpt lat="42.79054" lon="-8.6449">
        <ele>62.14</ele>
        <time>2019-06-08T07:10:21Z</time>
      </trkpt>
      <trkpt lat="42.79068" lon="-8.64488">
        <ele>61.66</ele>
        <time>2019-06-08T07:10:34Z</time>
      </trkpt>
      <trkpt lat="42.7908" lon="-8.64489">
        <ele>61.66</ele>
        <time>2019-06-08T07:10:46Z</time>
      </trkpt>
      <trkpt lat="42.79089" lon="-8.64491">
        <ele>60.22</ele>
        <time>2019-06-08T07:10:52Z</time>
      </trkpt>
      <trkpt lat="42.79106" lon="-8.64492">
        <ele>61.18</ele>
        <time>2019-06-08T07:11:06Z</time>
      </trkpt>
      <trkpt lat="42.7911" lon="-8.64491">
        <ele>61.18</ele>
        <time>2019-06-08T07:11:09Z</time>
      </trkpt>
      <trkpt lat="42.79127" lon="-8.64486">
        <ele>61.66</ele>
        <time>2019-06-08T07:11:23Z</time>
      </trkpt>
      <trkpt lat="42.79142" lon="-8.64483">
        <ele>61.66</ele>
        <time>2019-06-08T07:11:36Z</time>
      </trkpt>
      <trkpt lat="42.79162" lon="-8.64478">
        <ele>62.14</ele>
        <time>2019-06-08T07:11:51Z</time>
      </trkpt>
      <trkpt lat="42.79171" lon="-8.64475">
        <ele>62.14</ele>
        <time>2019-06-08T07:11:57Z</time>
      </trkpt>
      <trkpt lat="42.79176" lon="-8.64473">
        <ele>62.62</ele>
        <time>2019-06-08T07:12:02Z</time>
      </trkpt>
      <trkpt lat="42.79194" lon="-8.64459">
        <ele>61.66</ele>
        <time>2019-06-08T07:12:18Z</time>
      </trkpt>
      <trkpt lat="42.79209" lon="-8.64445">
        <ele>62.62</ele>
        <time>2019-06-08T07:12:32Z</time>
      </trkpt>
      <trkpt lat="42.79219" lon="-8.64431">
        <ele>61.18</ele>
        <time>2019-06-08T07:12:45Z</time>
      </trkpt>
      <trkpt lat="42.7923" lon="-8.64413">
        <ele>60.7</ele>
        <time>2019-06-08T07:13:00Z</time>
      </trkpt>
      <trkpt lat="42.79244" lon="-8.64397">
        <ele>60.7</ele>
        <time>2019-06-08T07:13:14Z</time>
      </trkpt>
      <trkpt lat="42.79256" lon="-8.64383">
        <ele>60.22</ele>
        <time>2019-06-08T07:13:27Z</time>
      </trkpt>
      <trkpt lat="42.79258" lon="-8.6438">
        <ele>60.22</ele>
        <time>2019-06-08T07:13:29Z</time>
      </trkpt>
      <trkpt lat="42.79267" lon="-8.6437">
        <ele>61.18</ele>
        <time>2019-06-08T07:13:39Z</time>
      </trkpt>
      <trkpt lat="42.79276" lon="-8.64357">
        <ele>62.14</ele>
        <time>2019-06-08T07:13:52Z</time>
      </trkpt>
      <trkpt lat="42.79287" lon="-8.64346">
        <ele>63.1</ele>
        <time>2019-06-08T07:14:05Z</time>
      </trkpt>
      <trkpt lat="42.79288" lon="-8.64345">
        <ele>62.62</ele>
        <time>2019-06-08T07:14:06Z</time>
      </trkpt>
      <trkpt lat="42.79304" lon="-8.64328">
        <ele>64.55</ele>
        <time>2019-06-08T07:14:22Z</time>
      </trkpt>
      <trkpt lat="42.79315" lon="-8.64315">
        <ele>65.03</ele>
        <time>2019-06-08T07:14:34Z</time>
      </trkpt>
      <trkpt lat="42.79319" lon="-8.64307">
        <ele>65.03</ele>
        <time>2019-06-08T07:14:39Z</time>
      </trkpt>
      <trkpt lat="42.79325" lon="-8.64295">
        <ele>65.51</ele>
        <time>2019-06-08T07:14:47Z</time>
      </trkpt>
      <trkpt lat="42.79335" lon="-8.6428">
        <ele>65.99</ele>
        <time>2019-06-08T07:15:01Z</time>
      </trkpt>
      <trkpt lat="42.79342" lon="-8.64271">
        <ele>65.51</ele>
        <time>2019-06-08T07:15:12Z</time>
      </trkpt>
      <trkpt lat="42.79343" lon="-8.6427">
        <ele>65.03</ele>
        <time>2019-06-08T07:15:13Z</time>
      </trkpt>
      <trkpt lat="42.79356" lon="-8.64254">
        <ele>64.07</ele>
        <time>2019-06-08T07:15:29Z</time>
      </trkpt>
      <trkpt lat="42.7938" lon="-8.64242">
        <ele>63.1</ele>
        <time>2019-06-08T07:15:45Z</time>
      </trkpt>
      <trkpt lat="42.7939" lon="-8.64228">
        <ele>59.74</ele>
        <time>2019-06-08T07:15:56Z</time>
      </trkpt>
      <trkpt lat="42.79404" lon="-8.64211">
        <ele>57.34</ele>
        <time>2019-06-08T07:16:11Z</time>
      </trkpt>
      <trkpt lat="42.79418" lon="-8.64194">
        <ele>55.41</ele>
        <time>2019-06-08T07:16:25Z</time>
      </trkpt>
      <trkpt lat="42.79434" lon="-8.64177">
        <ele>53.01</ele>
        <time>2019-06-08T07:16:41Z</time>
      </trkpt>
      <trkpt lat="42.79435" lon="-8.64176">
        <ele>52.53</ele>
        <time>2019-06-08T07:16:42Z</time>
      </trkpt>
      <trkpt lat="42.79442" lon="-8.6417">
        <ele>50.61</ele>
        <time>2019-06-08T07:16:49Z</time>
      </trkpt>
      <trkpt lat="42.79461" lon="-8.64171">
        <ele>48.2</ele>
        <time>2019-06-08T07:17:05Z</time>
      </trkpt>
      <trkpt lat="42.79469" lon="-8.64173">
        <ele>47.72</ele>
        <time>2019-06-08T07:17:18Z</time>
      </trkpt>
      <trkpt lat="42.79495" lon="-8.642">
        <ele>46.76</ele>
        <time>2019-06-08T07:17:36Z</time>
      </trkpt>
      <trkpt lat="42.79503" lon="-8.64204">
        <ele>46.76</ele>
        <time>2019-06-08T07:17:49Z</time>
      </trkpt>
      <trkpt lat="42.79504" lon="-8.64207">
        <ele>46.76</ele>
        <time>2019-06-08T07:17:51Z</time>
      </trkpt>
      <trkpt lat="42.79514" lon="-8.64213">
        <ele>46.28</ele>
        <time>2019-06-08T07:17:59Z</time>
      </trkpt>
      <trkpt lat="42.79533" lon="-8.64231">
        <ele>45.32</ele>
        <time>2019-06-08T07:18:17Z</time>
      </trkpt>
      <trkpt lat="42.79554" lon="-8.64239">
        <ele>44.84</ele>
        <time>2019-06-08T07:18:34Z</time>
      </trkpt>
      <trkpt lat="42.79564" lon="-8.64225">
        <ele>44.36</ele>
        <time>2019-06-08T07:18:48Z</time>
      </trkpt>
      <trkpt lat="42.79576" lon="-8.64203">
        <ele>42.92</ele>
        <time>2019-06-08T07:19:05Z</time>
      </trkpt>
      <trkpt lat="42.79588" lon="-8.64187">
        <ele>42.92</ele>
        <time>2019-06-08T07:19:19Z</time>
      </trkpt>
      <trkpt lat="42.79606" lon="-8.64163">
        <ele>42.44</ele>
        <time>2019-06-08T07:19:38Z</time>
      </trkpt>
      <trkpt lat="42.79619" lon="-8.64135">
        <ele>41.95</ele>
        <time>2019-06-08T07:19:57Z</time>
      </trkpt>
      <trkpt lat="42.79619" lon="-8.64112">
        <ele>42.44</ele>
        <time>2019-06-08T07:20:11Z</time>
      </trkpt>
      <trkpt lat="42.79623" lon="-8.64085">
        <ele>43.4</ele>
        <time>2019-06-08T07:20:27Z</time>
      </trkpt>
      <trkpt lat="42.7963" lon="-8.64058">
        <ele>43.4</ele>
        <time>2019-06-08T07:20:45Z</time>
      </trkpt>
      <trkpt lat="42.79642" lon="-8.64032">
        <ele>42.44</ele>
        <time>2019-06-08T07:21:02Z</time>
      </trkpt>
      <trkpt lat="42.79645" lon="-8.64028">
        <ele>42.92</ele>
        <time>2019-06-08T07:21:06Z</time>
      </trkpt>
      <trkpt lat="42.79651" lon="-8.64011">
        <ele>42.92</ele>
        <time>2019-06-08T07:21:18Z</time>
      </trkpt>
      <trkpt lat="42.79647" lon="-8.63986">
        <ele>43.88</ele>
        <time>2019-06-08T07:21:33Z</time>
      </trkpt>
      <trkpt lat="42.79638" lon="-8.63959">
        <ele>43.88</ele>
        <time>2019-06-08T07:21:50Z</time>
      </trkpt>
      <trkpt lat="42.79643" lon="-8.63937">
        <ele>43.4</ele>
        <time>2019-06-08T07:22:04Z</time>
      </trkpt>
      <trkpt lat="42.79643" lon="-8.63929">
        <ele>43.4</ele>
        <time>2019-06-08T07:22:09Z</time>
      </trkpt>
      <trkpt lat="42.79648" lon="-8.63914">
        <ele>44.36</ele>
        <time>2019-06-08T07:22:20Z</time>
      </trkpt>
      <trkpt lat="42.79651" lon="-8.63912">
        <ele>44.36</ele>
        <time>2019-06-08T07:22:23Z</time>
      </trkpt>
      <trkpt lat="42.79656" lon="-8.63911">
        <ele>43.4</ele>
        <time>2019-06-08T07:22:26Z</time>
      </trkpt>
      <trkpt lat="42.79663" lon="-8.63912">
        <ele>43.4</ele>
        <time>2019-06-08T07:22:30Z</time>
      </trkpt>
      <trkpt lat="42.79667" lon="-8.63911">
        <ele>43.4</ele>
        <time>2019-06-08T07:22:35Z</time>
      </trkpt>
      <trkpt lat="42.79668" lon="-8.63911">
        <ele>42.92</ele>
        <time>2019-06-08T07:22:36Z</time>
      </trkpt>
      <trkpt lat="42.79678" lon="-8.63911">
        <ele>42.92</ele>
        <time>2019-06-08T07:22:45Z</time>
      </trkpt>
      <trkpt lat="42.79689" lon="-8.63897">
        <ele>42.92</ele>
        <time>2019-06-08T07:22:58Z</time>
      </trkpt>
      <trkpt lat="42.79697" lon="-8.63889">
        <ele>43.4</ele>
        <time>2019-06-08T07:23:12Z</time>
      </trkpt>
      <trkpt lat="42.79715" lon="-8.63882">
        <ele>42.44</ele>
        <time>2019-06-08T07:23:24Z</time>
      </trkpt>
      <trkpt lat="42.79731" lon="-8.63874">
        <ele>41.95</ele>
        <time>2019-06-08T07:23:35Z</time>
      </trkpt>
      <trkpt lat="42.79733" lon="-8.63872">
        <ele>41.95</ele>
        <time>2019-06-08T07:23:37Z</time>
      </trkpt>
      <trkpt lat="42.79749" lon="-8.63857">
        <ele>40.03</ele>
        <time>2019-06-08T07:23:53Z</time>
      </trkpt>
      <trkpt lat="42.79765" lon="-8.63837">
        <ele>40.99</ele>
        <time>2019-06-08T07:24:09Z</time>
      </trkpt>
      <trkpt lat="42.79767" lon="-8.63832">
        <ele>40.99</ele>
        <time>2019-06-08T07:24:12Z</time>
      </trkpt>
      <trkpt lat="42.79782" lon="-8.63808">
        <ele>41.47</ele>
        <time>2019-06-08T07:24:29Z</time>
      </trkpt>
      <trkpt lat="42.79787" lon="-8.63801">
        <ele>41.47</ele>
        <time>2019-06-08T07:24:36Z</time>
      </trkpt>
      <trkpt lat="42.79791" lon="-8.63807">
        <ele>40.99</ele>
        <time>2019-06-08T07:24:42Z</time>
      </trkpt>
      <trkpt lat="42.79798" lon="-8.63807">
        <ele>40.51</ele>
        <time>2019-06-08T07:24:48Z</time>
      </trkpt>
      <trkpt lat="42.79814" lon="-8.63778">
        <ele>40.99</ele>
        <time>2019-06-08T07:25:08Z</time>
      </trkpt>
      <trkpt lat="42.79818" lon="-8.63759">
        <ele>41.95</ele>
        <time>2019-06-08T07:25:23Z</time>
      </trkpt>
      <trkpt lat="42.79822" lon="-8.63751">
        <ele>41.47</ele>
        <time>2019-06-08T07:25:28Z</time>
      </trkpt>
      <trkpt lat="42.79822" lon="-8.63749">
        <ele>41.95</ele>
        <time>2019-06-08T07:25:30Z</time>
      </trkpt>
      <trkpt lat="42.79832" lon="-8.63729">
        <ele>42.44</ele>
        <time>2019-06-08T07:25:45Z</time>
      </trkpt>
      <trkpt lat="42.79838" lon="-8.63715">
        <ele>42.44</ele>
        <time>2019-06-08T07:25:54Z</time>
      </trkpt>
      <trkpt lat="42.79838" lon="-8.63712">
        <ele>42.44</ele>
        <time>2019-06-08T07:25:56Z</time>
      </trkpt>
      <trkpt lat="42.7985" lon="-8.63703">
        <ele>43.4</ele>
        <time>2019-06-08T07:26:10Z</time>
      </trkpt>
      <trkpt lat="42.79861" lon="-8.63699">
        <ele>42.92</ele>
        <time>2019-06-08T07:26:19Z</time>
      </trkpt>
      <trkpt lat="42.79871" lon="-8.63693">
        <ele>43.88</ele>
        <time>2019-06-08T07:26:29Z</time>
      </trkpt>
      <trkpt lat="42.79877" lon="-8.63684">
        <ele>43.88</ele>
        <time>2019-06-08T07:26:34Z</time>
      </trkpt>
      <trkpt lat="42.79882" lon="-8.63676">
        <ele>43.88</ele>
        <time>2019-06-08T07:26:40Z</time>
      </trkpt>
      <trkpt lat="42.79897" lon="-8.63666">
        <ele>45.8</ele>
        <time>2019-06-08T07:26:56Z</time>
      </trkpt>
      <trkpt lat="42.79912" lon="-8.63654">
        <ele>46.76</ele>
        <time>2019-06-08T07:27:11Z</time>
      </trkpt>
      <trkpt lat="42.79917" lon="-8.63647">
        <ele>46.76</ele>
        <time>2019-06-08T07:27:17Z</time>
      </trkpt>
      <trkpt lat="42.79917" lon="-8.63625">
        <ele>48.68</ele>
        <time>2019-06-08T07:27:32Z</time>
      </trkpt>
      <trkpt lat="42.79907" lon="-8.63601">
        <ele>49.16</ele>
        <time>2019-06-08T07:27:49Z</time>
      </trkpt>
      <trkpt lat="42.799" lon="-8.63586">
        <ele>50.13</ele>
        <time>2019-06-08T07:28:01Z</time>
      </trkpt>
      <trkpt lat="42.79899" lon="-8.63583">
        <ele>50.61</ele>
        <time>2019-06-08T07:28:03Z</time>
      </trkpt>
      <trkpt lat="42.79892" lon="-8.6356">
        <ele>50.61</ele>
        <time>2019-06-08T07:28:19Z</time>
      </trkpt>
      <trkpt lat="42.79893" lon="-8.63555">
        <ele>50.61</ele>
        <time>2019-06-08T07:28:22Z</time>
      </trkpt>
      <trkpt lat="42.79906" lon="-8.63536">
        <ele>52.53</ele>
        <time>2019-06-08T07:28:38Z</time>
      </trkpt>
      <trkpt lat="42.79917" lon="-8.63519">
        <ele>53.01</ele>
        <time>2019-06-08T07:28:53Z</time>
      </trkpt>
      <trkpt lat="42.79928" lon="-8.63504">
        <ele>53.49</ele>
        <time>2019-06-08T07:29:07Z</time>
      </trkpt>
      <trkpt lat="42.79936" lon="-8.63489">
        <ele>54.93</ele>
        <time>2019-06-08T07:29:20Z</time>
      </trkpt>
      <trkpt lat="42.7994" lon="-8.63486">
        <ele>54.93</ele>
        <time>2019-06-08T07:29:24Z</time>
      </trkpt>
      <trkpt lat="42.79941" lon="-8.63481">
        <ele>54.93</ele>
        <time>2019-06-08T07:29:27Z</time>
      </trkpt>
      <trkpt lat="42.79945" lon="-8.6347">
        <ele>55.41</ele>
        <time>2019-06-08T07:29:33Z</time>
      </trkpt>
      <trkpt lat="42.79954" lon="-8.63457">
        <ele>55.89</ele>
        <time>2019-06-08T07:29:49Z</time>
      </trkpt>
      <trkpt lat="42.79965" lon="-8.63454">
        <ele>56.86</ele>
        <time>2019-06-08T07:30:01Z</time>
      </trkpt>
      <trkpt lat="42.79967" lon="-8.6346">
        <ele>57.82</ele>
        <time>2019-06-08T07:30:09Z</time>
      </trkpt>
      <trkpt lat="42.79963" lon="-8.63464">
        <ele>56.86</ele>
        <time>2019-06-08T07:30:14Z</time>
      </trkpt>
      <trkpt lat="42.79962" lon="-8.63467">
        <ele>56.86</ele>
        <time>2019-06-08T07:30:18Z</time>
      </trkpt>
      <trkpt lat="42.79974" lon="-8.63479">
        <ele>56.86</ele>
        <time>2019-06-08T07:30:28Z</time>
      </trkpt>
      <trkpt lat="42.79984" lon="-8.63498">
        <ele>57.34</ele>
        <time>2019-06-08T07:30:41Z</time>
      </trkpt>
      <trkpt lat="42.79993" lon="-8.63513">
        <ele>56.86</ele>
        <time>2019-06-08T07:30:53Z</time>
      </trkpt>
      <trkpt lat="42.8" lon="-8.63532">
        <ele>56.37</ele>
        <time>2019-06-08T07:31:06Z</time>
      </trkpt>
      <trkpt lat="42.8001" lon="-8.63553">
        <ele>55.89</ele>
        <time>2019-06-08T07:31:21Z</time>
      </trkpt>
      <trkpt lat="42.80013" lon="-8.63573">
        <ele>56.37</ele>
        <time>2019-06-08T07:31:33Z</time>
      </trkpt>
      <trkpt lat="42.80014" lon="-8.63579">
        <ele>56.37</ele>
        <time>2019-06-08T07:31:37Z</time>
      </trkpt>
      <trkpt lat="42.80021" lon="-8.63599">
        <ele>56.37</ele>
        <time>2019-06-08T07:31:51Z</time>
      </trkpt>
      <trkpt lat="42.80035" lon="-8.63618">
        <ele>55.89</ele>
        <time>2019-06-08T07:32:07Z</time>
      </trkpt>
      <trkpt lat="42.80046" lon="-8.63628">
        <ele>55.41</ele>
        <time>2019-06-08T07:32:17Z</time>
      </trkpt>
      <trkpt lat="42.80054" lon="-8.63635">
        <ele>54.93</ele>
        <time>2019-06-08T07:32:24Z</time>
      </trkpt>
      <trkpt lat="42.80072" lon="-8.63642">
        <ele>53.97</ele>
        <time>2019-06-08T07:32:40Z</time>
      </trkpt>
      <trkpt lat="42.8008" lon="-8.63647">
        <ele>53.49</ele>
        <time>2019-06-08T07:32:48Z</time>
      </trkpt>
      <trkpt lat="42.80094" lon="-8.63667">
        <ele>52.53</ele>
        <time>2019-06-08T07:33:05Z</time>
      </trkpt>
      <trkpt lat="42.801" lon="-8.6369">
        <ele>52.05</ele>
        <time>2019-06-08T07:33:20Z</time>
      </trkpt>
      <trkpt lat="42.80109" lon="-8.63714">
        <ele>51.57</ele>
        <time>2019-06-08T07:33:36Z</time>
      </trkpt>
      <trkpt lat="42.8011" lon="-8.63715">
        <ele>51.57</ele>
        <time>2019-06-08T07:33:37Z</time>
      </trkpt>
      <trkpt lat="42.80126" lon="-8.63733">
        <ele>50.61</ele>
        <time>2019-06-08T07:33:53Z</time>
      </trkpt>
      <trkpt lat="42.8014" lon="-8.63743">
        <ele>49.65</ele>
        <time>2019-06-08T07:34:06Z</time>
      </trkpt>
      <trkpt lat="42.80146" lon="-8.63746">
        <ele>50.13</ele>
        <time>2019-06-08T07:34:14Z</time>
      </trkpt>
      <trkpt lat="42.80148" lon="-8.63747">
        <ele>49.65</ele>
        <time>2019-06-08T07:34:16Z</time>
      </trkpt>
      <trkpt lat="42.80156" lon="-8.63755">
        <ele>47.72</ele>
        <time>2019-06-08T07:34:25Z</time>
      </trkpt>
      <trkpt lat="42.80173" lon="-8.6377">
        <ele>47.24</ele>
        <time>2019-06-08T07:34:40Z</time>
      </trkpt>
      <trkpt lat="42.80183" lon="-8.63783">
        <ele>46.76</ele>
        <time>2019-06-08T07:34:55Z</time>
      </trkpt>
      <trkpt lat="42.80187" lon="-8.63787">
        <ele>46.76</ele>
        <time>2019-06-08T07:34:59Z</time>
      </trkpt>
      <trkpt lat="42.80199" lon="-8.63788">
        <ele>46.76</ele>
        <time>2019-06-08T07:35:07Z</time>
      </trkpt>
      <trkpt lat="42.80211" lon="-8.63792">
        <ele>46.76</ele>
        <time>2019-06-08T07:35:16Z</time>
      </trkpt>
      <trkpt lat="42.80225" lon="-8.6378">
        <ele>47.24</ele>
        <time>2019-06-08T07:35:32Z</time>
      </trkpt>
      <trkpt lat="42.80244" lon="-8.63765">
        <ele>47.24</ele>
        <time>2019-06-08T07:35:49Z</time>
      </trkpt>
      <trkpt lat="42.80245" lon="-8.63763">
        <ele>48.2</ele>
        <time>2019-06-08T07:36:01Z</time>
      </trkpt>
      <trkpt lat="42.8025" lon="-8.63764">
        <ele>47.72</ele>
        <time>2019-06-08T07:36:10Z</time>
      </trkpt>
      <trkpt lat="42.80259" lon="-8.63778">
        <ele>47.24</ele>
        <time>2019-06-08T07:36:22Z</time>
      </trkpt>
      <trkpt lat="42.8027" lon="-8.6377">
        <ele>47.24</ele>
        <time>2019-06-08T07:36:33Z</time>
      </trkpt>
      <trkpt lat="42.80282" lon="-8.63757">
        <ele>47.72</ele>
        <time>2019-06-08T07:36:47Z</time>
      </trkpt>
      <trkpt lat="42.80296" lon="-8.63744">
        <ele>47.72</ele>
        <time>2019-06-08T07:37:01Z</time>
      </trkpt>
      <trkpt lat="42.803" lon="-8.63739">
        <ele>47.24</ele>
        <time>2019-06-08T07:37:06Z</time>
      </trkpt>
      <trkpt lat="42.80314" lon="-8.63726">
        <ele>46.28</ele>
        <time>2019-06-08T07:37:20Z</time>
      </trkpt>
      <trkpt lat="42.80327" lon="-8.63713">
        <ele>47.24</ele>
        <time>2019-06-08T07:37:34Z</time>
      </trkpt>
      <trkpt lat="42.80344" lon="-8.63697">
        <ele>46.28</ele>
        <time>2019-06-08T07:37:51Z</time>
      </trkpt>
      <trkpt lat="42.80356" lon="-8.63682">
        <ele>45.8</ele>
        <time>2019-06-08T07:38:06Z</time>
      </trkpt>
      <trkpt lat="42.8037" lon="-8.63672">
        <ele>45.8</ele>
        <time>2019-06-08T07:38:17Z</time>
      </trkpt>
      <trkpt lat="42.80375" lon="-8.63683">
        <ele>43.4</ele>
        <time>2019-06-08T07:38:27Z</time>
      </trkpt>
      <trkpt lat="42.80376" lon="-8.63689">
        <ele>43.4</ele>
        <time>2019-06-08T07:38:31Z</time>
      </trkpt>
      <trkpt lat="42.8038" lon="-8.63703">
        <ele>42.92</ele>
        <time>2019-06-08T07:38:40Z</time>
      </trkpt>
      <trkpt lat="42.80392" lon="-8.63723">
        <ele>41.47</ele>
        <time>2019-06-08T07:38:56Z</time>
      </trkpt>
      <trkpt lat="42.80402" lon="-8.63742">
        <ele>40.99</ele>
        <time>2019-06-08T07:39:10Z</time>
      </trkpt>
      <trkpt lat="42.80415" lon="-8.63767">
        <ele>40.03</ele>
        <time>2019-06-08T07:39:27Z</time>
      </trkpt>
      <trkpt lat="42.80425" lon="-8.63785">
        <ele>39.07</ele>
        <time>2019-06-08T07:39:42Z</time>
      </trkpt>
      <trkpt lat="42.80437" lon="-8.63804">
        <ele>38.59</ele>
        <time>2019-06-08T07:39:57Z</time>
      </trkpt>
      <trkpt lat="42.80438" lon="-8.63806">
        <ele>38.59</ele>
        <time>2019-06-08T07:39:58Z</time>
      </trkpt>
      <trkpt lat="42.80445" lon="-8.63809">
        <ele>38.11</ele>
        <time>2019-06-08T07:40:03Z</time>
      </trkpt>
      <trkpt lat="42.80456" lon="-8.63803">
        <ele>38.59</ele>
        <time>2019-06-08T07:40:14Z</time>
      </trkpt>
      <trkpt lat="42.80471" lon="-8.63797">
        <ele>39.55</ele>
        <time>2019-06-08T07:40:28Z</time>
      </trkpt>
      <trkpt lat="42.8048" lon="-8.6379">
        <ele>39.55</ele>
        <time>2019-06-08T07:40:39Z</time>
      </trkpt>
      <trkpt lat="42.80482" lon="-8.63788">
        <ele>39.07</ele>
        <time>2019-06-08T07:40:41Z</time>
      </trkpt>
      <trkpt lat="42.80486" lon="-8.63785">
        <ele>39.55</ele>
        <time>2019-06-08T07:40:46Z</time>
      </trkpt>
      <trkpt lat="42.80502" lon="-8.63781">
        <ele>38.59</ele>
        <time>2019-06-08T07:40:56Z</time>
      </trkpt>
      <trkpt lat="42.80509" lon="-8.63778">
        <ele>39.55</ele>
        <time>2019-06-08T07:41:01Z</time>
      </trkpt>
      <trkpt lat="42.80512" lon="-8.63777">
        <ele>38.59</ele>
        <time>2019-06-08T07:41:03Z</time>
      </trkpt>
      <trkpt lat="42.80522" lon="-8.63772">
        <ele>38.59</ele>
        <time>2019-06-08T07:41:15Z</time>
      </trkpt>
      <trkpt lat="42.8054" lon="-8.63762">
        <ele>38.11</ele>
        <time>2019-06-08T07:41:30Z</time>
      </trkpt>
      <trkpt lat="42.80551" lon="-8.63755">
        <ele>38.11</ele>
        <time>2019-06-08T07:41:43Z</time>
      </trkpt>
      <trkpt lat="42.80563" lon="-8.6375">
        <ele>38.59</ele>
        <time>2019-06-08T07:41:55Z</time>
      </trkpt>
      <trkpt lat="42.80584" lon="-8.63738">
        <ele>39.55</ele>
        <time>2019-06-08T07:42:08Z</time>
      </trkpt>
      <trkpt lat="42.80593" lon="-8.63731">
        <ele>39.07</ele>
        <time>2019-06-08T07:42:18Z</time>
      </trkpt>
      <trkpt lat="42.80608" lon="-8.63738">
        <ele>39.55</ele>
        <time>2019-06-08T07:42:31Z</time>
      </trkpt>
      <trkpt lat="42.80611" lon="-8.63738">
        <ele>39.07</ele>
        <time>2019-06-08T07:42:37Z</time>
      </trkpt>
      <trkpt lat="42.80615" lon="-8.63738">
        <ele>39.07</ele>
        <time>2019-06-08T07:42:41Z</time>
      </trkpt>
      <trkpt lat="42.80621" lon="-8.63739">
        <ele>38.59</ele>
        <time>2019-06-08T07:42:48Z</time>
      </trkpt>
      <trkpt lat="42.80631" lon="-8.6374">
        <ele>38.59</ele>
        <time>2019-06-08T07:43:02Z</time>
      </trkpt>
      <trkpt lat="42.80644" lon="-8.63742">
        <ele>38.59</ele>
        <time>2019-06-08T07:43:14Z</time>
      </trkpt>
      <trkpt lat="42.80653" lon="-8.63735">
        <ele>38.11</ele>
        <time>2019-06-08T07:43:27Z</time>
      </trkpt>
      <trkpt lat="42.80664" lon="-8.63718">
        <ele>38.59</ele>
        <time>2019-06-08T07:43:41Z</time>
      </trkpt>
      <trkpt lat="42.80675" lon="-8.63705">
        <ele>39.55</ele>
        <time>2019-06-08T07:43:52Z</time>
      </trkpt>
      <trkpt lat="42.80684" lon="-8.63686">
        <ele>39.55</ele>
        <time>2019-06-08T07:44:05Z</time>
      </trkpt>
      <trkpt lat="42.80688" lon="-8.63665">
        <ele>40.03</ele>
        <time>2019-06-08T07:44:18Z</time>
      </trkpt>
      <trkpt lat="42.80692" lon="-8.63654">
        <ele>40.51</ele>
        <time>2019-06-08T07:44:26Z</time>
      </trkpt>
      <trkpt lat="42.80709" lon="-8.63645">
        <ele>38.59</ele>
        <time>2019-06-08T07:44:43Z</time>
      </trkpt>
      <trkpt lat="42.80713" lon="-8.63643">
        <ele>37.63</ele>
        <time>2019-06-08T07:44:47Z</time>
      </trkpt>
      <trkpt lat="42.80727" lon="-8.63628">
        <ele>36.67</ele>
        <time>2019-06-08T07:45:01Z</time>
      </trkpt>
      <trkpt lat="42.80735" lon="-8.63611">
        <ele>38.59</ele>
        <time>2019-06-08T07:45:15Z</time>
      </trkpt>
      <trkpt lat="42.80736" lon="-8.63593">
        <ele>39.07</ele>
        <time>2019-06-08T07:45:29Z</time>
      </trkpt>
      <trkpt lat="42.80736" lon="-8.63589">
        <ele>39.07</ele>
        <time>2019-06-08T07:45:33Z</time>
      </trkpt>
      <trkpt lat="42.80738" lon="-8.63564">
        <ele>40.03</ele>
        <time>2019-06-08T07:45:49Z</time>
      </trkpt>
      <trkpt lat="42.80744" lon="-8.63545">
        <ele>41.47</ele>
        <time>2019-06-08T07:46:01Z</time>
      </trkpt>
      <trkpt lat="42.8075" lon="-8.63533">
        <ele>40.99</ele>
        <time>2019-06-08T07:46:13Z</time>
      </trkpt>
      <trkpt lat="42.80754" lon="-8.63527">
        <ele>40.99</ele>
        <time>2019-06-08T07:46:18Z</time>
      </trkpt>
      <trkpt lat="42.80756" lon="-8.63523">
        <ele>40.99</ele>
        <time>2019-06-08T07:46:21Z</time>
      </trkpt>
      <trkpt lat="42.80763" lon="-8.63513">
        <ele>41.47</ele>
        <time>2019-06-08T07:46:30Z</time>
      </trkpt>
      <trkpt lat="42.80766" lon="-8.63508">
        <ele>41.47</ele>
        <time>2019-06-08T07:46:36Z</time>
      </trkpt>
      <trkpt lat="42.80778" lon="-8.63484">
        <ele>42.44</ele>
        <time>2019-06-08T07:46:52Z</time>
      </trkpt>
      <trkpt lat="42.80786" lon="-8.63473">
        <ele>41.95</ele>
        <time>2019-06-08T07:47:07Z</time>
      </trkpt>
      <trkpt lat="42.8079" lon="-8.63469">
        <ele>41.95</ele>
        <time>2019-06-08T07:47:12Z</time>
      </trkpt>
      <trkpt lat="42.80797" lon="-8.63455">
        <ele>41.95</ele>
        <time>2019-06-08T07:47:24Z</time>
      </trkpt>
      <trkpt lat="42.80806" lon="-8.63436">
        <ele>41.95</ele>
        <time>2019-06-08T07:47:36Z</time>
      </trkpt>
      <trkpt lat="42.80814" lon="-8.63424">
        <ele>42.44</ele>
        <time>2019-06-08T07:47:45Z</time>
      </trkpt>
      <trkpt lat="42.8082" lon="-8.63408">
        <ele>42.44</ele>
        <time>2019-06-08T07:47:59Z</time>
      </trkpt>
      <trkpt lat="42.80821" lon="-8.63391">
        <ele>42.92</ele>
        <time>2019-06-08T07:48:13Z</time>
      </trkpt>
      <trkpt lat="42.80822" lon="-8.63386">
        <ele>42.92</ele>
        <time>2019-06-08T07:48:16Z</time>
      </trkpt>
      <trkpt lat="42.80834" lon="-8.63365">
        <ele>42.44</ele>
        <time>2019-06-08T07:48:29Z</time>
      </trkpt>
      <trkpt lat="42.80843" lon="-8.63347">
        <ele>42.44</ele>
        <time>2019-06-08T07:48:43Z</time>
      </trkpt>
      <trkpt lat="42.80852" lon="-8.63329">
        <ele>41.95</ele>
        <time>2019-06-08T07:48:57Z</time>
      </trkpt>
      <trkpt lat="42.80857" lon="-8.63325">
        <ele>42.92</ele>
        <time>2019-06-08T07:49:10Z</time>
      </trkpt>
      <trkpt lat="42.80857" lon="-8.63322">
        <ele>42.44</ele>
        <time>2019-06-08T07:49:11Z</time>
      </trkpt>
      <trkpt lat="42.80859" lon="-8.63307">
        <ele>43.4</ele>
        <time>2019-06-08T07:49:24Z</time>
      </trkpt>
      <trkpt lat="42.80859" lon="-8.63304">
        <ele>43.4</ele>
        <time>2019-06-08T07:49:27Z</time>
      </trkpt>
      <trkpt lat="42.80867" lon="-8.63289">
        <ele>46.28</ele>
        <time>2019-06-08T07:49:38Z</time>
      </trkpt>
      <trkpt lat="42.80873" lon="-8.63276">
        <ele>47.24</ele>
        <time>2019-06-08T07:49:49Z</time>
      </trkpt>
      <trkpt lat="42.8088" lon="-8.63258">
        <ele>48.68</ele>
        <time>2019-06-08T07:50:00Z</time>
      </trkpt>
      <trkpt lat="42.80889" lon="-8.63241">
        <ele>50.61</ele>
        <time>2019-06-08T07:50:13Z</time>
      </trkpt>
      <trkpt lat="42.80899" lon="-8.6323">
        <ele>53.01</ele>
        <time>2019-06-08T07:50:25Z</time>
      </trkpt>
      <trkpt lat="42.80905" lon="-8.63215">
        <ele>52.53</ele>
        <time>2019-06-08T07:50:38Z</time>
      </trkpt>
      <trkpt lat="42.80917" lon="-8.63202">
        <ele>53.97</ele>
        <time>2019-06-08T07:50:51Z</time>
      </trkpt>
      <trkpt lat="42.80926" lon="-8.6319">
        <ele>54.93</ele>
        <time>2019-06-08T07:51:03Z</time>
      </trkpt>
      <trkpt lat="42.80927" lon="-8.63189">
        <ele>55.89</ele>
        <time>2019-06-08T07:51:05Z</time>
      </trkpt>
      <trkpt lat="42.80927" lon="-8.6318">
        <ele>56.37</ele>
        <time>2019-06-08T07:51:17Z</time>
      </trkpt>
      <trkpt lat="42.80927" lon="-8.63177">
        <ele>57.82</ele>
        <time>2019-06-08T07:51:22Z</time>
      </trkpt>
      <trkpt lat="42.80929" lon="-8.63156">
        <ele>61.18</ele>
        <time>2019-06-08T07:51:36Z</time>
      </trkpt>
      <trkpt lat="42.80931" lon="-8.6314">
        <ele>61.18</ele>
        <time>2019-06-08T07:51:47Z</time>
      </trkpt>
      <trkpt lat="42.80934" lon="-8.63124">
        <ele>63.58</ele>
        <time>2019-06-08T07:52:02Z</time>
      </trkpt>
      <trkpt lat="42.80939" lon="-8.63112">
        <ele>64.55</ele>
        <time>2019-06-08T07:52:15Z</time>
      </trkpt>
      <trkpt lat="42.80945" lon="-8.63094">
        <ele>65.99</ele>
        <time>2019-06-08T07:52:29Z</time>
      </trkpt>
      <trkpt lat="42.80948" lon="-8.63081">
        <ele>67.43</ele>
        <time>2019-06-08T07:52:43Z</time>
      </trkpt>
      <trkpt lat="42.80943" lon="-8.63085">
        <ele>67.91</ele>
        <time>2019-06-08T07:52:58Z</time>
      </trkpt>
      <trkpt lat="42.80942" lon="-8.6308">
        <ele>67.43</ele>
        <time>2019-06-08T07:53:22Z</time>
      </trkpt>
      <trkpt lat="42.80938" lon="-8.63088">
        <ele>68.39</ele>
        <time>2019-06-08T07:53:36Z</time>
      </trkpt>
      <trkpt lat="42.80936" lon="-8.63092">
        <ele>68.87</ele>
        <time>2019-06-08T07:53:41Z</time>
      </trkpt>
      <trkpt lat="42.80926" lon="-8.63093">
        <ele>70.79</ele>
        <time>2019-06-08T07:53:57Z</time>
      </trkpt>
      <trkpt lat="42.80927" lon="-8.63091">
        <ele>70.31</ele>
        <time>2019-06-08T07:54:00Z</time>
      </trkpt>
      <trkpt lat="42.80937" lon="-8.63077">
        <ele>71.27</ele>
        <time>2019-06-08T07:54:16Z</time>
      </trkpt>
      <trkpt lat="42.80937" lon="-8.63069">
        <ele>71.27</ele>
        <time>2019-06-08T07:54:24Z</time>
      </trkpt>
      <trkpt lat="42.80945" lon="-8.63044">
        <ele>72.24</ele>
        <time>2019-06-08T07:54:42Z</time>
      </trkpt>
      <trkpt lat="42.80948" lon="-8.63023">
        <ele>72.24</ele>
        <time>2019-06-08T07:54:56Z</time>
      </trkpt>
      <trkpt lat="42.80952" lon="-8.63002">
        <ele>72.72</ele>
        <time>2019-06-08T07:55:10Z</time>
      </trkpt>
      <trkpt lat="42.80954" lon="-8.62992">
        <ele>72.72</ele>
        <time>2019-06-08T07:55:16Z</time>
      </trkpt>
      <trkpt lat="42.8096" lon="-8.62968">
        <ele>72.72</ele>
        <time>2019-06-08T07:55:31Z</time>
      </trkpt>
      <trkpt lat="42.80963" lon="-8.62956">
        <ele>73.2</ele>
        <time>2019-06-08T07:55:38Z</time>
      </trkpt>
      <trkpt lat="42.80964" lon="-8.62953">
        <ele>73.68</ele>
        <time>2019-06-08T07:55:40Z</time>
      </trkpt>
      <trkpt lat="42.80972" lon="-8.62928">
        <ele>72.72</ele>
        <time>2019-06-08T07:55:56Z</time>
      </trkpt>
      <trkpt lat="42.80976" lon="-8.62912">
        <ele>73.68</ele>
        <time>2019-06-08T07:56:07Z</time>
      </trkpt>
      <trkpt lat="42.80978" lon="-8.62905">
        <ele>73.68</ele>
        <time>2019-06-08T07:56:11Z</time>
      </trkpt>
      <trkpt lat="42.80982" lon="-8.62882">
        <ele>73.2</ele>
        <time>2019-06-08T07:56:26Z</time>
      </trkpt>
      <trkpt lat="42.80981" lon="-8.62867">
        <ele>73.68</ele>
        <time>2019-06-08T07:56:34Z</time>
      </trkpt>
      <trkpt lat="42.80981" lon="-8.62847">
        <ele>72.72</ele>
        <time>2019-06-08T07:56:46Z</time>
      </trkpt>
      <trkpt lat="42.80984" lon="-8.62829">
        <ele>73.2</ele>
        <time>2019-06-08T07:56:56Z</time>
      </trkpt>
      <trkpt lat="42.80984" lon="-8.62822">
        <ele>72.72</ele>
        <time>2019-06-08T07:57:00Z</time>
      </trkpt>
      <trkpt lat="42.80983" lon="-8.62817">
        <ele>72.72</ele>
        <time>2019-06-08T07:57:03Z</time>
      </trkpt>
      <trkpt lat="42.80976" lon="-8.628">
        <ele>71.76</ele>
        <time>2019-06-08T07:57:17Z</time>
      </trkpt>
      <trkpt lat="42.80972" lon="-8.62772">
        <ele>70.31</ele>
        <time>2019-06-08T07:57:33Z</time>
      </trkpt>
      <trkpt lat="42.80968" lon="-8.62759">
        <ele>69.83</ele>
        <time>2019-06-08T07:57:44Z</time>
      </trkpt>
      <trkpt lat="42.80961" lon="-8.62734">
        <ele>68.87</ele>
        <time>2019-06-08T07:57:59Z</time>
      </trkpt>
      <trkpt lat="42.80956" lon="-8.62718">
        <ele>67.43</ele>
        <time>2019-06-08T07:58:09Z</time>
      </trkpt>
      <trkpt lat="42.80954" lon="-8.62711">
        <ele>67.43</ele>
        <time>2019-06-08T07:58:13Z</time>
      </trkpt>
      <trkpt lat="42.80944" lon="-8.62684">
        <ele>66.47</ele>
        <time>2019-06-08T07:58:30Z</time>
      </trkpt>
      <trkpt lat="42.80941" lon="-8.62675">
        <ele>67.91</ele>
        <time>2019-06-08T07:58:40Z</time>
      </trkpt>
      <trkpt lat="42.8094" lon="-8.62649">
        <ele>67.91</ele>
        <time>2019-06-08T07:58:55Z</time>
      </trkpt>
      <trkpt lat="42.80943" lon="-8.62628">
        <ele>67.91</ele>
        <time>2019-06-08T07:59:10Z</time>
      </trkpt>
      <trkpt lat="42.80951" lon="-8.62601">
        <ele>66.95</ele>
        <time>2019-06-08T07:59:27Z</time>
      </trkpt>
      <trkpt lat="42.80953" lon="-8.62594">
        <ele>67.43</ele>
        <time>2019-06-08T07:59:32Z</time>
      </trkpt>
      <trkpt lat="42.80954" lon="-8.62588">
        <ele>66.47</ele>
        <time>2019-06-08T07:59:36Z</time>
      </trkpt>
      <trkpt lat="42.80964" lon="-8.6256">
        <ele>67.43</ele>
        <time>2019-06-08T07:59:53Z</time>
      </trkpt>
      <trkpt lat="42.80967" lon="-8.62553">
        <ele>67.43</ele>
        <time>2019-06-08T07:59:58Z</time>
      </trkpt>
      <trkpt lat="42.80968" lon="-8.62546">
        <ele>67.43</ele>
        <time>2019-06-08T08:00:02Z</time>
      </trkpt>
      <trkpt lat="42.80979" lon="-8.62521">
        <ele>67.91</ele>
        <time>2019-06-08T08:00:18Z</time>
      </trkpt>
      <trkpt lat="42.8099" lon="-8.62498">
        <ele>68.39</ele>
        <time>2019-06-08T08:00:33Z</time>
      </trkpt>
      <trkpt lat="42.80997" lon="-8.62484">
        <ele>69.83</ele>
        <time>2019-06-08T08:00:43Z</time>
      </trkpt>
      <trkpt lat="42.81006" lon="-8.62466">
        <ele>70.79</ele>
        <time>2019-06-08T08:00:58Z</time>
      </trkpt>
      <trkpt lat="42.81011" lon="-8.62455">
        <ele>71.76</ele>
        <time>2019-06-08T08:01:08Z</time>
      </trkpt>
      <trkpt lat="42.81021" lon="-8.62443">
        <ele>72.72</ele>
        <time>2019-06-08T08:01:24Z</time>
      </trkpt>
      <trkpt lat="42.81027" lon="-8.62437">
        <ele>72.24</ele>
        <time>2019-06-08T08:01:47Z</time>
      </trkpt>
      <trkpt lat="42.81027" lon="-8.62437">
        <ele>71.76</ele>
        <time>2019-06-08T08:01:49Z</time>
      </trkpt>
      <trkpt lat="42.81033" lon="-8.62434">
        <ele>71.76</ele>
        <time>2019-06-08T08:01:54Z</time>
      </trkpt>
      <trkpt lat="42.8104" lon="-8.62432">
        <ele>70.79</ele>
        <time>2019-06-08T08:01:59Z</time>
      </trkpt>
      <trkpt lat="42.81059" lon="-8.6242">
        <ele>69.35</ele>
        <time>2019-06-08T08:02:15Z</time>
      </trkpt>
      <trkpt lat="42.81074" lon="-8.62408">
        <ele>68.87</ele>
        <time>2019-06-08T08:02:28Z</time>
      </trkpt>
      <trkpt lat="42.8109" lon="-8.62397">
        <ele>68.87</ele>
        <time>2019-06-08T08:02:42Z</time>
      </trkpt>
      <trkpt lat="42.81091" lon="-8.62397">
        <ele>68.87</ele>
        <time>2019-06-08T08:02:43Z</time>
      </trkpt>
      <trkpt lat="42.81106" lon="-8.62387">
        <ele>69.35</ele>
        <time>2019-06-08T08:02:58Z</time>
      </trkpt>
      <trkpt lat="42.81113" lon="-8.62384">
        <ele>70.31</ele>
        <time>2019-06-08T08:03:05Z</time>
      </trkpt>
      <trkpt lat="42.81124" lon="-8.62375">
        <ele>71.76</ele>
        <time>2019-06-08T08:03:18Z</time>
      </trkpt>
      <trkpt lat="42.81135" lon="-8.62366">
        <ele>73.2</ele>
        <time>2019-06-08T08:03:30Z</time>
      </trkpt>
      <trkpt lat="42.81146" lon="-8.62349">
        <ele>75.6</ele>
        <time>2019-06-08T08:03:43Z</time>
      </trkpt>
      <trkpt lat="42.81148" lon="-8.62346">
        <ele>76.08</ele>
        <time>2019-06-08T08:03:45Z</time>
      </trkpt>
      <trkpt lat="42.81154" lon="-8.62329">
        <ele>76.56</ele>
        <time>2019-06-08T08:03:55Z</time>
      </trkpt>
      <trkpt lat="42.81155" lon="-8.62327">
        <ele>77.04</ele>
        <time>2019-06-08T08:03:57Z</time>
      </trkpt>
      <trkpt lat="42.81158" lon="-8.6232">
        <ele>77.52</ele>
        <time>2019-06-08T08:04:03Z</time>
      </trkpt>
      <trkpt lat="42.81165" lon="-8.62303">
        <ele>79.93</ele>
        <time>2019-06-08T08:04:17Z</time>
      </trkpt>
      <trkpt lat="42.81167" lon="-8.62297">
        <ele>79.93</ele>
        <time>2019-06-08T08:04:22Z</time>
      </trkpt>
      <trkpt lat="42.81171" lon="-8.62291">
        <ele>81.37</ele>
        <time>2019-06-08T08:04:28Z</time>
      </trkpt>
      <trkpt lat="42.81173" lon="-8.62289">
        <ele>81.85</ele>
        <time>2019-06-08T08:04:30Z</time>
      </trkpt>
      <trkpt lat="42.81186" lon="-8.62272">
        <ele>83.77</ele>
        <time>2019-06-08T08:04:48Z</time>
      </trkpt>
      <trkpt lat="42.8119" lon="-8.62269">
        <ele>83.77</ele>
        <time>2019-06-08T08:04:52Z</time>
      </trkpt>
      <trkpt lat="42.81204" lon="-8.62261">
        <ele>86.18</ele>
        <time>2019-06-08T08:05:08Z</time>
      </trkpt>
      <trkpt lat="42.81218" lon="-8.62254">
        <ele>89.54</ele>
        <time>2019-06-08T08:05:24Z</time>
      </trkpt>
      <trkpt lat="42.81228" lon="-8.62249">
        <ele>90.02</ele>
        <time>2019-06-08T08:05:35Z</time>
      </trkpt>
      <trkpt lat="42.81235" lon="-8.62251">
        <ele>90.5</ele>
        <time>2019-06-08T08:05:41Z</time>
      </trkpt>
      <trkpt lat="42.8125" lon="-8.62244">
        <ele>91.46</ele>
        <time>2019-06-08T08:05:56Z</time>
      </trkpt>
      <trkpt lat="42.81262" lon="-8.62237">
        <ele>90.5</ele>
        <time>2019-06-08T08:06:07Z</time>
      </trkpt>
      <trkpt lat="42.8128" lon="-8.62223">
        <ele>91.46</ele>
        <time>2019-06-08T08:06:23Z</time>
      </trkpt>
      <trkpt lat="42.81295" lon="-8.62215">
        <ele>91.94</ele>
        <time>2019-06-08T08:06:36Z</time>
      </trkpt>
      <trkpt lat="42.81298" lon="-8.62213">
        <ele>91.46</ele>
        <time>2019-06-08T08:06:39Z</time>
      </trkpt>
      <trkpt lat="42.81315" lon="-8.622">
        <ele>92.42</ele>
        <time>2019-06-08T08:06:54Z</time>
      </trkpt>
      <trkpt lat="42.81328" lon="-8.62189">
        <ele>92.9</ele>
        <time>2019-06-08T08:07:07Z</time>
      </trkpt>
      <trkpt lat="42.8133" lon="-8.62188">
        <ele>91.94</ele>
        <time>2019-06-08T08:07:09Z</time>
      </trkpt>
      <trkpt lat="42.81341" lon="-8.62173">
        <ele>93.39</ele>
        <time>2019-06-08T08:07:24Z</time>
      </trkpt>
      <trkpt lat="42.81341" lon="-8.62171">
        <ele>93.87</ele>
        <time>2019-06-08T08:07:25Z</time>
      </trkpt>
      <trkpt lat="42.81343" lon="-8.62165">
        <ele>93.39</ele>
        <time>2019-06-08T08:07:30Z</time>
      </trkpt>
      <trkpt lat="42.81345" lon="-8.6216">
        <ele>93.87</ele>
        <time>2019-06-08T08:07:34Z</time>
      </trkpt>
      <trkpt lat="42.81357" lon="-8.62135">
        <ele>94.83</ele>
        <time>2019-06-08T08:07:51Z</time>
      </trkpt>
      <trkpt lat="42.8136" lon="-8.62128">
        <ele>95.31</ele>
        <time>2019-06-08T08:07:56Z</time>
      </trkpt>
      <trkpt lat="42.81365" lon="-8.62116">
        <ele>95.31</ele>
        <time>2019-06-08T08:08:11Z</time>
      </trkpt>
      <trkpt lat="42.81367" lon="-8.62114">
        <ele>95.79</ele>
        <time>2019-06-08T08:08:32Z</time>
      </trkpt>
      <trkpt lat="42.8137" lon="-8.62109">
        <ele>96.27</ele>
        <time>2019-06-08T08:08:37Z</time>
      </trkpt>
      <trkpt lat="42.81371" lon="-8.62106">
        <ele>96.27</ele>
        <time>2019-06-08T08:08:39Z</time>
      </trkpt>
      <trkpt lat="42.81381" lon="-8.62085">
        <ele>97.23</ele>
        <time>2019-06-08T08:08:56Z</time>
      </trkpt>
      <trkpt lat="42.81388" lon="-8.62069">
        <ele>98.67</ele>
        <time>2019-06-08T08:09:08Z</time>
      </trkpt>
      <trkpt lat="42.81396" lon="-8.62048">
        <ele>101.56</ele>
        <time>2019-06-08T08:09:25Z</time>
      </trkpt>
      <trkpt lat="42.81405" lon="-8.62033">
        <ele>102.52</ele>
        <time>2019-06-08T08:09:36Z</time>
      </trkpt>
      <trkpt lat="42.81418" lon="-8.62035">
        <ele>103.96</ele>
        <time>2019-06-08T08:09:51Z</time>
      </trkpt>
      <trkpt lat="42.81432" lon="-8.62032">
        <ele>105.4</ele>
        <time>2019-06-08T08:10:07Z</time>
      </trkpt>
      <trkpt lat="42.81442" lon="-8.62034">
        <ele>106.84</ele>
        <time>2019-06-08T08:10:22Z</time>
      </trkpt>
      <trkpt lat="42.81444" lon="-8.62027">
        <ele>106.84</ele>
        <time>2019-06-08T08:10:28Z</time>
      </trkpt>
      <trkpt lat="42.81447" lon="-8.62023">
        <ele>106.36</ele>
        <time>2019-06-08T08:10:35Z</time>
      </trkpt>
      <trkpt lat="42.81461" lon="-8.62023">
        <ele>107.81</ele>
        <time>2019-06-08T08:10:49Z</time>
      </trkpt>
      <trkpt lat="42.81471" lon="-8.62028">
        <ele>107.81</ele>
        <time>2019-06-08T08:11:01Z</time>
      </trkpt>
      <trkpt lat="42.8147" lon="-8.62029">
        <ele>107.32</ele>
        <time>2019-06-08T08:11:03Z</time>
      </trkpt>
      <trkpt lat="42.81469" lon="-8.62041">
        <ele>106.84</ele>
        <time>2019-06-08T08:11:11Z</time>
      </trkpt>
      <trkpt lat="42.81469" lon="-8.62051">
        <ele>106.36</ele>
        <time>2019-06-08T08:11:17Z</time>
      </trkpt>
      <trkpt lat="42.8147" lon="-8.62058">
        <ele>105.4</ele>
        <time>2019-06-08T08:11:21Z</time>
      </trkpt>
      <trkpt lat="42.8147" lon="-8.62084">
        <ele>104.92</ele>
        <time>2019-06-08T08:11:37Z</time>
      </trkpt>
      <trkpt lat="42.8147" lon="-8.62099">
        <ele>103.96</ele>
        <time>2019-06-08T08:11:46Z</time>
      </trkpt>
      <trkpt lat="42.81471" lon="-8.62102">
        <ele>103.48</ele>
        <time>2019-06-08T08:11:48Z</time>
      </trkpt>
      <trkpt lat="42.81473" lon="-8.62112">
        <ele>103</ele>
        <time>2019-06-08T08:11:54Z</time>
      </trkpt>
      <trkpt lat="42.81473" lon="-8.6212">
        <ele>103</ele>
        <time>2019-06-08T08:11:59Z</time>
      </trkpt>
      <trkpt lat="42.81484" lon="-8.62143">
        <ele>102.04</ele>
        <time>2019-06-08T08:12:15Z</time>
      </trkpt>
      <trkpt lat="42.81493" lon="-8.62156">
        <ele>101.56</ele>
        <time>2019-06-08T08:12:24Z</time>
      </trkpt>
      <trkpt lat="42.81505" lon="-8.62174">
        <ele>101.56</ele>
        <time>2019-06-08T08:12:40Z</time>
      </trkpt>
      <trkpt lat="42.81509" lon="-8.62176">
        <ele>101.56</ele>
        <time>2019-06-08T08:12:44Z</time>
      </trkpt>
      <trkpt lat="42.81526" lon="-8.62188">
        <ele>101.56</ele>
        <time>2019-06-08T08:12:59Z</time>
      </trkpt>
      <trkpt lat="42.81542" lon="-8.62198">
        <ele>102.04</ele>
        <time>2019-06-08T08:13:12Z</time>
      </trkpt>
      <trkpt lat="42.81544" lon="-8.62201">
        <ele>102.04</ele>
        <time>2019-06-08T08:13:15Z</time>
      </trkpt>
      <trkpt lat="42.81547" lon="-8.62203">
        <ele>101.56</ele>
        <time>2019-06-08T08:13:17Z</time>
      </trkpt>
      <trkpt lat="42.81552" lon="-8.62213">
        <ele>101.56</ele>
        <time>2019-06-08T08:13:24Z</time>
      </trkpt>
      <trkpt lat="42.81555" lon="-8.62216">
        <ele>102.04</ele>
        <time>2019-06-08T08:13:27Z</time>
      </trkpt>
      <trkpt lat="42.81562" lon="-8.62214">
        <ele>101.08</ele>
        <time>2019-06-08T08:13:34Z</time>
      </trkpt>
      <trkpt lat="42.81571" lon="-8.62213">
        <ele>102.04</ele>
        <time>2019-06-08T08:13:47Z</time>
      </trkpt>
      <trkpt lat="42.81577" lon="-8.62213">
        <ele>101.56</ele>
        <time>2019-06-08T08:14:02Z</time>
      </trkpt>
      <trkpt lat="42.81578" lon="-8.6221">
        <ele>100.6</ele>
        <time>2019-06-08T08:14:15Z</time>
      </trkpt>
      <trkpt lat="42.81585" lon="-8.62209">
        <ele>99.63</ele>
        <time>2019-06-08T08:14:36Z</time>
      </trkpt>
      <trkpt lat="42.81592" lon="-8.6221">
        <ele>98.19</ele>
        <time>2019-06-08T08:14:44Z</time>
      </trkpt>
      <trkpt lat="42.81602" lon="-8.62211">
        <ele>96.27</ele>
        <time>2019-06-08T08:14:56Z</time>
      </trkpt>
      <trkpt lat="42.81609" lon="-8.62206">
        <ele>93.87</ele>
        <time>2019-06-08T08:15:06Z</time>
      </trkpt>
      <trkpt lat="42.81611" lon="-8.62201">
        <ele>93.39</ele>
        <time>2019-06-08T08:15:10Z</time>
      </trkpt>
      <trkpt lat="42.81619" lon="-8.62187">
        <ele>92.9</ele>
        <time>2019-06-08T08:15:22Z</time>
      </trkpt>
      <trkpt lat="42.81621" lon="-8.62184">
        <ele>91.94</ele>
        <time>2019-06-08T08:15:24Z</time>
      </trkpt>
      <trkpt lat="42.81633" lon="-8.62171">
        <ele>92.42</ele>
        <time>2019-06-08T08:15:37Z</time>
      </trkpt>
      <trkpt lat="42.81635" lon="-8.62168">
        <ele>93.87</ele>
        <time>2019-06-08T08:15:40Z</time>
      </trkpt>
      <trkpt lat="42.81648" lon="-8.62158">
        <ele>92.42</ele>
        <time>2019-06-08T08:15:51Z</time>
      </trkpt>
      <trkpt lat="42.81651" lon="-8.62156">
        <ele>92.42</ele>
        <time>2019-06-08T08:15:54Z</time>
      </trkpt>
      <trkpt lat="42.8166" lon="-8.6215">
        <ele>91.94</ele>
        <time>2019-06-08T08:16:01Z</time>
      </trkpt>
      <trkpt lat="42.81676" lon="-8.62138">
        <ele>92.42</ele>
        <time>2019-06-08T08:16:15Z</time>
      </trkpt>
      <trkpt lat="42.81695" lon="-8.6213">
        <ele>93.39</ele>
        <time>2019-06-08T08:16:32Z</time>
      </trkpt>
      <trkpt lat="42.81712" lon="-8.62131">
        <ele>94.35</ele>
        <time>2019-06-08T08:16:46Z</time>
      </trkpt>
      <trkpt lat="42.81727" lon="-8.62125">
        <ele>94.83</ele>
        <time>2019-06-08T08:17:00Z</time>
      </trkpt>
      <trkpt lat="42.81742" lon="-8.62121">
        <ele>95.31</ele>
        <time>2019-06-08T08:17:13Z</time>
      </trkpt>
      <trkpt lat="42.81751" lon="-8.62119">
        <ele>95.31</ele>
        <time>2019-06-08T08:17:22Z</time>
      </trkpt>
      <trkpt lat="42.81753" lon="-8.62119">
        <ele>95.79</ele>
        <time>2019-06-08T08:17:24Z</time>
      </trkpt>
      <trkpt lat="42.81757" lon="-8.62117">
        <ele>96.27</ele>
        <time>2019-06-08T08:17:27Z</time>
      </trkpt>
      <trkpt lat="42.81768" lon="-8.62115">
        <ele>96.75</ele>
        <time>2019-06-08T08:17:37Z</time>
      </trkpt>
      <trkpt lat="42.81787" lon="-8.62109">
        <ele>98.67</ele>
        <time>2019-06-08T08:17:53Z</time>
      </trkpt>
      <trkpt lat="42.81799" lon="-8.62103">
        <ele>100.11</ele>
        <time>2019-06-08T08:18:05Z</time>
      </trkpt>
      <trkpt lat="42.81809" lon="-8.62093">
        <ele>103.48</ele>
        <time>2019-06-08T08:18:19Z</time>
      </trkpt>
      <trkpt lat="42.81818" lon="-8.62084">
        <ele>104.44</ele>
        <time>2019-06-08T08:18:30Z</time>
      </trkpt>
      <trkpt lat="42.81826" lon="-8.62072">
        <ele>104.92</ele>
        <time>2019-06-08T08:18:44Z</time>
      </trkpt>
      <trkpt lat="42.81834" lon="-8.62064">
        <ele>107.32</ele>
        <time>2019-06-08T08:18:56Z</time>
      </trkpt>
      <trkpt lat="42.81845" lon="-8.62053">
        <ele>109.73</ele>
        <time>2019-06-08T08:19:11Z</time>
      </trkpt>
      <trkpt lat="42.81855" lon="-8.62042">
        <ele>110.69</ele>
        <time>2019-06-08T08:19:26Z</time>
      </trkpt>
      <trkpt lat="42.81863" lon="-8.62036">
        <ele>113.57</ele>
        <time>2019-06-08T08:19:37Z</time>
      </trkpt>
      <trkpt lat="42.81865" lon="-8.62034">
        <ele>113.57</ele>
        <time>2019-06-08T08:19:39Z</time>
      </trkpt>
      <trkpt lat="42.81879" lon="-8.62024">
        <ele>115.5</ele>
        <time>2019-06-08T08:19:54Z</time>
      </trkpt>
      <trkpt lat="42.81883" lon="-8.6202">
        <ele>115.5</ele>
        <time>2019-06-08T08:19:58Z</time>
      </trkpt>
      <trkpt lat="42.81885" lon="-8.62018">
        <ele>115.01</ele>
        <time>2019-06-08T08:20:00Z</time>
      </trkpt>
      <trkpt lat="42.81899" lon="-8.62002">
        <ele>116.46</ele>
        <time>2019-06-08T08:20:15Z</time>
      </trkpt>
      <trkpt lat="42.81912" lon="-8.61988">
        <ele>116.46</ele>
        <time>2019-06-08T08:20:29Z</time>
      </trkpt>
      <trkpt lat="42.81925" lon="-8.61972">
        <ele>117.42</ele>
        <time>2019-06-08T08:20:45Z</time>
      </trkpt>
      <trkpt lat="42.81932" lon="-8.6195">
        <ele>117.42</ele>
        <time>2019-06-08T08:21:00Z</time>
      </trkpt>
      <trkpt lat="42.81935" lon="-8.61943">
        <ele>117.9</ele>
        <time>2019-06-08T08:21:05Z</time>
      </trkpt>
      <trkpt lat="42.81938" lon="-8.6193">
        <ele>118.38</ele>
        <time>2019-06-08T08:21:13Z</time>
      </trkpt>
      <trkpt lat="42.81942" lon="-8.61921">
        <ele>118.38</ele>
        <time>2019-06-08T08:21:20Z</time>
      </trkpt>
      <trkpt lat="42.81946" lon="-8.61914">
        <ele>118.38</ele>
        <time>2019-06-08T08:21:26Z</time>
      </trkpt>
      <trkpt lat="42.81948" lon="-8.61912">
        <ele>119.34</ele>
        <time>2019-06-08T08:21:29Z</time>
      </trkpt>
      <trkpt lat="42.81959" lon="-8.61895">
        <ele>119.82</ele>
        <time>2019-06-08T08:21:44Z</time>
      </trkpt>
      <trkpt lat="42.81967" lon="-8.61885">
        <ele>120.78</ele>
        <time>2019-06-08T08:21:53Z</time>
      </trkpt>
      <trkpt lat="42.8197" lon="-8.6188">
        <ele>120.78</ele>
        <time>2019-06-08T08:21:57Z</time>
      </trkpt>
      <trkpt lat="42.81973" lon="-8.61877">
        <ele>121.26</ele>
        <time>2019-06-08T08:22:01Z</time>
      </trkpt>
      <trkpt lat="42.81985" lon="-8.61865">
        <ele>121.74</ele>
        <time>2019-06-08T08:22:15Z</time>
      </trkpt>
      <trkpt lat="42.81987" lon="-8.61863">
        <ele>122.71</ele>
        <time>2019-06-08T08:22:17Z</time>
      </trkpt>
      <trkpt lat="42.81989" lon="-8.61862">
        <ele>122.71</ele>
        <time>2019-06-08T08:22:19Z</time>
      </trkpt>
      <trkpt lat="42.81999" lon="-8.61855">
        <ele>124.15</ele>
        <time>2019-06-08T08:22:28Z</time>
      </trkpt>
      <trkpt lat="42.82008" lon="-8.61848">
        <ele>124.63</ele>
        <time>2019-06-08T08:22:41Z</time>
      </trkpt>
      <trkpt lat="42.82009" lon="-8.61847">
        <ele>125.11</ele>
        <time>2019-06-08T08:22:42Z</time>
      </trkpt>
      <trkpt lat="42.82029" lon="-8.61833">
        <ele>127.03</ele>
        <time>2019-06-08T08:22:57Z</time>
      </trkpt>
      <trkpt lat="42.82044" lon="-8.61823">
        <ele>127.99</ele>
        <time>2019-06-08T08:23:09Z</time>
      </trkpt>
      <trkpt lat="42.82059" lon="-8.61809">
        <ele>128.95</ele>
        <time>2019-06-08T08:23:23Z</time>
      </trkpt>
      <trkpt lat="42.82068" lon="-8.61793">
        <ele>129.43</ele>
        <time>2019-06-08T08:23:36Z</time>
      </trkpt>
      <trkpt lat="42.82073" lon="-8.61781">
        <ele>130.4</ele>
        <time>2019-06-08T08:23:44Z</time>
      </trkpt>
      <trkpt lat="42.82074" lon="-8.61772">
        <ele>130.4</ele>
        <time>2019-06-08T08:23:49Z</time>
      </trkpt>
      <trkpt lat="42.82076" lon="-8.61743">
        <ele>130.4</ele>
        <time>2019-06-08T08:24:07Z</time>
      </trkpt>
      <trkpt lat="42.8208" lon="-8.61719">
        <ele>129.92</ele>
        <time>2019-06-08T08:24:22Z</time>
      </trkpt>
      <trkpt lat="42.82077" lon="-8.61718">
        <ele>130.4</ele>
        <time>2019-06-08T08:24:37Z</time>
      </trkpt>
      <trkpt lat="42.82078" lon="-8.61707">
        <ele>129.92</ele>
        <time>2019-06-08T08:25:02Z</time>
      </trkpt>
      <trkpt lat="42.8208" lon="-8.61703">
        <ele>129.92</ele>
        <time>2019-06-08T08:25:05Z</time>
      </trkpt>
      <trkpt lat="42.82101" lon="-8.61697">
        <ele>129.43</ele>
        <time>2019-06-08T08:25:21Z</time>
      </trkpt>
      <trkpt lat="42.82124" lon="-8.61697">
        <ele>128.95</ele>
        <time>2019-06-08T08:25:38Z</time>
      </trkpt>
      <trkpt lat="42.8213" lon="-8.61699">
        <ele>128.95</ele>
        <time>2019-06-08T08:25:45Z</time>
      </trkpt>
      <trkpt lat="42.82136" lon="-8.61695">
        <ele>129.92</ele>
        <time>2019-06-08T08:25:52Z</time>
      </trkpt>
      <trkpt lat="42.82132" lon="-8.61671">
        <ele>131.36</ele>
        <time>2019-06-08T08:26:07Z</time>
      </trkpt>
      <trkpt lat="42.8213" lon="-8.61655">
        <ele>131.84</ele>
        <time>2019-06-08T08:26:17Z</time>
      </trkpt>
      <trkpt lat="42.8213" lon="-8.61648">
        <ele>131.84</ele>
        <time>2019-06-08T08:26:21Z</time>
      </trkpt>
      <trkpt lat="42.8213" lon="-8.61638">
        <ele>131.36</ele>
        <time>2019-06-08T08:26:27Z</time>
      </trkpt>
      <trkpt lat="42.82128" lon="-8.61606">
        <ele>130.88</ele>
        <time>2019-06-08T08:26:45Z</time>
      </trkpt>
      <trkpt lat="42.82124" lon="-8.61578">
        <ele>130.4</ele>
        <time>2019-06-08T08:27:01Z</time>
      </trkpt>
      <trkpt lat="42.82121" lon="-8.61565">
        <ele>130.4</ele>
        <time>2019-06-08T08:27:10Z</time>
      </trkpt>
      <trkpt lat="42.8213" lon="-8.61544">
        <ele>130.88</ele>
        <time>2019-06-08T08:27:26Z</time>
      </trkpt>
      <trkpt lat="42.82139" lon="-8.61522">
        <ele>131.36</ele>
        <time>2019-06-08T08:27:42Z</time>
      </trkpt>
      <trkpt lat="42.82145" lon="-8.61501">
        <ele>132.8</ele>
        <time>2019-06-08T08:27:57Z</time>
      </trkpt>
      <trkpt lat="42.82153" lon="-8.61477">
        <ele>133.76</ele>
        <time>2019-06-08T08:28:12Z</time>
      </trkpt>
      <trkpt lat="42.82157" lon="-8.61463">
        <ele>134.24</ele>
        <time>2019-06-08T08:28:21Z</time>
      </trkpt>
      <trkpt lat="42.82158" lon="-8.61457">
        <ele>134.24</ele>
        <time>2019-06-08T08:28:25Z</time>
      </trkpt>
      <trkpt lat="42.82158" lon="-8.61429">
        <ele>134.24</ele>
        <time>2019-06-08T08:28:40Z</time>
      </trkpt>
      <trkpt lat="42.82155" lon="-8.61402">
        <ele>136.16</ele>
        <time>2019-06-08T08:28:56Z</time>
      </trkpt>
      <trkpt lat="42.82153" lon="-8.6138">
        <ele>135.68</ele>
        <time>2019-06-08T08:29:09Z</time>
      </trkpt>
      <trkpt lat="42.82152" lon="-8.61366">
        <ele>136.64</ele>
        <time>2019-06-08T08:29:18Z</time>
      </trkpt>
      <trkpt lat="42.82163" lon="-8.61347">
        <ele>136.16</ele>
        <time>2019-06-08T08:29:33Z</time>
      </trkpt>
      <trkpt lat="42.82169" lon="-8.61341">
        <ele>136.16</ele>
        <time>2019-06-08T08:29:40Z</time>
      </trkpt>
      <trkpt lat="42.82174" lon="-8.61336">
        <ele>136.64</ele>
        <time>2019-06-08T08:29:45Z</time>
      </trkpt>
      <trkpt lat="42.82188" lon="-8.61317">
        <ele>136.64</ele>
        <time>2019-06-08T08:30:02Z</time>
      </trkpt>
      <trkpt lat="42.82187" lon="-8.61315">
        <ele>137.13</ele>
        <time>2019-06-08T08:30:17Z</time>
      </trkpt>
      <trkpt lat="42.8219" lon="-8.61314">
        <ele>136.16</ele>
        <time>2019-06-08T08:30:24Z</time>
      </trkpt>
      <trkpt lat="42.82193" lon="-8.61312">
        <ele>137.13</ele>
        <time>2019-06-08T08:30:27Z</time>
      </trkpt>
      <trkpt lat="42.82206" lon="-8.61297">
        <ele>136.16</ele>
        <time>2019-06-08T08:30:41Z</time>
      </trkpt>
      <trkpt lat="42.8222" lon="-8.61285">
        <ele>136.64</ele>
        <time>2019-06-08T08:30:55Z</time>
      </trkpt>
      <trkpt lat="42.82236" lon="-8.6127">
        <ele>137.61</ele>
        <time>2019-06-08T08:31:09Z</time>
      </trkpt>
      <trkpt lat="42.8225" lon="-8.61257">
        <ele>136.64</ele>
        <time>2019-06-08T08:31:21Z</time>
      </trkpt>
      <trkpt lat="42.82256" lon="-8.61251">
        <ele>136.64</ele>
        <time>2019-06-08T08:31:27Z</time>
      </trkpt>
      <trkpt lat="42.82269" lon="-8.61236">
        <ele>136.64</ele>
        <time>2019-06-08T08:31:41Z</time>
      </trkpt>
      <trkpt lat="42.82277" lon="-8.61222">
        <ele>137.13</ele>
        <time>2019-06-08T08:31:55Z</time>
      </trkpt>
      <trkpt lat="42.8228" lon="-8.61217">
        <ele>136.16</ele>
        <time>2019-06-08T08:32:02Z</time>
      </trkpt>
      <trkpt lat="42.82288" lon="-8.61206">
        <ele>136.64</ele>
        <time>2019-06-08T08:32:12Z</time>
      </trkpt>
      <trkpt lat="42.82299" lon="-8.61196">
        <ele>136.16</ele>
        <time>2019-06-08T08:32:26Z</time>
      </trkpt>
      <trkpt lat="42.82306" lon="-8.61188">
        <ele>136.16</ele>
        <time>2019-06-08T08:32:34Z</time>
      </trkpt>
      <trkpt lat="42.82312" lon="-8.61181">
        <ele>136.16</ele>
        <time>2019-06-08T08:32:40Z</time>
      </trkpt>
      <trkpt lat="42.8232" lon="-8.61172">
        <ele>136.16</ele>
        <time>2019-06-08T08:32:49Z</time>
      </trkpt>
      <trkpt lat="42.82335" lon="-8.61158">
        <ele>136.16</ele>
        <time>2019-06-08T08:33:04Z</time>
      </trkpt>
      <trkpt lat="42.82334" lon="-8.61154">
        <ele>135.68</ele>
        <time>2019-06-08T08:33:11Z</time>
      </trkpt>
      <trkpt lat="42.82321" lon="-8.61136">
        <ele>137.13</ele>
        <time>2019-06-08T08:33:26Z</time>
      </trkpt>
      <trkpt lat="42.82309" lon="-8.6112">
        <ele>138.09</ele>
        <time>2019-06-08T08:33:41Z</time>
      </trkpt>
      <trkpt lat="42.82302" lon="-8.61113">
        <ele>139.05</ele>
        <time>2019-06-08T08:33:48Z</time>
      </trkpt>
      <trkpt lat="42.8229" lon="-8.611">
        <ele>139.53</ele>
        <time>2019-06-08T08:34:00Z</time>
      </trkpt>
      <trkpt lat="42.8227" lon="-8.61102">
        <ele>140.49</ele>
        <time>2019-06-08T08:34:14Z</time>
      </trkpt>
      <trkpt lat="42.82263" lon="-8.61109">
        <ele>141.45</ele>
        <time>2019-06-08T08:34:24Z</time>
      </trkpt>
      <trkpt lat="42.82259" lon="-8.61108">
        <ele>141.45</ele>
        <time>2019-06-08T08:34:35Z</time>
      </trkpt>
      <trkpt lat="42.82259" lon="-8.61084">
        <ele>141.93</ele>
        <time>2019-06-08T08:34:52Z</time>
      </trkpt>
      <trkpt lat="42.82259" lon="-8.61076">
        <ele>140.49</ele>
        <time>2019-06-08T08:34:59Z</time>
      </trkpt>
      <trkpt lat="42.82262" lon="-8.61069">
        <ele>140.97</ele>
        <time>2019-06-08T08:35:12Z</time>
      </trkpt>
      <trkpt lat="42.82262" lon="-8.61067">
        <ele>141.45</ele>
        <time>2019-06-08T08:35:16Z</time>
      </trkpt>
      <trkpt lat="42.82262" lon="-8.61061">
        <ele>142.41</ele>
        <time>2019-06-08T08:35:29Z</time>
      </trkpt>
      <trkpt lat="42.82265" lon="-8.61055">
        <ele>140.49</ele>
        <time>2019-06-08T08:35:49Z</time>
      </trkpt>
      <trkpt lat="42.8227" lon="-8.61055">
        <ele>140.97</ele>
        <time>2019-06-08T08:36:26Z</time>
      </trkpt>
      <trkpt lat="42.82267" lon="-8.61055">
        <ele>141.45</ele>
        <time>2019-06-08T08:36:59Z</time>
      </trkpt>
      <trkpt lat="42.82259" lon="-8.61054">
        <ele>140.97</ele>
        <time>2019-06-08T08:37:38Z</time>
      </trkpt>
      <trkpt lat="42.82262" lon="-8.61053">
        <ele>140.49</ele>
        <time>2019-06-08T08:38:26Z</time>
      </trkpt>
      <trkpt lat="42.82271" lon="-8.61048">
        <ele>140.97</ele>
        <time>2019-06-08T08:39:10Z</time>
      </trkpt>
      <trkpt lat="42.82265" lon="-8.61049">
        <ele>140.49</ele>
        <time>2019-06-08T08:39:49Z</time>
      </trkpt>
      <trkpt lat="42.82259" lon="-8.61052">
        <ele>140.01</ele>
        <time>2019-06-08T08:40:24Z</time>
      </trkpt>
      <trkpt lat="42.82262" lon="-8.61054">
        <ele>141.45</ele>
        <time>2019-06-08T08:41:03Z</time>
      </trkpt>
      <trkpt lat="42.82268" lon="-8.61054">
        <ele>140.49</ele>
        <time>2019-06-08T08:41:40Z</time>
      </trkpt>
      <trkpt lat="42.82266" lon="-8.61055">
        <ele>140.49</ele>
        <time>2019-06-08T08:42:23Z</time>
      </trkpt>
      <trkpt lat="42.82262" lon="-8.61057">
        <ele>140.49</ele>
        <time>2019-06-08T08:43:04Z</time>
      </trkpt>
      <trkpt lat="42.82257" lon="-8.61055">
        <ele>140.49</ele>
        <time>2019-06-08T08:43:44Z</time>
      </trkpt>
      <trkpt lat="42.82256" lon="-8.61058">
        <ele>140.49</ele>
        <time>2019-06-08T08:44:23Z</time>
      </trkpt>
      <trkpt lat="42.82265" lon="-8.61059">
        <ele>140.49</ele>
        <time>2019-06-08T08:45:03Z</time>
      </trkpt>
      <trkpt lat="42.82264" lon="-8.61058">
        <ele>140.01</ele>
        <time>2019-06-08T08:45:38Z</time>
      </trkpt>
      <trkpt lat="42.82265" lon="-8.61062">
        <ele>140.01</ele>
        <time>2019-06-08T08:46:19Z</time>
      </trkpt>
      <trkpt lat="42.82265" lon="-8.61056">
        <ele>139.53</ele>
        <time>2019-06-08T08:47:05Z</time>
      </trkpt>
      <trkpt lat="42.82242" lon="-8.61059">
        <ele>140.01</ele>
        <time>2019-06-08T08:47:46Z</time>
      </trkpt>
      <trkpt lat="42.82247" lon="-8.61058">
        <ele>139.53</ele>
        <time>2019-06-08T08:48:30Z</time>
      </trkpt>
      <trkpt lat="42.82251" lon="-8.61053">
        <ele>140.01</ele>
        <time>2019-06-08T08:49:14Z</time>
      </trkpt>
      <trkpt lat="42.82251" lon="-8.61054">
        <ele>139.53</ele>
        <time>2019-06-08T08:49:49Z</time>
      </trkpt>
      <trkpt lat="42.82262" lon="-8.61051">
        <ele>139.53</ele>
        <time>2019-06-08T08:50:36Z</time>
      </trkpt>
      <trkpt lat="42.82265" lon="-8.61051">
        <ele>139.53</ele>
        <time>2019-06-08T08:51:12Z</time>
      </trkpt>
      <trkpt lat="42.8226" lon="-8.61054">
        <ele>143.85</ele>
        <time>2019-06-08T08:51:32Z</time>
      </trkpt>
      <trkpt lat="42.8226" lon="-8.61054">
        <ele>140.49</ele>
        <time>2019-06-08T08:51:33Z</time>
      </trkpt>
      <trkpt lat="42.82262" lon="-8.61053">
        <ele>140.49</ele>
        <time>2019-06-08T08:51:55Z</time>
      </trkpt>
      <trkpt lat="42.82264" lon="-8.61061">
        <ele>140.01</ele>
        <time>2019-06-08T08:52:09Z</time>
      </trkpt>
      <trkpt lat="42.82263" lon="-8.61069">
        <ele>139.05</ele>
        <time>2019-06-08T08:52:23Z</time>
      </trkpt>
      <trkpt lat="42.82264" lon="-8.61064">
        <ele>139.53</ele>
        <time>2019-06-08T08:52:40Z</time>
      </trkpt>
      <trkpt lat="42.82273" lon="-8.61058">
        <ele>139.05</ele>
        <time>2019-06-08T08:52:53Z</time>
      </trkpt>
      <trkpt lat="42.82274" lon="-8.61058">
        <ele>139.05</ele>
        <time>2019-06-08T08:52:54Z</time>
      </trkpt>
      <trkpt lat="42.82279" lon="-8.61054">
        <ele>139.05</ele>
        <time>2019-06-08T08:53:08Z</time>
      </trkpt>
      <trkpt lat="42.82284" lon="-8.6105">
        <ele>138.57</ele>
        <time>2019-06-08T08:53:18Z</time>
      </trkpt>
      <trkpt lat="42.82294" lon="-8.61036">
        <ele>138.57</ele>
        <time>2019-06-08T08:53:32Z</time>
      </trkpt>
      <trkpt lat="42.82301" lon="-8.61027">
        <ele>137.61</ele>
        <time>2019-06-08T08:53:40Z</time>
      </trkpt>
      <trkpt lat="42.82314" lon="-8.61007">
        <ele>138.09</ele>
        <time>2019-06-08T08:53:57Z</time>
      </trkpt>
      <trkpt lat="42.82322" lon="-8.60995">
        <ele>137.61</ele>
        <time>2019-06-08T08:54:09Z</time>
      </trkpt>
      <trkpt lat="42.82336" lon="-8.60977">
        <ele>137.13</ele>
        <time>2019-06-08T08:54:25Z</time>
      </trkpt>
      <trkpt lat="42.8235" lon="-8.60956">
        <ele>136.64</ele>
        <time>2019-06-08T08:54:42Z</time>
      </trkpt>
      <trkpt lat="42.82363" lon="-8.60937">
        <ele>136.16</ele>
        <time>2019-06-08T08:54:59Z</time>
      </trkpt>
      <trkpt lat="42.82361" lon="-8.60938">
        <ele>136.16</ele>
        <time>2019-06-08T08:55:15Z</time>
      </trkpt>
      <trkpt lat="42.82372" lon="-8.60952">
        <ele>135.68</ele>
        <time>2019-06-08T08:55:27Z</time>
      </trkpt>
      <trkpt lat="42.8238" lon="-8.60961">
        <ele>135.68</ele>
        <time>2019-06-08T08:55:38Z</time>
      </trkpt>
      <trkpt lat="42.82379" lon="-8.60958">
        <ele>135.68</ele>
        <time>2019-06-08T08:55:40Z</time>
      </trkpt>
      <trkpt lat="42.8237" lon="-8.60946">
        <ele>136.16</ele>
        <time>2019-06-08T08:55:50Z</time>
      </trkpt>
      <trkpt lat="42.82365" lon="-8.60944">
        <ele>136.64</ele>
        <time>2019-06-08T08:55:54Z</time>
      </trkpt>
      <trkpt lat="42.82353" lon="-8.60962">
        <ele>136.64</ele>
        <time>2019-06-08T08:56:09Z</time>
      </trkpt>
      <trkpt lat="42.82338" lon="-8.60984">
        <ele>137.13</ele>
        <time>2019-06-08T08:56:26Z</time>
      </trkpt>
      <trkpt lat="42.82326" lon="-8.61003">
        <ele>137.61</ele>
        <time>2019-06-08T08:56:41Z</time>
      </trkpt>
      <trkpt lat="42.82312" lon="-8.61022">
        <ele>138.57</ele>
        <time>2019-06-08T08:56:57Z</time>
      </trkpt>
      <trkpt lat="42.823" lon="-8.61036">
        <ele>138.57</ele>
        <time>2019-06-08T08:57:13Z</time>
      </trkpt>
      <trkpt lat="42.82291" lon="-8.61057">
        <ele>139.05</ele>
        <time>2019-06-08T08:57:27Z</time>
      </trkpt>
      <trkpt lat="42.8229" lon="-8.61061">
        <ele>138.57</ele>
        <time>2019-06-08T08:57:30Z</time>
      </trkpt>
      <trkpt lat="42.82288" lon="-8.61063">
        <ele>138.57</ele>
        <time>2019-06-08T08:57:32Z</time>
      </trkpt>
      <trkpt lat="42.82288" lon="-8.61088">
        <ele>138.57</ele>
        <time>2019-06-08T08:57:47Z</time>
      </trkpt>
      <trkpt lat="42.82295" lon="-8.61096">
        <ele>137.61</ele>
        <time>2019-06-08T08:57:55Z</time>
      </trkpt>
      <trkpt lat="42.823" lon="-8.61099">
        <ele>137.61</ele>
        <time>2019-06-08T08:57:58Z</time>
      </trkpt>
      <trkpt lat="42.82313" lon="-8.6112">
        <ele>136.64</ele>
        <time>2019-06-08T08:58:12Z</time>
      </trkpt>
      <trkpt lat="42.82324" lon="-8.61131">
        <ele>136.16</ele>
        <time>2019-06-08T08:58:23Z</time>
      </trkpt>
      <trkpt lat="42.82337" lon="-8.61144">
        <ele>134.24</ele>
        <time>2019-06-08T08:58:36Z</time>
      </trkpt>
      <trkpt lat="42.82354" lon="-8.61149">
        <ele>134.24</ele>
        <time>2019-06-08T08:58:51Z</time>
      </trkpt>
      <trkpt lat="42.82362" lon="-8.61147">
        <ele>134.24</ele>
        <time>2019-06-08T08:58:58Z</time>
      </trkpt>
      <trkpt lat="42.82377" lon="-8.61141">
        <ele>132.32</ele>
        <time>2019-06-08T08:59:11Z</time>
      </trkpt>
      <trkpt lat="42.82396" lon="-8.61128">
        <ele>131.84</ele>
        <time>2019-06-08T08:59:27Z</time>
      </trkpt>
      <trkpt lat="42.82412" lon="-8.6112">
        <ele>131.84</ele>
        <time>2019-06-08T08:59:40Z</time>
      </trkpt>
      <trkpt lat="42.82427" lon="-8.61111">
        <ele>131.36</ele>
        <time>2019-06-08T08:59:54Z</time>
      </trkpt>
      <trkpt lat="42.82446" lon="-8.61101">
        <ele>130.88</ele>
        <time>2019-06-08T09:00:11Z</time>
      </trkpt>
      <trkpt lat="42.82452" lon="-8.61098">
        <ele>130.88</ele>
        <time>2019-06-08T09:00:17Z</time>
      </trkpt>
      <trkpt lat="42.8247" lon="-8.61093">
        <ele>130.4</ele>
        <time>2019-06-08T09:00:31Z</time>
      </trkpt>
      <trkpt lat="42.82487" lon="-8.61095">
        <ele>130.88</ele>
        <time>2019-06-08T09:00:45Z</time>
      </trkpt>
      <trkpt lat="42.82504" lon="-8.61094">
        <ele>129.92</ele>
        <time>2019-06-08T09:01:00Z</time>
      </trkpt>
      <trkpt lat="42.82523" lon="-8.61094">
        <ele>128.95</ele>
        <time>2019-06-08T09:01:15Z</time>
      </trkpt>
      <trkpt lat="42.82538" lon="-8.61095">
        <ele>128.95</ele>
        <time>2019-06-08T09:01:28Z</time>
      </trkpt>
      <trkpt lat="42.82559" lon="-8.61102">
        <ele>127.51</ele>
        <time>2019-06-08T09:01:45Z</time>
      </trkpt>
      <trkpt lat="42.82578" lon="-8.61109">
        <ele>128.47</ele>
        <time>2019-06-08T09:02:01Z</time>
      </trkpt>
      <trkpt lat="42.82596" lon="-8.61115">
        <ele>128.47</ele>
        <time>2019-06-08T09:02:16Z</time>
      </trkpt>
      <trkpt lat="42.82614" lon="-8.6111">
        <ele>128.95</ele>
        <time>2019-06-08T09:02:30Z</time>
      </trkpt>
      <trkpt lat="42.82615" lon="-8.61109">
        <ele>128.95</ele>
        <time>2019-06-08T09:02:31Z</time>
      </trkpt>
      <trkpt lat="42.8262" lon="-8.61102">
        <ele>127.03</ele>
        <time>2019-06-08T09:02:37Z</time>
      </trkpt>
      <trkpt lat="42.82636" lon="-8.61089">
        <ele>128.47</ele>
        <time>2019-06-08T09:02:53Z</time>
      </trkpt>
      <trkpt lat="42.82649" lon="-8.61088">
        <ele>128.95</ele>
        <time>2019-06-08T09:03:05Z</time>
      </trkpt>
      <trkpt lat="42.82653" lon="-8.61088">
        <ele>129.92</ele>
        <time>2019-06-08T09:03:08Z</time>
      </trkpt>
      <trkpt lat="42.82662" lon="-8.61089">
        <ele>129.43</ele>
        <time>2019-06-08T09:03:15Z</time>
      </trkpt>
      <trkpt lat="42.82673" lon="-8.61091">
        <ele>130.88</ele>
        <time>2019-06-08T09:03:23Z</time>
      </trkpt>
      <trkpt lat="42.82688" lon="-8.61085">
        <ele>132.32</ele>
        <time>2019-06-08T09:03:37Z</time>
      </trkpt>
      <trkpt lat="42.82701" lon="-8.61077">
        <ele>133.76</ele>
        <time>2019-06-08T09:03:50Z</time>
      </trkpt>
      <trkpt lat="42.8271" lon="-8.61073">
        <ele>134.24</ele>
        <time>2019-06-08T09:04:02Z</time>
      </trkpt>
      <trkpt lat="42.82726" lon="-8.61059">
        <ele>135.2</ele>
        <time>2019-06-08T09:04:17Z</time>
      </trkpt>
      <trkpt lat="42.82733" lon="-8.6105">
        <ele>135.68</ele>
        <time>2019-06-08T09:04:26Z</time>
      </trkpt>
      <trkpt lat="42.82736" lon="-8.61046">
        <ele>135.68</ele>
        <time>2019-06-08T09:04:29Z</time>
      </trkpt>
      <trkpt lat="42.8275" lon="-8.61039">
        <ele>135.2</ele>
        <time>2019-06-08T09:04:43Z</time>
      </trkpt>
      <trkpt lat="42.82766" lon="-8.61034">
        <ele>134.72</ele>
        <time>2019-06-08T09:04:56Z</time>
      </trkpt>
      <trkpt lat="42.82775" lon="-8.61032">
        <ele>134.24</ele>
        <time>2019-06-08T09:05:04Z</time>
      </trkpt>
      <trkpt lat="42.82793" lon="-8.61029">
        <ele>134.72</ele>
        <time>2019-06-08T09:05:20Z</time>
      </trkpt>
      <trkpt lat="42.828" lon="-8.61023">
        <ele>134.72</ele>
        <time>2019-06-08T09:05:33Z</time>
      </trkpt>
      <trkpt lat="42.82802" lon="-8.61025">
        <ele>134.72</ele>
        <time>2019-06-08T09:06:03Z</time>
      </trkpt>
      <trkpt lat="42.82808" lon="-8.61018">
        <ele>134.24</ele>
        <time>2019-06-08T09:06:21Z</time>
      </trkpt>
      <trkpt lat="42.82813" lon="-8.61013">
        <ele>134.72</ele>
        <time>2019-06-08T09:06:27Z</time>
      </trkpt>
      <trkpt lat="42.82818" lon="-8.61005">
        <ele>134.72</ele>
        <time>2019-06-08T09:06:34Z</time>
      </trkpt>
      <trkpt lat="42.82828" lon="-8.60977">
        <ele>134.72</ele>
        <time>2019-06-08T09:06:52Z</time>
      </trkpt>
      <trkpt lat="42.82829" lon="-8.60974">
        <ele>134.24</ele>
        <time>2019-06-08T09:06:55Z</time>
      </trkpt>
      <trkpt lat="42.8283" lon="-8.60968">
        <ele>134.72</ele>
        <time>2019-06-08T09:07:09Z</time>
      </trkpt>
      <trkpt lat="42.8283" lon="-8.60961">
        <ele>134.72</ele>
        <time>2019-06-08T09:07:23Z</time>
      </trkpt>
      <trkpt lat="42.82829" lon="-8.60963">
        <ele>134.72</ele>
        <time>2019-06-08T09:07:42Z</time>
      </trkpt>
      <trkpt lat="42.8283" lon="-8.60962">
        <ele>134.72</ele>
        <time>2019-06-08T09:08:09Z</time>
      </trkpt>
      <trkpt lat="42.8283" lon="-8.60965">
        <ele>134.72</ele>
        <time>2019-06-08T09:08:29Z</time>
      </trkpt>
      <trkpt lat="42.82826" lon="-8.60965">
        <ele>135.2</ele>
        <time>2019-06-08T09:08:58Z</time>
      </trkpt>
      <trkpt lat="42.82825" lon="-8.60966">
        <ele>134.72</ele>
        <time>2019-06-08T09:09:26Z</time>
      </trkpt>
      <trkpt lat="42.82826" lon="-8.60965">
        <ele>134.72</ele>
        <time>2019-06-08T09:10:01Z</time>
      </trkpt>
      <trkpt lat="42.82827" lon="-8.60962">
        <ele>135.2</ele>
        <time>2019-06-08T09:10:20Z</time>
      </trkpt>
      <trkpt lat="42.82826" lon="-8.60959">
        <ele>135.2</ele>
        <time>2019-06-08T09:10:41Z</time>
      </trkpt>
      <trkpt lat="42.8283" lon="-8.60947">
        <ele>135.68</ele>
        <time>2019-06-08T09:10:50Z</time>
      </trkpt>
      <trkpt lat="42.82831" lon="-8.60944">
        <ele>135.68</ele>
        <time>2019-06-08T09:10:52Z</time>
      </trkpt>
      <trkpt lat="42.82832" lon="-8.60935">
        <ele>134.72</ele>
        <time>2019-06-08T09:10:58Z</time>
      </trkpt>
      <trkpt lat="42.82832" lon="-8.60926">
        <ele>135.68</ele>
        <time>2019-06-08T09:11:04Z</time>
      </trkpt>
      <trkpt lat="42.82831" lon="-8.60922">
        <ele>135.2</ele>
        <time>2019-06-08T09:11:07Z</time>
      </trkpt>
      <trkpt lat="42.82826" lon="-8.60901">
        <ele>136.16</ele>
        <time>2019-06-08T09:11:21Z</time>
      </trkpt>
      <trkpt lat="42.82824" lon="-8.60896">
        <ele>135.2</ele>
        <time>2019-06-08T09:11:24Z</time>
      </trkpt>
      <trkpt lat="42.82824" lon="-8.60891">
        <ele>136.64</ele>
        <time>2019-06-08T09:11:27Z</time>
      </trkpt>
      <trkpt lat="42.82825" lon="-8.60883">
        <ele>136.64</ele>
        <time>2019-06-08T09:11:32Z</time>
      </trkpt>
      <trkpt lat="42.82825" lon="-8.60879">
        <ele>136.16</ele>
        <time>2019-06-08T09:11:35Z</time>
      </trkpt>
      <trkpt lat="42.82831" lon="-8.60863">
        <ele>136.64</ele>
        <time>2019-06-08T09:11:49Z</time>
      </trkpt>
      <trkpt lat="42.82834" lon="-8.60855">
        <ele>137.13</ele>
        <time>2019-06-08T09:11:53Z</time>
      </trkpt>
      <trkpt lat="42.82847" lon="-8.6084">
        <ele>137.61</ele>
        <time>2019-06-08T09:12:09Z</time>
      </trkpt>
      <trkpt lat="42.82853" lon="-8.60833">
        <ele>138.09</ele>
        <time>2019-06-08T09:12:15Z</time>
      </trkpt>
      <trkpt lat="42.82856" lon="-8.6083">
        <ele>138.57</ele>
        <time>2019-06-08T09:12:18Z</time>
      </trkpt>
      <trkpt lat="42.82866" lon="-8.6082">
        <ele>139.05</ele>
        <time>2019-06-08T09:12:28Z</time>
      </trkpt>
      <trkpt lat="42.82871" lon="-8.60815">
        <ele>139.53</ele>
        <time>2019-06-08T09:12:32Z</time>
      </trkpt>
      <trkpt lat="42.82872" lon="-8.60811">
        <ele>139.53</ele>
        <time>2019-06-08T09:12:34Z</time>
      </trkpt>
      <trkpt lat="42.82876" lon="-8.60807">
        <ele>140.49</ele>
        <time>2019-06-08T09:12:37Z</time>
      </trkpt>
      <trkpt lat="42.82887" lon="-8.6079">
        <ele>141.45</ele>
        <time>2019-06-08T09:12:52Z</time>
      </trkpt>
      <trkpt lat="42.82889" lon="-8.60773">
        <ele>144.34</ele>
        <time>2019-06-08T09:13:06Z</time>
      </trkpt>
      <trkpt lat="42.82888" lon="-8.6076">
        <ele>145.3</ele>
        <time>2019-06-08T09:13:18Z</time>
      </trkpt>
      <trkpt lat="42.8289" lon="-8.60741">
        <ele>146.74</ele>
        <time>2019-06-08T09:13:32Z</time>
      </trkpt>
      <trkpt lat="42.82891" lon="-8.60736">
        <ele>147.7</ele>
        <time>2019-06-08T09:13:36Z</time>
      </trkpt>
      <trkpt lat="42.82895" lon="-8.60712">
        <ele>148.66</ele>
        <time>2019-06-08T09:13:50Z</time>
      </trkpt>
      <trkpt lat="42.82895" lon="-8.60709">
        <ele>148.66</ele>
        <time>2019-06-08T09:13:52Z</time>
      </trkpt>
      <trkpt lat="42.82896" lon="-8.60703">
        <ele>148.66</ele>
        <time>2019-06-08T09:14:05Z</time>
      </trkpt>
      <trkpt lat="42.82896" lon="-8.60694">
        <ele>148.66</ele>
        <time>2019-06-08T09:14:10Z</time>
      </trkpt>
      <trkpt lat="42.82897" lon="-8.60687">
        <ele>149.14</ele>
        <time>2019-06-08T09:14:13Z</time>
      </trkpt>
      <trkpt lat="42.82902" lon="-8.60659">
        <ele>149.14</ele>
        <time>2019-06-08T09:14:29Z</time>
      </trkpt>
      <trkpt lat="42.82902" lon="-8.60641">
        <ele>148.18</ele>
        <time>2019-06-08T09:14:44Z</time>
      </trkpt>
      <trkpt lat="42.82902" lon="-8.6063">
        <ele>147.7</ele>
        <time>2019-06-08T09:15:05Z</time>
      </trkpt>
      <trkpt lat="42.82912" lon="-8.60615">
        <ele>145.3</ele>
        <time>2019-06-08T09:15:18Z</time>
      </trkpt>
      <trkpt lat="42.82925" lon="-8.60604">
        <ele>145.78</ele>
        <time>2019-06-08T09:15:32Z</time>
      </trkpt>
      <trkpt lat="42.82943" lon="-8.60587">
        <ele>146.74</ele>
        <time>2019-06-08T09:15:49Z</time>
      </trkpt>
      <trkpt lat="42.82959" lon="-8.6058">
        <ele>146.74</ele>
        <time>2019-06-08T09:16:03Z</time>
      </trkpt>
      <trkpt lat="42.82973" lon="-8.60574">
        <ele>147.22</ele>
        <time>2019-06-08T09:16:15Z</time>
      </trkpt>
      <trkpt lat="42.8299" lon="-8.60568">
        <ele>147.7</ele>
        <time>2019-06-08T09:16:29Z</time>
      </trkpt>
      <trkpt lat="42.83" lon="-8.60566">
        <ele>147.7</ele>
        <time>2019-06-08T09:16:37Z</time>
      </trkpt>
      <trkpt lat="42.83021" lon="-8.60562">
        <ele>147.7</ele>
        <time>2019-06-08T09:16:54Z</time>
      </trkpt>
      <trkpt lat="42.83035" lon="-8.60559">
        <ele>148.18</ele>
        <time>2019-06-08T09:17:06Z</time>
      </trkpt>
      <trkpt lat="42.83039" lon="-8.60558">
        <ele>148.66</ele>
        <time>2019-06-08T09:17:10Z</time>
      </trkpt>
      <trkpt lat="42.8305" lon="-8.60556">
        <ele>148.18</ele>
        <time>2019-06-08T09:17:18Z</time>
      </trkpt>
      <trkpt lat="42.83067" lon="-8.60552">
        <ele>148.18</ele>
        <time>2019-06-08T09:17:32Z</time>
      </trkpt>
      <trkpt lat="42.83084" lon="-8.60544">
        <ele>148.66</ele>
        <time>2019-06-08T09:17:46Z</time>
      </trkpt>
      <trkpt lat="42.83087" lon="-8.60541">
        <ele>148.66</ele>
        <time>2019-06-08T09:17:49Z</time>
      </trkpt>
      <trkpt lat="42.83102" lon="-8.60531">
        <ele>149.14</ele>
        <time>2019-06-08T09:18:03Z</time>
      </trkpt>
      <trkpt lat="42.83108" lon="-8.60526">
        <ele>150.1</ele>
        <time>2019-06-08T09:18:10Z</time>
      </trkpt>
      <trkpt lat="42.83112" lon="-8.60525">
        <ele>149.62</ele>
        <time>2019-06-08T09:18:13Z</time>
      </trkpt>
      <trkpt lat="42.83124" lon="-8.60516">
        <ele>149.62</ele>
        <time>2019-06-08T09:18:28Z</time>
      </trkpt>
      <trkpt lat="42.83128" lon="-8.60514">
        <ele>150.1</ele>
        <time>2019-06-08T09:18:37Z</time>
      </trkpt>
      <trkpt lat="42.83141" lon="-8.60506">
        <ele>150.58</ele>
        <time>2019-06-08T09:18:49Z</time>
      </trkpt>
      <trkpt lat="42.83153" lon="-8.60493">
        <ele>151.06</ele>
        <time>2019-06-08T09:19:01Z</time>
      </trkpt>
      <trkpt lat="42.83157" lon="-8.60486">
        <ele>151.06</ele>
        <time>2019-06-08T09:19:07Z</time>
      </trkpt>
      <trkpt lat="42.83168" lon="-8.60463">
        <ele>151.54</ele>
        <time>2019-06-08T09:19:23Z</time>
      </trkpt>
      <trkpt lat="42.83177" lon="-8.60443">
        <ele>151.54</ele>
        <time>2019-06-08T09:19:38Z</time>
      </trkpt>
      <trkpt lat="42.83185" lon="-8.60427">
        <ele>152.51</ele>
        <time>2019-06-08T09:19:52Z</time>
      </trkpt>
      <trkpt lat="42.83189" lon="-8.60419">
        <ele>153.47</ele>
        <time>2019-06-08T09:19:58Z</time>
      </trkpt>
      <trkpt lat="42.83193" lon="-8.60414">
        <ele>152.99</ele>
        <time>2019-06-08T09:20:02Z</time>
      </trkpt>
      <trkpt lat="42.83206" lon="-8.60391">
        <ele>152.99</ele>
        <time>2019-06-08T09:20:17Z</time>
      </trkpt>
      <trkpt lat="42.83219" lon="-8.60377">
        <ele>154.43</ele>
        <time>2019-06-08T09:20:31Z</time>
      </trkpt>
      <trkpt lat="42.8323" lon="-8.6036">
        <ele>155.87</ele>
        <time>2019-06-08T09:20:45Z</time>
      </trkpt>
      <trkpt lat="42.83242" lon="-8.60342">
        <ele>156.35</ele>
        <time>2019-06-08T09:20:59Z</time>
      </trkpt>
      <trkpt lat="42.83249" lon="-8.60323">
        <ele>156.83</ele>
        <time>2019-06-08T09:21:12Z</time>
      </trkpt>
      <trkpt lat="42.83262" lon="-8.60305">
        <ele>158.27</ele>
        <time>2019-06-08T09:21:26Z</time>
      </trkpt>
      <trkpt lat="42.83273" lon="-8.60289">
        <ele>159.72</ele>
        <time>2019-06-08T09:21:40Z</time>
      </trkpt>
      <trkpt lat="42.83282" lon="-8.60276">
        <ele>160.2</ele>
        <time>2019-06-08T09:21:54Z</time>
      </trkpt>
      <trkpt lat="42.83291" lon="-8.60264">
        <ele>161.64</ele>
        <time>2019-06-08T09:22:06Z</time>
      </trkpt>
      <trkpt lat="42.833" lon="-8.60247">
        <ele>162.12</ele>
        <time>2019-06-08T09:22:18Z</time>
      </trkpt>
      <trkpt lat="42.83305" lon="-8.60231">
        <ele>163.56</ele>
        <time>2019-06-08T09:22:30Z</time>
      </trkpt>
      <trkpt lat="42.83311" lon="-8.60219">
        <ele>165</ele>
        <time>2019-06-08T09:22:40Z</time>
      </trkpt>
      <trkpt lat="42.83315" lon="-8.602">
        <ele>166.45</ele>
        <time>2019-06-08T09:22:52Z</time>
      </trkpt>
      <trkpt lat="42.83315" lon="-8.60198">
        <ele>166.45</ele>
        <time>2019-06-08T09:22:53Z</time>
      </trkpt>
      <trkpt lat="42.83316" lon="-8.60179">
        <ele>166.93</ele>
        <time>2019-06-08T09:23:07Z</time>
      </trkpt>
      <trkpt lat="42.83318" lon="-8.60168">
        <ele>168.85</ele>
        <time>2019-06-08T09:23:14Z</time>
      </trkpt>
      <trkpt lat="42.83321" lon="-8.60161">
        <ele>168.37</ele>
        <time>2019-06-08T09:23:18Z</time>
      </trkpt>
      <trkpt lat="42.83328" lon="-8.60148">
        <ele>169.33</ele>
        <time>2019-06-08T09:23:31Z</time>
      </trkpt>
      <trkpt lat="42.83335" lon="-8.60133">
        <ele>170.77</ele>
        <time>2019-06-08T09:23:44Z</time>
      </trkpt>
      <trkpt lat="42.83348" lon="-8.60117">
        <ele>171.73</ele>
        <time>2019-06-08T09:23:57Z</time>
      </trkpt>
      <trkpt lat="42.83355" lon="-8.60104">
        <ele>171.73</ele>
        <time>2019-06-08T09:24:13Z</time>
      </trkpt>
      <trkpt lat="42.8336" lon="-8.60099">
        <ele>171.25</ele>
        <time>2019-06-08T09:24:33Z</time>
      </trkpt>
      <trkpt lat="42.83376" lon="-8.60093">
        <ele>172.21</ele>
        <time>2019-06-08T09:24:47Z</time>
      </trkpt>
      <trkpt lat="42.83385" lon="-8.60087">
        <ele>172.21</ele>
        <time>2019-06-08T09:24:56Z</time>
      </trkpt>
      <trkpt lat="42.83396" lon="-8.60082">
        <ele>172.69</ele>
        <time>2019-06-08T09:25:05Z</time>
      </trkpt>
      <trkpt lat="42.83401" lon="-8.60079">
        <ele>172.69</ele>
        <time>2019-06-08T09:25:10Z</time>
      </trkpt>
      <trkpt lat="42.83409" lon="-8.60074">
        <ele>172.21</ele>
        <time>2019-06-08T09:25:18Z</time>
      </trkpt>
      <trkpt lat="42.83419" lon="-8.60061">
        <ele>173.17</ele>
        <time>2019-06-08T09:25:29Z</time>
      </trkpt>
      <trkpt lat="42.83435" lon="-8.60045">
        <ele>173.17</ele>
        <time>2019-06-08T09:25:46Z</time>
      </trkpt>
      <trkpt lat="42.83437" lon="-8.60041">
        <ele>174.14</ele>
        <time>2019-06-08T09:25:50Z</time>
      </trkpt>
      <trkpt lat="42.83445" lon="-8.60033">
        <ele>173.66</ele>
        <time>2019-06-08T09:25:57Z</time>
      </trkpt>
      <trkpt lat="42.8345" lon="-8.6003">
        <ele>173.17</ele>
        <time>2019-06-08T09:26:01Z</time>
      </trkpt>
      <trkpt lat="42.83452" lon="-8.60026">
        <ele>173.17</ele>
        <time>2019-06-08T09:26:04Z</time>
      </trkpt>
      <trkpt lat="42.8347" lon="-8.6001">
        <ele>174.62</ele>
        <time>2019-06-08T09:26:20Z</time>
      </trkpt>
      <trkpt lat="42.83485" lon="-8.59996">
        <ele>174.62</ele>
        <time>2019-06-08T09:26:35Z</time>
      </trkpt>
      <trkpt lat="42.83502" lon="-8.59981">
        <ele>174.14</ele>
        <time>2019-06-08T09:26:51Z</time>
      </trkpt>
      <trkpt lat="42.83517" lon="-8.59968">
        <ele>175.58</ele>
        <time>2019-06-08T09:27:06Z</time>
      </trkpt>
      <trkpt lat="42.8353" lon="-8.59955">
        <ele>176.06</ele>
        <time>2019-06-08T09:27:20Z</time>
      </trkpt>
      <trkpt lat="42.83542" lon="-8.59936">
        <ele>176.54</ele>
        <time>2019-06-08T09:27:34Z</time>
      </trkpt>
      <trkpt lat="42.83542" lon="-8.59934">
        <ele>177.98</ele>
        <time>2019-06-08T09:27:36Z</time>
      </trkpt>
      <trkpt lat="42.83546" lon="-8.59929">
        <ele>177.98</ele>
        <time>2019-06-08T09:27:41Z</time>
      </trkpt>
      <trkpt lat="42.8355" lon="-8.59928">
        <ele>178.46</ele>
        <time>2019-06-08T09:27:45Z</time>
      </trkpt>
      <trkpt lat="42.83559" lon="-8.59915">
        <ele>178.94</ele>
        <time>2019-06-08T09:27:56Z</time>
      </trkpt>
      <trkpt lat="42.83561" lon="-8.59913">
        <ele>179.9</ele>
        <time>2019-06-08T09:27:59Z</time>
      </trkpt>
      <trkpt lat="42.83566" lon="-8.59897">
        <ele>180.87</ele>
        <time>2019-06-08T09:28:09Z</time>
      </trkpt>
      <trkpt lat="42.83569" lon="-8.59889">
        <ele>180.38</ele>
        <time>2019-06-08T09:28:15Z</time>
      </trkpt>
      <trkpt lat="42.8357" lon="-8.59882">
        <ele>180.87</ele>
        <time>2019-06-08T09:28:19Z</time>
      </trkpt>
      <trkpt lat="42.83574" lon="-8.5986">
        <ele>182.31</ele>
        <time>2019-06-08T09:28:34Z</time>
      </trkpt>
      <trkpt lat="42.83575" lon="-8.59859">
        <ele>182.31</ele>
        <time>2019-06-08T09:28:35Z</time>
      </trkpt>
      <trkpt lat="42.83579" lon="-8.59846">
        <ele>182.31</ele>
        <time>2019-06-08T09:28:45Z</time>
      </trkpt>
      <trkpt lat="42.83585" lon="-8.59838">
        <ele>183.27</ele>
        <time>2019-06-08T09:28:53Z</time>
      </trkpt>
      <trkpt lat="42.83585" lon="-8.59829">
        <ele>183.75</ele>
        <time>2019-06-08T09:29:09Z</time>
      </trkpt>
      <trkpt lat="42.83586" lon="-8.59829">
        <ele>183.75</ele>
        <time>2019-06-08T09:29:17Z</time>
      </trkpt>
      <trkpt lat="42.83587" lon="-8.59827">
        <ele>183.75</ele>
        <time>2019-06-08T09:29:19Z</time>
      </trkpt>
      <trkpt lat="42.83599" lon="-8.59808">
        <ele>183.27</ele>
        <time>2019-06-08T09:29:34Z</time>
      </trkpt>
      <trkpt lat="42.83609" lon="-8.59792">
        <ele>183.27</ele>
        <time>2019-06-08T09:29:48Z</time>
      </trkpt>
      <trkpt lat="42.83618" lon="-8.59777">
        <ele>183.27</ele>
        <time>2019-06-08T09:29:57Z</time>
      </trkpt>
      <trkpt lat="42.83625" lon="-8.59765">
        <ele>183.75</ele>
        <time>2019-06-08T09:30:04Z</time>
      </trkpt>
      <trkpt lat="42.83632" lon="-8.5974">
        <ele>183.27</ele>
        <time>2019-06-08T09:30:19Z</time>
      </trkpt>
      <trkpt lat="42.83638" lon="-8.59717">
        <ele>184.23</ele>
        <time>2019-06-08T09:30:34Z</time>
      </trkpt>
      <trkpt lat="42.8364" lon="-8.59707">
        <ele>184.23</ele>
        <time>2019-06-08T09:30:40Z</time>
      </trkpt>
      <trkpt lat="42.83645" lon="-8.59682">
        <ele>183.75</ele>
        <time>2019-06-08T09:30:55Z</time>
      </trkpt>
      <trkpt lat="42.83649" lon="-8.59657">
        <ele>182.79</ele>
        <time>2019-06-08T09:31:09Z</time>
      </trkpt>
      <trkpt lat="42.8365" lon="-8.59649">
        <ele>182.31</ele>
        <time>2019-06-08T09:31:14Z</time>
      </trkpt>
      <trkpt lat="42.8365" lon="-8.5964">
        <ele>182.31</ele>
        <time>2019-06-08T09:31:20Z</time>
      </trkpt>
      <trkpt lat="42.83651" lon="-8.59631">
        <ele>183.75</ele>
        <time>2019-06-08T09:31:25Z</time>
      </trkpt>
      <trkpt lat="42.83651" lon="-8.59622">
        <ele>183.27</ele>
        <time>2019-06-08T09:31:30Z</time>
      </trkpt>
      <trkpt lat="42.83653" lon="-8.59602">
        <ele>183.75</ele>
        <time>2019-06-08T09:31:44Z</time>
      </trkpt>
      <trkpt lat="42.83655" lon="-8.59583">
        <ele>184.23</ele>
        <time>2019-06-08T09:31:57Z</time>
      </trkpt>
      <trkpt lat="42.83656" lon="-8.5957">
        <ele>184.23</ele>
        <time>2019-06-08T09:32:05Z</time>
      </trkpt>
      <trkpt lat="42.83656" lon="-8.59567">
        <ele>184.23</ele>
        <time>2019-06-08T09:32:07Z</time>
      </trkpt>
      <trkpt lat="42.83656" lon="-8.59548">
        <ele>185.67</ele>
        <time>2019-06-08T09:32:21Z</time>
      </trkpt>
      <trkpt lat="42.83656" lon="-8.59542">
        <ele>185.67</ele>
        <time>2019-06-08T09:32:25Z</time>
      </trkpt>
      <trkpt lat="42.83654" lon="-8.59525">
        <ele>186.63</ele>
        <time>2019-06-08T09:32:36Z</time>
      </trkpt>
      <trkpt lat="42.83649" lon="-8.59502">
        <ele>189.52</ele>
        <time>2019-06-08T09:32:51Z</time>
      </trkpt>
      <trkpt lat="42.83645" lon="-8.59488">
        <ele>190.48</ele>
        <time>2019-06-08T09:33:03Z</time>
      </trkpt>
      <trkpt lat="42.83643" lon="-8.59479">
        <ele>190.96</ele>
        <time>2019-06-08T09:33:09Z</time>
      </trkpt>
      <trkpt lat="42.83642" lon="-8.59477">
        <ele>190.96</ele>
        <time>2019-06-08T09:33:11Z</time>
      </trkpt>
      <trkpt lat="42.83639" lon="-8.59459">
        <ele>191.92</ele>
        <time>2019-06-08T09:33:24Z</time>
      </trkpt>
      <trkpt lat="42.83639" lon="-8.59457">
        <ele>191.92</ele>
        <time>2019-06-08T09:33:25Z</time>
      </trkpt>
      <trkpt lat="42.83642" lon="-8.59443">
        <ele>192.88</ele>
        <time>2019-06-08T09:33:32Z</time>
      </trkpt>
      <trkpt lat="42.83646" lon="-8.59418">
        <ele>193.36</ele>
        <time>2019-06-08T09:33:47Z</time>
      </trkpt>
      <trkpt lat="42.83649" lon="-8.59401">
        <ele>195.28</ele>
        <time>2019-06-08T09:34:01Z</time>
      </trkpt>
      <trkpt lat="42.83649" lon="-8.59384">
        <ele>197.69</ele>
        <time>2019-06-08T09:34:14Z</time>
      </trkpt>
      <trkpt lat="42.83648" lon="-8.59371">
        <ele>198.65</ele>
        <time>2019-06-08T09:34:24Z</time>
      </trkpt>
      <trkpt lat="42.83645" lon="-8.59357">
        <ele>200.57</ele>
        <time>2019-06-08T09:34:33Z</time>
      </trkpt>
      <trkpt lat="42.83645" lon="-8.5935">
        <ele>200.09</ele>
        <time>2019-06-08T09:34:37Z</time>
      </trkpt>
      <trkpt lat="42.83647" lon="-8.5934">
        <ele>200.09</ele>
        <time>2019-06-08T09:34:44Z</time>
      </trkpt>
      <trkpt lat="42.83652" lon="-8.59337">
        <ele>200.57</ele>
        <time>2019-06-08T09:34:51Z</time>
      </trkpt>
      <trkpt lat="42.83662" lon="-8.59337">
        <ele>202.98</ele>
        <time>2019-06-08T09:35:04Z</time>
      </trkpt>
      <trkpt lat="42.83671" lon="-8.59336">
        <ele>204.42</ele>
        <time>2019-06-08T09:35:16Z</time>
      </trkpt>
      <trkpt lat="42.83674" lon="-8.59335">
        <ele>204.9</ele>
        <time>2019-06-08T09:35:20Z</time>
      </trkpt>
      <trkpt lat="42.83687" lon="-8.59337">
        <ele>206.34</ele>
        <time>2019-06-08T09:35:32Z</time>
      </trkpt>
      <trkpt lat="42.83701" lon="-8.59334">
        <ele>208.74</ele>
        <time>2019-06-08T09:35:45Z</time>
      </trkpt>
      <trkpt lat="42.83717" lon="-8.5933">
        <ele>210.67</ele>
        <time>2019-06-08T09:36:02Z</time>
      </trkpt>
      <trkpt lat="42.83722" lon="-8.59329">
        <ele>211.63</ele>
        <time>2019-06-08T09:36:07Z</time>
      </trkpt>
      <trkpt lat="42.83738" lon="-8.59326">
        <ele>212.59</ele>
        <time>2019-06-08T09:36:21Z</time>
      </trkpt>
      <trkpt lat="42.83756" lon="-8.59323">
        <ele>213.55</ele>
        <time>2019-06-08T09:36:35Z</time>
      </trkpt>
      <trkpt lat="42.83758" lon="-8.59323">
        <ele>212.59</ele>
        <time>2019-06-08T09:36:37Z</time>
      </trkpt>
      <trkpt lat="42.83761" lon="-8.59323">
        <ele>213.55</ele>
        <time>2019-06-08T09:36:39Z</time>
      </trkpt>
      <trkpt lat="42.83779" lon="-8.59322">
        <ele>212.59</ele>
        <time>2019-06-08T09:36:52Z</time>
      </trkpt>
      <trkpt lat="42.83796" lon="-8.5932">
        <ele>213.07</ele>
        <time>2019-06-08T09:37:05Z</time>
      </trkpt>
      <trkpt lat="42.83805" lon="-8.59319">
        <ele>213.07</ele>
        <time>2019-06-08T09:37:12Z</time>
      </trkpt>
      <trkpt lat="42.8381" lon="-8.59318">
        <ele>213.55</ele>
        <time>2019-06-08T09:37:17Z</time>
      </trkpt>
      <trkpt lat="42.83825" lon="-8.59317">
        <ele>214.03</ele>
        <time>2019-06-08T09:37:29Z</time>
      </trkpt>
      <trkpt lat="42.83835" lon="-8.59318">
        <ele>214.99</ele>
        <time>2019-06-08T09:37:38Z</time>
      </trkpt>
      <trkpt lat="42.83838" lon="-8.59321">
        <ele>214.03</ele>
        <time>2019-06-08T09:37:42Z</time>
      </trkpt>
      <trkpt lat="42.83838" lon="-8.59326">
        <ele>214.99</ele>
        <time>2019-06-08T09:37:46Z</time>
      </trkpt>
      <trkpt lat="42.83839" lon="-8.59335">
        <ele>215.47</ele>
        <time>2019-06-08T09:37:52Z</time>
      </trkpt>
      <trkpt lat="42.83839" lon="-8.59341">
        <ele>214.99</ele>
        <time>2019-06-08T09:37:56Z</time>
      </trkpt>
      <trkpt lat="42.83834" lon="-8.59369">
        <ele>215.47</ele>
        <time>2019-06-08T09:38:12Z</time>
      </trkpt>
      <trkpt lat="42.83829" lon="-8.59391">
        <ele>215.47</ele>
        <time>2019-06-08T09:38:25Z</time>
      </trkpt>
      <trkpt lat="42.83823" lon="-8.59412">
        <ele>214.99</ele>
        <time>2019-06-08T09:38:38Z</time>
      </trkpt>
      <trkpt lat="42.83821" lon="-8.59416">
        <ele>215.47</ele>
        <time>2019-06-08T09:38:41Z</time>
      </trkpt>
      <trkpt lat="42.83819" lon="-8.59425">
        <ele>215.47</ele>
        <time>2019-06-08T09:38:46Z</time>
      </trkpt>
      <trkpt lat="42.8382" lon="-8.59439">
        <ele>216.43</ele>
        <time>2019-06-08T09:38:56Z</time>
      </trkpt>
      <trkpt lat="42.83833" lon="-8.59419">
        <ele>217.4</ele>
        <time>2019-06-08T09:39:11Z</time>
      </trkpt>
      <trkpt lat="42.83845" lon="-8.59401">
        <ele>219.8</ele>
        <time>2019-06-08T09:39:27Z</time>
      </trkpt>
      <trkpt lat="42.83857" lon="-8.59384">
        <ele>220.76</ele>
        <time>2019-06-08T09:39:43Z</time>
      </trkpt>
      <trkpt lat="42.83868" lon="-8.59364">
        <ele>222.68</ele>
        <time>2019-06-08T09:39:59Z</time>
      </trkpt>
      <trkpt lat="42.83875" lon="-8.5935">
        <ele>223.64</ele>
        <time>2019-06-08T09:40:10Z</time>
      </trkpt>
      <trkpt lat="42.83874" lon="-8.59327">
        <ele>224.12</ele>
        <time>2019-06-08T09:40:24Z</time>
      </trkpt>
      <trkpt lat="42.83874" lon="-8.59318">
        <ele>224.12</ele>
        <time>2019-06-08T09:40:38Z</time>
      </trkpt>
      <trkpt lat="42.83874" lon="-8.59322">
        <ele>223.16</ele>
        <time>2019-06-08T09:40:57Z</time>
      </trkpt>
      <trkpt lat="42.83874" lon="-8.59322">
        <ele>223.64</ele>
        <time>2019-06-08T09:41:36Z</time>
      </trkpt>
      <trkpt lat="42.83874" lon="-8.59321">
        <ele>223.64</ele>
        <time>2019-06-08T09:42:11Z</time>
      </trkpt>
      <trkpt lat="42.83872" lon="-8.59321">
        <ele>223.16</ele>
        <time>2019-06-08T09:42:46Z</time>
      </trkpt>
      <trkpt lat="42.83872" lon="-8.59321">
        <ele>223.16</ele>
        <time>2019-06-08T09:43:24Z</time>
      </trkpt>
      <trkpt lat="42.83871" lon="-8.59319">
        <ele>223.64</ele>
        <time>2019-06-08T09:43:34Z</time>
      </trkpt>
      <trkpt lat="42.83871" lon="-8.59319">
        <ele>227.49</ele>
        <time>2019-06-08T09:43:35Z</time>
      </trkpt>
      <trkpt lat="42.83871" lon="-8.59319">
        <ele>224.12</ele>
        <time>2019-06-08T09:43:36Z</time>
      </trkpt>
      <trkpt lat="42.83871" lon="-8.59318">
        <ele>224.12</ele>
        <time>2019-06-08T09:43:55Z</time>
      </trkpt>
      <trkpt lat="42.83871" lon="-8.59317">
        <ele>224.12</ele>
        <time>2019-06-08T09:44:16Z</time>
      </trkpt>
      <trkpt lat="42.83872" lon="-8.59307">
        <ele>223.64</ele>
        <time>2019-06-08T09:44:31Z</time>
      </trkpt>
      <trkpt lat="42.83868" lon="-8.59292">
        <ele>222.68</ele>
        <time>2019-06-08T09:44:44Z</time>
      </trkpt>
      <trkpt lat="42.83866" lon="-8.59267">
        <ele>221.24</ele>
        <time>2019-06-08T09:44:58Z</time>
      </trkpt>
      <trkpt lat="42.83868" lon="-8.59238">
        <ele>217.88</ele>
        <time>2019-06-08T09:45:15Z</time>
      </trkpt>
      <trkpt lat="42.83874" lon="-8.59213">
        <ele>216.91</ele>
        <time>2019-06-08T09:45:31Z</time>
      </trkpt>
      <trkpt lat="42.83885" lon="-8.59187">
        <ele>215.47</ele>
        <time>2019-06-08T09:45:48Z</time>
      </trkpt>
      <trkpt lat="42.83891" lon="-8.5916">
        <ele>214.03</ele>
        <time>2019-06-08T09:46:03Z</time>
      </trkpt>
      <trkpt lat="42.83897" lon="-8.59142">
        <ele>214.99</ele>
        <time>2019-06-08T09:46:14Z</time>
      </trkpt>
      <trkpt lat="42.83894" lon="-8.59115">
        <ele>214.51</ele>
        <time>2019-06-08T09:46:29Z</time>
      </trkpt>
      <trkpt lat="42.83894" lon="-8.59113">
        <ele>214.99</ele>
        <time>2019-06-08T09:46:30Z</time>
      </trkpt>
      <trkpt lat="42.83893" lon="-8.59106">
        <ele>214.99</ele>
        <time>2019-06-08T09:46:34Z</time>
      </trkpt>
      <trkpt lat="42.83888" lon="-8.59079">
        <ele>214.99</ele>
        <time>2019-06-08T09:46:49Z</time>
      </trkpt>
      <trkpt lat="42.83886" lon="-8.59071">
        <ele>215.47</ele>
        <time>2019-06-08T09:46:54Z</time>
      </trkpt>
      <trkpt lat="42.83885" lon="-8.59057">
        <ele>214.51</ele>
        <time>2019-06-08T09:47:03Z</time>
      </trkpt>
      <trkpt lat="42.83883" lon="-8.59037">
        <ele>214.99</ele>
        <time>2019-06-08T09:47:15Z</time>
      </trkpt>
      <trkpt lat="42.83886" lon="-8.59026">
        <ele>215.47</ele>
        <time>2019-06-08T09:47:27Z</time>
      </trkpt>
      <trkpt lat="42.8389" lon="-8.59017">
        <ele>215.95</ele>
        <time>2019-06-08T09:47:34Z</time>
      </trkpt>
      <trkpt lat="42.83894" lon="-8.59008">
        <ele>215.47</ele>
        <time>2019-06-08T09:47:40Z</time>
      </trkpt>
      <trkpt lat="42.839" lon="-8.58994">
        <ele>215.47</ele>
        <time>2019-06-08T09:47:50Z</time>
      </trkpt>
      <trkpt lat="42.83907" lon="-8.58981">
        <ele>215.95</ele>
        <time>2019-06-08T09:47:59Z</time>
      </trkpt>
      <trkpt lat="42.83913" lon="-8.58966">
        <ele>216.43</ele>
        <time>2019-06-08T09:48:09Z</time>
      </trkpt>
      <trkpt lat="42.8392" lon="-8.58941">
        <ele>216.43</ele>
        <time>2019-06-08T09:48:25Z</time>
      </trkpt>
      <trkpt lat="42.8393" lon="-8.5892">
        <ele>216.43</ele>
        <time>2019-06-08T09:48:40Z</time>
      </trkpt>
      <trkpt lat="42.8394" lon="-8.58898">
        <ele>216.43</ele>
        <time>2019-06-08T09:48:55Z</time>
      </trkpt>
      <trkpt lat="42.83948" lon="-8.58881">
        <ele>217.88</ele>
        <time>2019-06-08T09:49:06Z</time>
      </trkpt>
      <trkpt lat="42.83955" lon="-8.58865">
        <ele>217.4</ele>
        <time>2019-06-08T09:49:17Z</time>
      </trkpt>
      <trkpt lat="42.83958" lon="-8.58853">
        <ele>217.4</ele>
        <time>2019-06-08T09:49:25Z</time>
      </trkpt>
      <trkpt lat="42.83967" lon="-8.58832">
        <ele>217.88</ele>
        <time>2019-06-08T09:49:40Z</time>
      </trkpt>
      <trkpt lat="42.83977" lon="-8.58815">
        <ele>217.4</ele>
        <time>2019-06-08T09:49:52Z</time>
      </trkpt>
      <trkpt lat="42.83981" lon="-8.58808">
        <ele>218.84</ele>
        <time>2019-06-08T09:50:05Z</time>
      </trkpt>
      <trkpt lat="42.83989" lon="-8.58793">
        <ele>218.84</ele>
        <time>2019-06-08T09:50:18Z</time>
      </trkpt>
      <trkpt lat="42.83991" lon="-8.58788">
        <ele>218.36</ele>
        <time>2019-06-08T09:50:21Z</time>
      </trkpt>
      <trkpt lat="42.83993" lon="-8.58782">
        <ele>218.84</ele>
        <time>2019-06-08T09:50:25Z</time>
      </trkpt>
      <trkpt lat="42.84" lon="-8.58763">
        <ele>219.32</ele>
        <time>2019-06-08T09:50:37Z</time>
      </trkpt>
      <trkpt lat="42.84002" lon="-8.58757">
        <ele>219.32</ele>
        <time>2019-06-08T09:50:41Z</time>
      </trkpt>
      <trkpt lat="42.84009" lon="-8.58737">
        <ele>219.32</ele>
        <time>2019-06-08T09:50:54Z</time>
      </trkpt>
      <trkpt lat="42.84012" lon="-8.5873">
        <ele>219.32</ele>
        <time>2019-06-08T09:50:58Z</time>
      </trkpt>
      <trkpt lat="42.84014" lon="-8.58725">
        <ele>220.28</ele>
        <time>2019-06-08T09:51:01Z</time>
      </trkpt>
      <trkpt lat="42.84021" lon="-8.58709">
        <ele>220.76</ele>
        <time>2019-06-08T09:51:12Z</time>
      </trkpt>
      <trkpt lat="42.84028" lon="-8.5869">
        <ele>220.76</ele>
        <time>2019-06-08T09:51:25Z</time>
      </trkpt>
      <trkpt lat="42.84029" lon="-8.58686">
        <ele>220.76</ele>
        <time>2019-06-08T09:51:28Z</time>
      </trkpt>
      <trkpt lat="42.84035" lon="-8.58673">
        <ele>220.76</ele>
        <time>2019-06-08T09:51:38Z</time>
      </trkpt>
      <trkpt lat="42.84036" lon="-8.58669">
        <ele>220.76</ele>
        <time>2019-06-08T09:51:41Z</time>
      </trkpt>
      <trkpt lat="42.84043" lon="-8.58651">
        <ele>221.24</ele>
        <time>2019-06-08T09:51:54Z</time>
      </trkpt>
      <trkpt lat="42.84045" lon="-8.58645">
        <ele>221.72</ele>
        <time>2019-06-08T09:51:58Z</time>
      </trkpt>
      <trkpt lat="42.84051" lon="-8.58636">
        <ele>222.2</ele>
        <time>2019-06-08T09:52:05Z</time>
      </trkpt>
      <trkpt lat="42.84055" lon="-8.58625">
        <ele>222.2</ele>
        <time>2019-06-08T09:52:12Z</time>
      </trkpt>
      <trkpt lat="42.84063" lon="-8.58604">
        <ele>222.2</ele>
        <time>2019-06-08T09:52:26Z</time>
      </trkpt>
      <trkpt lat="42.84067" lon="-8.58594">
        <ele>222.2</ele>
        <time>2019-06-08T09:52:34Z</time>
      </trkpt>
      <trkpt lat="42.84068" lon="-8.58591">
        <ele>222.68</ele>
        <time>2019-06-08T09:52:36Z</time>
      </trkpt>
      <trkpt lat="42.84072" lon="-8.58584">
        <ele>222.68</ele>
        <time>2019-06-08T09:52:41Z</time>
      </trkpt>
      <trkpt lat="42.84079" lon="-8.58569">
        <ele>223.16</ele>
        <time>2019-06-08T09:52:51Z</time>
      </trkpt>
      <trkpt lat="42.84084" lon="-8.58557">
        <ele>223.64</ele>
        <time>2019-06-08T09:52:59Z</time>
      </trkpt>
      <trkpt lat="42.84086" lon="-8.58554">
        <ele>223.64</ele>
        <time>2019-06-08T09:53:01Z</time>
      </trkpt>
      <trkpt lat="42.8409" lon="-8.5854">
        <ele>222.68</ele>
        <time>2019-06-08T09:53:11Z</time>
      </trkpt>
      <trkpt lat="42.84093" lon="-8.58536">
        <ele>224.12</ele>
        <time>2019-06-08T09:53:15Z</time>
      </trkpt>
      <trkpt lat="42.84094" lon="-8.58533">
        <ele>224.12</ele>
        <time>2019-06-08T09:53:17Z</time>
      </trkpt>
      <trkpt lat="42.84096" lon="-8.58527">
        <ele>224.12</ele>
        <time>2019-06-08T09:53:21Z</time>
      </trkpt>
      <trkpt lat="42.84104" lon="-8.58514">
        <ele>224.61</ele>
        <time>2019-06-08T09:53:29Z</time>
      </trkpt>
      <trkpt lat="42.84109" lon="-8.58504">
        <ele>224.61</ele>
        <time>2019-06-08T09:53:36Z</time>
      </trkpt>
      <trkpt lat="42.84116" lon="-8.58482">
        <ele>225.57</ele>
        <time>2019-06-08T09:53:49Z</time>
      </trkpt>
      <trkpt lat="42.8412" lon="-8.58455">
        <ele>226.05</ele>
        <time>2019-06-08T09:54:04Z</time>
      </trkpt>
      <trkpt lat="42.84127" lon="-8.58432">
        <ele>226.53</ele>
        <time>2019-06-08T09:54:19Z</time>
      </trkpt>
      <trkpt lat="42.84135" lon="-8.58407">
        <ele>228.45</ele>
        <time>2019-06-08T09:54:36Z</time>
      </trkpt>
      <trkpt lat="42.84141" lon="-8.58394">
        <ele>229.41</ele>
        <time>2019-06-08T09:54:46Z</time>
      </trkpt>
      <trkpt lat="42.84153" lon="-8.58373">
        <ele>230.85</ele>
        <time>2019-06-08T09:55:03Z</time>
      </trkpt>
      <trkpt lat="42.84164" lon="-8.58355">
        <ele>231.33</ele>
        <time>2019-06-08T09:55:17Z</time>
      </trkpt>
      <trkpt lat="42.84173" lon="-8.58338">
        <ele>232.78</ele>
        <time>2019-06-08T09:55:31Z</time>
      </trkpt>
      <trkpt lat="42.84177" lon="-8.58331">
        <ele>234.22</ele>
        <time>2019-06-08T09:55:37Z</time>
      </trkpt>
      <trkpt lat="42.84183" lon="-8.58321">
        <ele>234.7</ele>
        <time>2019-06-08T09:55:45Z</time>
      </trkpt>
      <trkpt lat="42.84189" lon="-8.58315">
        <ele>234.7</ele>
        <time>2019-06-08T09:55:52Z</time>
      </trkpt>
      <trkpt lat="42.84203" lon="-8.583">
        <ele>236.14</ele>
        <time>2019-06-08T09:56:07Z</time>
      </trkpt>
      <trkpt lat="42.84223" lon="-8.58281">
        <ele>237.58</ele>
        <time>2019-06-08T09:56:27Z</time>
      </trkpt>
      <trkpt lat="42.84237" lon="-8.58267">
        <ele>239.02</ele>
        <time>2019-06-08T09:56:42Z</time>
      </trkpt>
      <trkpt lat="42.84244" lon="-8.58262">
        <ele>239.51</ele>
        <time>2019-06-08T09:56:49Z</time>
      </trkpt>
      <trkpt lat="42.84251" lon="-8.58255">
        <ele>240.47</ele>
        <time>2019-06-08T09:56:57Z</time>
      </trkpt>
      <trkpt lat="42.84259" lon="-8.58249">
        <ele>240.95</ele>
        <time>2019-06-08T09:57:13Z</time>
      </trkpt>
      <trkpt lat="42.84262" lon="-8.58251">
        <ele>241.43</ele>
        <time>2019-06-08T09:57:16Z</time>
      </trkpt>
      <trkpt lat="42.84267" lon="-8.58252">
        <ele>241.91</ele>
        <time>2019-06-08T09:57:20Z</time>
      </trkpt>
      <trkpt lat="42.8428" lon="-8.5824">
        <ele>243.35</ele>
        <time>2019-06-08T09:57:33Z</time>
      </trkpt>
      <trkpt lat="42.84286" lon="-8.58236">
        <ele>243.35</ele>
        <time>2019-06-08T09:57:38Z</time>
      </trkpt>
      <trkpt lat="42.84289" lon="-8.58236">
        <ele>243.83</ele>
        <time>2019-06-08T09:57:40Z</time>
      </trkpt>
      <trkpt lat="42.8429" lon="-8.58235">
        <ele>243.83</ele>
        <time>2019-06-08T09:57:41Z</time>
      </trkpt>
      <trkpt lat="42.84291" lon="-8.58234">
        <ele>243.83</ele>
        <time>2019-06-08T09:57:42Z</time>
      </trkpt>
      <trkpt lat="42.84292" lon="-8.58233">
        <ele>244.31</ele>
        <time>2019-06-08T09:57:43Z</time>
      </trkpt>
      <trkpt lat="42.84296" lon="-8.58227">
        <ele>244.31</ele>
        <time>2019-06-08T09:57:48Z</time>
      </trkpt>
      <trkpt lat="42.84297" lon="-8.58226">
        <ele>244.31</ele>
        <time>2019-06-08T09:57:49Z</time>
      </trkpt>
      <trkpt lat="42.84298" lon="-8.58226">
        <ele>244.79</ele>
        <time>2019-06-08T09:57:50Z</time>
      </trkpt>
      <trkpt lat="42.84299" lon="-8.58224">
        <ele>245.27</ele>
        <time>2019-06-08T09:57:51Z</time>
      </trkpt>
      <trkpt lat="42.843" lon="-8.58223">
        <ele>245.27</ele>
        <time>2019-06-08T09:57:52Z</time>
      </trkpt>
      <trkpt lat="42.84301" lon="-8.58222">
        <ele>245.27</ele>
        <time>2019-06-08T09:57:53Z</time>
      </trkpt>
      <trkpt lat="42.84302" lon="-8.58221">
        <ele>244.79</ele>
        <time>2019-06-08T09:57:54Z</time>
      </trkpt>
      <trkpt lat="42.84303" lon="-8.5822">
        <ele>244.79</ele>
        <time>2019-06-08T09:57:55Z</time>
      </trkpt>
      <trkpt lat="42.8431" lon="-8.58213">
        <ele>245.75</ele>
        <time>2019-06-08T09:58:03Z</time>
      </trkpt>
      <trkpt lat="42.84311" lon="-8.58212">
        <ele>245.75</ele>
        <time>2019-06-08T09:58:04Z</time>
      </trkpt>
      <trkpt lat="42.84315" lon="-8.58207">
        <ele>247.2</ele>
        <time>2019-06-08T09:58:10Z</time>
      </trkpt>
      <trkpt lat="42.84319" lon="-8.58202">
        <ele>247.68</ele>
        <time>2019-06-08T09:58:20Z</time>
      </trkpt>
      <trkpt lat="42.84318" lon="-8.58201">
        <ele>247.68</ele>
        <time>2019-06-08T09:58:21Z</time>
      </trkpt>
      <trkpt lat="42.84321" lon="-8.58194">
        <ele>248.16</ele>
        <time>2019-06-08T09:58:27Z</time>
      </trkpt>
      <trkpt lat="42.84323" lon="-8.58192">
        <ele>248.16</ele>
        <time>2019-06-08T09:58:28Z</time>
      </trkpt>
      <trkpt lat="42.84325" lon="-8.5819">
        <ele>248.16</ele>
        <time>2019-06-08T09:58:29Z</time>
      </trkpt>
      <trkpt lat="42.84328" lon="-8.58188">
        <ele>248.64</ele>
        <time>2019-06-08T09:58:31Z</time>
      </trkpt>
      <trkpt lat="42.84331" lon="-8.58185">
        <ele>248.64</ele>
        <time>2019-06-08T09:58:34Z</time>
      </trkpt>
      <trkpt lat="42.84332" lon="-8.58185">
        <ele>248.64</ele>
        <time>2019-06-08T09:58:35Z</time>
      </trkpt>
      <trkpt lat="42.84333" lon="-8.58184">
        <ele>249.12</ele>
        <time>2019-06-08T09:58:36Z</time>
      </trkpt>
      <trkpt lat="42.84335" lon="-8.58183">
        <ele>248.64</ele>
        <time>2019-06-08T09:58:37Z</time>
      </trkpt>
      <trkpt lat="42.84331" lon="-8.58179">
        <ele>249.12</ele>
        <time>2019-06-08T09:58:49Z</time>
      </trkpt>
      <trkpt lat="42.84329" lon="-8.58175">
        <ele>248.64</ele>
        <time>2019-06-08T09:59:00Z</time>
      </trkpt>
      <trkpt lat="42.84332" lon="-8.58169">
        <ele>249.12</ele>
        <time>2019-06-08T09:59:04Z</time>
      </trkpt>
      <trkpt lat="42.84335" lon="-8.58168">
        <ele>249.6</ele>
        <time>2019-06-08T09:59:06Z</time>
      </trkpt>
      <trkpt lat="42.84336" lon="-8.58167">
        <ele>249.12</ele>
        <time>2019-06-08T09:59:07Z</time>
      </trkpt>
      <trkpt lat="42.84337" lon="-8.58167">
        <ele>249.12</ele>
        <time>2019-06-08T09:59:08Z</time>
      </trkpt>
      <trkpt lat="42.84354" lon="-8.58158">
        <ele>250.08</ele>
        <time>2019-06-08T09:59:24Z</time>
      </trkpt>
      <trkpt lat="42.84357" lon="-8.58156">
        <ele>250.08</ele>
        <time>2019-06-08T09:59:28Z</time>
      </trkpt>
      <trkpt lat="42.8437" lon="-8.58146">
        <ele>251.52</ele>
        <time>2019-06-08T09:59:41Z</time>
      </trkpt>
      <trkpt lat="42.8438" lon="-8.58137">
        <ele>252</ele>
        <time>2019-06-08T09:59:51Z</time>
      </trkpt>
      <trkpt lat="42.84383" lon="-8.58135">
        <ele>252</ele>
        <time>2019-06-08T09:59:54Z</time>
      </trkpt>
      <trkpt lat="42.84384" lon="-8.58132">
        <ele>252</ele>
        <time>2019-06-08T09:59:56Z</time>
      </trkpt>
      <trkpt lat="42.84388" lon="-8.58128">
        <ele>252</ele>
        <time>2019-06-08T10:00:00Z</time>
      </trkpt>
      <trkpt lat="42.84389" lon="-8.58127">
        <ele>252.48</ele>
        <time>2019-06-08T10:00:01Z</time>
      </trkpt>
      <trkpt lat="42.84405" lon="-8.58119">
        <ele>252.96</ele>
        <time>2019-06-08T10:00:15Z</time>
      </trkpt>
      <trkpt lat="42.84409" lon="-8.58116">
        <ele>253.44</ele>
        <time>2019-06-08T10:00:19Z</time>
      </trkpt>
      <trkpt lat="42.84419" lon="-8.58108">
        <ele>253.44</ele>
        <time>2019-06-08T10:00:29Z</time>
      </trkpt>
      <trkpt lat="42.84435" lon="-8.581">
        <ele>253.93</ele>
        <time>2019-06-08T10:00:43Z</time>
      </trkpt>
      <trkpt lat="42.84439" lon="-8.58099">
        <ele>254.41</ele>
        <time>2019-06-08T10:00:46Z</time>
      </trkpt>
      <trkpt lat="42.8444" lon="-8.58098">
        <ele>254.41</ele>
        <time>2019-06-08T10:00:47Z</time>
      </trkpt>
      <trkpt lat="42.84441" lon="-8.58097">
        <ele>254.41</ele>
        <time>2019-06-08T10:00:48Z</time>
      </trkpt>
      <trkpt lat="42.84442" lon="-8.58097">
        <ele>254.41</ele>
        <time>2019-06-08T10:00:49Z</time>
      </trkpt>
      <trkpt lat="42.84443" lon="-8.58096">
        <ele>253.93</ele>
        <time>2019-06-08T10:00:50Z</time>
      </trkpt>
      <trkpt lat="42.84444" lon="-8.58095">
        <ele>254.89</ele>
        <time>2019-06-08T10:00:51Z</time>
      </trkpt>
      <trkpt lat="42.84445" lon="-8.58094">
        <ele>254.41</ele>
        <time>2019-06-08T10:00:52Z</time>
      </trkpt>
      <trkpt lat="42.84447" lon="-8.58094">
        <ele>254.41</ele>
        <time>2019-06-08T10:00:53Z</time>
      </trkpt>
      <trkpt lat="42.84448" lon="-8.58093">
        <ele>254.41</ele>
        <time>2019-06-08T10:00:54Z</time>
      </trkpt>
      <trkpt lat="42.84464" lon="-8.58088">
        <ele>255.37</ele>
        <time>2019-06-08T10:01:07Z</time>
      </trkpt>
      <trkpt lat="42.84471" lon="-8.58088">
        <ele>254.89</ele>
        <time>2019-06-08T10:01:19Z</time>
      </trkpt>
      <trkpt lat="42.84475" lon="-8.58086">
        <ele>254.89</ele>
        <time>2019-06-08T10:01:22Z</time>
      </trkpt>
      <trkpt lat="42.84476" lon="-8.58085">
        <ele>254.89</ele>
        <time>2019-06-08T10:01:23Z</time>
      </trkpt>
      <trkpt lat="42.84478" lon="-8.58085">
        <ele>255.85</ele>
        <time>2019-06-08T10:01:24Z</time>
      </trkpt>
      <trkpt lat="42.84479" lon="-8.58085">
        <ele>254.89</ele>
        <time>2019-06-08T10:01:25Z</time>
      </trkpt>
      <trkpt lat="42.8448" lon="-8.58085">
        <ele>254.89</ele>
        <time>2019-06-08T10:01:26Z</time>
      </trkpt>
      <trkpt lat="42.84481" lon="-8.58084">
        <ele>254.89</ele>
        <time>2019-06-08T10:01:27Z</time>
      </trkpt>
      <trkpt lat="42.84485" lon="-8.58082">
        <ele>255.37</ele>
        <time>2019-06-08T10:01:30Z</time>
      </trkpt>
      <trkpt lat="42.84486" lon="-8.58081">
        <ele>255.37</ele>
        <time>2019-06-08T10:01:31Z</time>
      </trkpt>
      <trkpt lat="42.84502" lon="-8.58074">
        <ele>255.37</ele>
        <time>2019-06-08T10:01:45Z</time>
      </trkpt>
      <trkpt lat="42.8451" lon="-8.58073">
        <ele>255.37</ele>
        <time>2019-06-08T10:01:56Z</time>
      </trkpt>
      <trkpt lat="42.84512" lon="-8.58072">
        <ele>255.37</ele>
        <time>2019-06-08T10:01:58Z</time>
      </trkpt>
      <trkpt lat="42.84514" lon="-8.58072">
        <ele>255.37</ele>
        <time>2019-06-08T10:01:59Z</time>
      </trkpt>
      <trkpt lat="42.84527" lon="-8.5807">
        <ele>255.85</ele>
        <time>2019-06-08T10:02:10Z</time>
      </trkpt>
      <trkpt lat="42.84546" lon="-8.58067">
        <ele>255.85</ele>
        <time>2019-06-08T10:02:25Z</time>
      </trkpt>
      <trkpt lat="42.84563" lon="-8.58065">
        <ele>255.37</ele>
        <time>2019-06-08T10:02:39Z</time>
      </trkpt>
      <trkpt lat="42.8458" lon="-8.58063">
        <ele>254.89</ele>
        <time>2019-06-08T10:02:55Z</time>
      </trkpt>
      <trkpt lat="42.84583" lon="-8.58063">
        <ele>254.41</ele>
        <time>2019-06-08T10:02:58Z</time>
      </trkpt>
      <trkpt lat="42.84584" lon="-8.58063">
        <ele>255.37</ele>
        <time>2019-06-08T10:02:59Z</time>
      </trkpt>
      <trkpt lat="42.84585" lon="-8.58062">
        <ele>254.41</ele>
        <time>2019-06-08T10:03:00Z</time>
      </trkpt>
      <trkpt lat="42.84586" lon="-8.58062">
        <ele>254.41</ele>
        <time>2019-06-08T10:03:01Z</time>
      </trkpt>
      <trkpt lat="42.84588" lon="-8.58062">
        <ele>254.41</ele>
        <time>2019-06-08T10:03:02Z</time>
      </trkpt>
      <trkpt lat="42.84604" lon="-8.5806">
        <ele>253.93</ele>
        <time>2019-06-08T10:03:16Z</time>
      </trkpt>
      <trkpt lat="42.84623" lon="-8.58056">
        <ele>253.44</ele>
        <time>2019-06-08T10:03:32Z</time>
      </trkpt>
      <trkpt lat="42.8464" lon="-8.58055">
        <ele>252</ele>
        <time>2019-06-08T10:03:48Z</time>
      </trkpt>
      <trkpt lat="42.84658" lon="-8.58052">
        <ele>252</ele>
        <time>2019-06-08T10:04:03Z</time>
      </trkpt>
      <trkpt lat="42.84679" lon="-8.58052">
        <ele>251.52</ele>
        <time>2019-06-08T10:04:19Z</time>
      </trkpt>
      <trkpt lat="42.84695" lon="-8.58049">
        <ele>252</ele>
        <time>2019-06-08T10:04:32Z</time>
      </trkpt>
      <trkpt lat="42.84696" lon="-8.58048">
        <ele>252.48</ele>
        <time>2019-06-08T10:04:33Z</time>
      </trkpt>
      <trkpt lat="42.84697" lon="-8.58048">
        <ele>251.04</ele>
        <time>2019-06-08T10:04:34Z</time>
      </trkpt>
      <trkpt lat="42.84699" lon="-8.58049">
        <ele>251.52</ele>
        <time>2019-06-08T10:04:35Z</time>
      </trkpt>
      <trkpt lat="42.847" lon="-8.58049">
        <ele>251.04</ele>
        <time>2019-06-08T10:04:36Z</time>
      </trkpt>
      <trkpt lat="42.84704" lon="-8.58049">
        <ele>251.04</ele>
        <time>2019-06-08T10:04:39Z</time>
      </trkpt>
      <trkpt lat="42.84705" lon="-8.58048">
        <ele>251.04</ele>
        <time>2019-06-08T10:04:40Z</time>
      </trkpt>
      <trkpt lat="42.84706" lon="-8.58048">
        <ele>251.04</ele>
        <time>2019-06-08T10:04:41Z</time>
      </trkpt>
      <trkpt lat="42.84714" lon="-8.58046">
        <ele>251.04</ele>
        <time>2019-06-08T10:04:48Z</time>
      </trkpt>
      <trkpt lat="42.84715" lon="-8.58046">
        <ele>251.52</ele>
        <time>2019-06-08T10:04:49Z</time>
      </trkpt>
      <trkpt lat="42.84716" lon="-8.58045">
        <ele>251.52</ele>
        <time>2019-06-08T10:04:50Z</time>
      </trkpt>
      <trkpt lat="42.84718" lon="-8.58045">
        <ele>251.04</ele>
        <time>2019-06-08T10:04:51Z</time>
      </trkpt>
      <trkpt lat="42.84726" lon="-8.58044">
        <ele>251.04</ele>
        <time>2019-06-08T10:04:59Z</time>
      </trkpt>
      <trkpt lat="42.84727" lon="-8.58044">
        <ele>251.04</ele>
        <time>2019-06-08T10:05:00Z</time>
      </trkpt>
      <trkpt lat="42.84736" lon="-8.58045">
        <ele>251.04</ele>
        <time>2019-06-08T10:05:10Z</time>
      </trkpt>
      <trkpt lat="42.84739" lon="-8.58046">
        <ele>250.08</ele>
        <time>2019-06-08T10:05:13Z</time>
      </trkpt>
      <trkpt lat="42.84743" lon="-8.58047">
        <ele>249.6</ele>
        <time>2019-06-08T10:05:16Z</time>
      </trkpt>
      <trkpt lat="42.84744" lon="-8.58047">
        <ele>249.6</ele>
        <time>2019-06-08T10:05:17Z</time>
      </trkpt>
      <trkpt lat="42.84749" lon="-8.58045">
        <ele>249.6</ele>
        <time>2019-06-08T10:05:20Z</time>
      </trkpt>
      <trkpt lat="42.8475" lon="-8.58043">
        <ele>250.08</ele>
        <time>2019-06-08T10:05:21Z</time>
      </trkpt>
      <trkpt lat="42.84759" lon="-8.58035">
        <ele>250.08</ele>
        <time>2019-06-08T10:05:31Z</time>
      </trkpt>
      <trkpt lat="42.84761" lon="-8.58035">
        <ele>249.6</ele>
        <time>2019-06-08T10:05:32Z</time>
      </trkpt>
      <trkpt lat="42.84764" lon="-8.58034">
        <ele>250.08</ele>
        <time>2019-06-08T10:05:34Z</time>
      </trkpt>
      <trkpt lat="42.84765" lon="-8.58034">
        <ele>250.56</ele>
        <time>2019-06-08T10:05:35Z</time>
      </trkpt>
      <trkpt lat="42.84772" lon="-8.58034">
        <ele>249.6</ele>
        <time>2019-06-08T10:05:43Z</time>
      </trkpt>
      <trkpt lat="42.84782" lon="-8.58029">
        <ele>250.08</ele>
        <time>2019-06-08T10:05:55Z</time>
      </trkpt>
      <trkpt lat="42.84783" lon="-8.58029">
        <ele>250.56</ele>
        <time>2019-06-08T10:05:56Z</time>
      </trkpt>
      <trkpt lat="42.84798" lon="-8.58024">
        <ele>250.56</ele>
        <time>2019-06-08T10:06:09Z</time>
      </trkpt>
      <trkpt lat="42.84815" lon="-8.58022">
        <ele>251.04</ele>
        <time>2019-06-08T10:06:22Z</time>
      </trkpt>
      <trkpt lat="42.84817" lon="-8.58022">
        <ele>251.04</ele>
        <time>2019-06-08T10:06:23Z</time>
      </trkpt>
      <trkpt lat="42.84818" lon="-8.58021">
        <ele>251.52</ele>
        <time>2019-06-08T10:06:24Z</time>
      </trkpt>
      <trkpt lat="42.84829" lon="-8.58021">
        <ele>251.52</ele>
        <time>2019-06-08T10:06:32Z</time>
      </trkpt>
      <trkpt lat="42.84835" lon="-8.58019">
        <ele>251.52</ele>
        <time>2019-06-08T10:06:37Z</time>
      </trkpt>
      <trkpt lat="42.8484" lon="-8.58022">
        <ele>251.52</ele>
        <time>2019-06-08T10:06:41Z</time>
      </trkpt>
      <trkpt lat="42.84841" lon="-8.58023">
        <ele>251.52</ele>
        <time>2019-06-08T10:06:42Z</time>
      </trkpt>
      <trkpt lat="42.8485" lon="-8.58026">
        <ele>251.52</ele>
        <time>2019-06-08T10:06:47Z</time>
      </trkpt>
      <trkpt lat="42.84851" lon="-8.58025">
        <ele>251.52</ele>
        <time>2019-06-08T10:06:48Z</time>
      </trkpt>
      <trkpt lat="42.84852" lon="-8.58024">
        <ele>251.52</ele>
        <time>2019-06-08T10:06:49Z</time>
      </trkpt>
      <trkpt lat="42.84859" lon="-8.58017">
        <ele>252.48</ele>
        <time>2019-06-08T10:06:59Z</time>
      </trkpt>
      <trkpt lat="42.84859" lon="-8.58015">
        <ele>252</ele>
        <time>2019-06-08T10:07:00Z</time>
      </trkpt>
      <trkpt lat="42.84861" lon="-8.58007">
        <ele>252.48</ele>
        <time>2019-06-08T10:07:06Z</time>
      </trkpt>
      <trkpt lat="42.8486" lon="-8.58005">
        <ele>252.48</ele>
        <time>2019-06-08T10:07:07Z</time>
      </trkpt>
      <trkpt lat="42.84863" lon="-8.57992">
        <ele>251.52</ele>
        <time>2019-06-08T10:07:18Z</time>
      </trkpt>
      <trkpt lat="42.84864" lon="-8.57992">
        <ele>251.04</ele>
        <time>2019-06-08T10:07:19Z</time>
      </trkpt>
      <trkpt lat="42.84874" lon="-8.5798">
        <ele>249.6</ele>
        <time>2019-06-08T10:07:33Z</time>
      </trkpt>
      <trkpt lat="42.84884" lon="-8.57971">
        <ele>248.16</ele>
        <time>2019-06-08T10:07:44Z</time>
      </trkpt>
      <trkpt lat="42.84893" lon="-8.57961">
        <ele>246.23</ele>
        <time>2019-06-08T10:07:56Z</time>
      </trkpt>
      <trkpt lat="42.84895" lon="-8.5795">
        <ele>245.75</ele>
        <time>2019-06-08T10:08:02Z</time>
      </trkpt>
      <trkpt lat="42.84898" lon="-8.57942">
        <ele>245.27</ele>
        <time>2019-06-08T10:08:05Z</time>
      </trkpt>
      <trkpt lat="42.849" lon="-8.57936">
        <ele>244.31</ele>
        <time>2019-06-08T10:08:08Z</time>
      </trkpt>
      <trkpt lat="42.849" lon="-8.57934">
        <ele>244.31</ele>
        <time>2019-06-08T10:08:09Z</time>
      </trkpt>
      <trkpt lat="42.84905" lon="-8.57912">
        <ele>241.91</ele>
        <time>2019-06-08T10:08:22Z</time>
      </trkpt>
      <trkpt lat="42.84907" lon="-8.57908">
        <ele>241.43</ele>
        <time>2019-06-08T10:08:25Z</time>
      </trkpt>
      <trkpt lat="42.84912" lon="-8.57897">
        <ele>239.02</ele>
        <time>2019-06-08T10:08:32Z</time>
      </trkpt>
      <trkpt lat="42.84914" lon="-8.57894">
        <ele>239.02</ele>
        <time>2019-06-08T10:08:34Z</time>
      </trkpt>
      <trkpt lat="42.84916" lon="-8.57893">
        <ele>238.54</ele>
        <time>2019-06-08T10:08:35Z</time>
      </trkpt>
      <trkpt lat="42.84917" lon="-8.57891">
        <ele>238.06</ele>
        <time>2019-06-08T10:08:36Z</time>
      </trkpt>
      <trkpt lat="42.8492" lon="-8.57884">
        <ele>237.1</ele>
        <time>2019-06-08T10:08:42Z</time>
      </trkpt>
      <trkpt lat="42.8492" lon="-8.57882">
        <ele>237.1</ele>
        <time>2019-06-08T10:08:43Z</time>
      </trkpt>
      <trkpt lat="42.84924" lon="-8.57875">
        <ele>236.62</ele>
        <time>2019-06-08T10:08:48Z</time>
      </trkpt>
      <trkpt lat="42.84923" lon="-8.57868">
        <ele>236.14</ele>
        <time>2019-06-08T10:08:52Z</time>
      </trkpt>
      <trkpt lat="42.84923" lon="-8.57866">
        <ele>236.14</ele>
        <time>2019-06-08T10:08:53Z</time>
      </trkpt>
      <trkpt lat="42.84924" lon="-8.57857">
        <ele>236.62</ele>
        <time>2019-06-08T10:08:59Z</time>
      </trkpt>
      <trkpt lat="42.84927" lon="-8.57848">
        <ele>236.62</ele>
        <time>2019-06-08T10:09:05Z</time>
      </trkpt>
      <trkpt lat="42.8493" lon="-8.57842">
        <ele>235.66</ele>
        <time>2019-06-08T10:09:09Z</time>
      </trkpt>
      <trkpt lat="42.84929" lon="-8.57823">
        <ele>235.18</ele>
        <time>2019-06-08T10:09:22Z</time>
      </trkpt>
      <trkpt lat="42.84926" lon="-8.57819">
        <ele>234.7</ele>
        <time>2019-06-08T10:09:34Z</time>
      </trkpt>
      <trkpt lat="42.84919" lon="-8.57805">
        <ele>233.74</ele>
        <time>2019-06-08T10:09:45Z</time>
      </trkpt>
      <trkpt lat="42.84917" lon="-8.57803">
        <ele>233.26</ele>
        <time>2019-06-08T10:09:47Z</time>
      </trkpt>
      <trkpt lat="42.84917" lon="-8.57802">
        <ele>233.26</ele>
        <time>2019-06-08T10:09:48Z</time>
      </trkpt>
      <trkpt lat="42.84916" lon="-8.578">
        <ele>232.78</ele>
        <time>2019-06-08T10:09:50Z</time>
      </trkpt>
      <trkpt lat="42.84915" lon="-8.57797">
        <ele>232.78</ele>
        <time>2019-06-08T10:09:52Z</time>
      </trkpt>
      <trkpt lat="42.84913" lon="-8.57796">
        <ele>232.78</ele>
        <time>2019-06-08T10:10:05Z</time>
      </trkpt>
      <trkpt lat="42.8491" lon="-8.5779">
        <ele>231.81</ele>
        <time>2019-06-08T10:10:19Z</time>
      </trkpt>
      <trkpt lat="42.84904" lon="-8.57773">
        <ele>231.33</ele>
        <time>2019-06-08T10:10:33Z</time>
      </trkpt>
      <trkpt lat="42.84903" lon="-8.57764">
        <ele>230.85</ele>
        <time>2019-06-08T10:10:39Z</time>
      </trkpt>
      <trkpt lat="42.84898" lon="-8.57739">
        <ele>229.89</ele>
        <time>2019-06-08T10:10:52Z</time>
      </trkpt>
      <trkpt lat="42.84898" lon="-8.57732">
        <ele>230.37</ele>
        <time>2019-06-08T10:10:56Z</time>
      </trkpt>
      <trkpt lat="42.84899" lon="-8.57731">
        <ele>229.89</ele>
        <time>2019-06-08T10:10:57Z</time>
      </trkpt>
      <trkpt lat="42.84905" lon="-8.57724">
        <ele>230.37</ele>
        <time>2019-06-08T10:11:03Z</time>
      </trkpt>
      <trkpt lat="42.84906" lon="-8.57724">
        <ele>230.37</ele>
        <time>2019-06-08T10:11:04Z</time>
      </trkpt>
      <trkpt lat="42.84909" lon="-8.57721">
        <ele>230.85</ele>
        <time>2019-06-08T10:11:08Z</time>
      </trkpt>
      <trkpt lat="42.84911" lon="-8.57719">
        <ele>230.37</ele>
        <time>2019-06-08T10:11:10Z</time>
      </trkpt>
      <trkpt lat="42.84912" lon="-8.57718">
        <ele>230.85</ele>
        <time>2019-06-08T10:11:11Z</time>
      </trkpt>
      <trkpt lat="42.84914" lon="-8.57718">
        <ele>230.85</ele>
        <time>2019-06-08T10:11:12Z</time>
      </trkpt>
      <trkpt lat="42.84921" lon="-8.57707">
        <ele>230.85</ele>
        <time>2019-06-08T10:11:21Z</time>
      </trkpt>
      <trkpt lat="42.84927" lon="-8.57706">
        <ele>230.37</ele>
        <time>2019-06-08T10:11:29Z</time>
      </trkpt>
      <trkpt lat="42.84943" lon="-8.57695">
        <ele>230.37</ele>
        <time>2019-06-08T10:11:44Z</time>
      </trkpt>
      <trkpt lat="42.84958" lon="-8.57695">
        <ele>230.37</ele>
        <time>2019-06-08T10:11:56Z</time>
      </trkpt>
      <trkpt lat="42.84959" lon="-8.57695">
        <ele>230.37</ele>
        <time>2019-06-08T10:11:57Z</time>
      </trkpt>
      <trkpt lat="42.84973" lon="-8.57697">
        <ele>229.41</ele>
        <time>2019-06-08T10:12:09Z</time>
      </trkpt>
      <trkpt lat="42.84986" lon="-8.57698">
        <ele>228.45</ele>
        <time>2019-06-08T10:12:19Z</time>
      </trkpt>
      <trkpt lat="42.84987" lon="-8.57698">
        <ele>228.45</ele>
        <time>2019-06-08T10:12:20Z</time>
      </trkpt>
      <trkpt lat="42.84989" lon="-8.57697">
        <ele>228.45</ele>
        <time>2019-06-08T10:12:21Z</time>
      </trkpt>
      <trkpt lat="42.8499" lon="-8.57697">
        <ele>228.45</ele>
        <time>2019-06-08T10:12:22Z</time>
      </trkpt>
      <trkpt lat="42.84997" lon="-8.57696">
        <ele>227.49</ele>
        <time>2019-06-08T10:12:34Z</time>
      </trkpt>
      <trkpt lat="42.85015" lon="-8.57702">
        <ele>227.01</ele>
        <time>2019-06-08T10:12:49Z</time>
      </trkpt>
      <trkpt lat="42.85035" lon="-8.57707">
        <ele>227.01</ele>
        <time>2019-06-08T10:13:04Z</time>
      </trkpt>
      <trkpt lat="42.85055" lon="-8.57712">
        <ele>227.01</ele>
        <time>2019-06-08T10:13:20Z</time>
      </trkpt>
      <trkpt lat="42.85073" lon="-8.57719">
        <ele>226.53</ele>
        <time>2019-06-08T10:13:35Z</time>
      </trkpt>
      <trkpt lat="42.85088" lon="-8.57725">
        <ele>225.09</ele>
        <time>2019-06-08T10:13:48Z</time>
      </trkpt>
      <trkpt lat="42.85105" lon="-8.57724">
        <ele>224.12</ele>
        <time>2019-06-08T10:14:02Z</time>
      </trkpt>
      <trkpt lat="42.85123" lon="-8.57709">
        <ele>225.09</ele>
        <time>2019-06-08T10:14:18Z</time>
      </trkpt>
      <trkpt lat="42.85128" lon="-8.57701">
        <ele>225.57</ele>
        <time>2019-06-08T10:14:24Z</time>
      </trkpt>
      <trkpt lat="42.85129" lon="-8.577">
        <ele>225.57</ele>
        <time>2019-06-08T10:14:25Z</time>
      </trkpt>
      <trkpt lat="42.85132" lon="-8.57698">
        <ele>225.57</ele>
        <time>2019-06-08T10:14:28Z</time>
      </trkpt>
      <trkpt lat="42.85132" lon="-8.57696">
        <ele>226.05</ele>
        <time>2019-06-08T10:14:29Z</time>
      </trkpt>
      <trkpt lat="42.85136" lon="-8.57692">
        <ele>226.05</ele>
        <time>2019-06-08T10:14:33Z</time>
      </trkpt>
      <trkpt lat="42.85141" lon="-8.57682">
        <ele>226.53</ele>
        <time>2019-06-08T10:14:40Z</time>
      </trkpt>
      <trkpt lat="42.85145" lon="-8.57677">
        <ele>226.53</ele>
        <time>2019-06-08T10:14:44Z</time>
      </trkpt>
      <trkpt lat="42.85146" lon="-8.57677">
        <ele>226.05</ele>
        <time>2019-06-08T10:14:45Z</time>
      </trkpt>
      <trkpt lat="42.85147" lon="-8.57676">
        <ele>226.53</ele>
        <time>2019-06-08T10:14:46Z</time>
      </trkpt>
      <trkpt lat="42.85148" lon="-8.57675">
        <ele>226.05</ele>
        <time>2019-06-08T10:14:47Z</time>
      </trkpt>
      <trkpt lat="42.85149" lon="-8.57674">
        <ele>226.53</ele>
        <time>2019-06-08T10:14:48Z</time>
      </trkpt>
      <trkpt lat="42.8515" lon="-8.57673">
        <ele>226.53</ele>
        <time>2019-06-08T10:14:49Z</time>
      </trkpt>
      <trkpt lat="42.85151" lon="-8.5767">
        <ele>226.05</ele>
        <time>2019-06-08T10:14:51Z</time>
      </trkpt>
      <trkpt lat="42.85151" lon="-8.57669">
        <ele>226.53</ele>
        <time>2019-06-08T10:14:52Z</time>
      </trkpt>
      <trkpt lat="42.85164" lon="-8.57651">
        <ele>226.53</ele>
        <time>2019-06-08T10:15:06Z</time>
      </trkpt>
      <trkpt lat="42.85172" lon="-8.57639">
        <ele>227.01</ele>
        <time>2019-06-08T10:15:15Z</time>
      </trkpt>
      <trkpt lat="42.85173" lon="-8.57638">
        <ele>226.53</ele>
        <time>2019-06-08T10:15:16Z</time>
      </trkpt>
      <trkpt lat="42.85174" lon="-8.57637">
        <ele>227.01</ele>
        <time>2019-06-08T10:15:17Z</time>
      </trkpt>
      <trkpt lat="42.8518" lon="-8.57628">
        <ele>227.01</ele>
        <time>2019-06-08T10:15:25Z</time>
      </trkpt>
      <trkpt lat="42.85181" lon="-8.57627">
        <ele>227.01</ele>
        <time>2019-06-08T10:15:26Z</time>
      </trkpt>
      <trkpt lat="42.85186" lon="-8.57619">
        <ele>227.49</ele>
        <time>2019-06-08T10:15:34Z</time>
      </trkpt>
      <trkpt lat="42.85187" lon="-8.57618">
        <ele>227.01</ele>
        <time>2019-06-08T10:15:35Z</time>
      </trkpt>
      <trkpt lat="42.85188" lon="-8.57616">
        <ele>227.97</ele>
        <time>2019-06-08T10:15:37Z</time>
      </trkpt>
      <trkpt lat="42.8519" lon="-8.57615">
        <ele>227.97</ele>
        <time>2019-06-08T10:15:38Z</time>
      </trkpt>
      <trkpt lat="42.85191" lon="-8.57613">
        <ele>227.49</ele>
        <time>2019-06-08T10:15:39Z</time>
      </trkpt>
      <trkpt lat="42.85192" lon="-8.57612">
        <ele>227.97</ele>
        <time>2019-06-08T10:15:40Z</time>
      </trkpt>
      <trkpt lat="42.85192" lon="-8.5761">
        <ele>227.49</ele>
        <time>2019-06-08T10:15:41Z</time>
      </trkpt>
      <trkpt lat="42.85193" lon="-8.57609">
        <ele>227.49</ele>
        <time>2019-06-08T10:15:42Z</time>
      </trkpt>
      <trkpt lat="42.85195" lon="-8.57604">
        <ele>227.49</ele>
        <time>2019-06-08T10:15:45Z</time>
      </trkpt>
      <trkpt lat="42.85198" lon="-8.57592">
        <ele>227.97</ele>
        <time>2019-06-08T10:15:53Z</time>
      </trkpt>
      <trkpt lat="42.85201" lon="-8.57589">
        <ele>227.49</ele>
        <time>2019-06-08T10:15:56Z</time>
      </trkpt>
      <trkpt lat="42.85202" lon="-8.57588">
        <ele>227.49</ele>
        <time>2019-06-08T10:15:57Z</time>
      </trkpt>
      <trkpt lat="42.85203" lon="-8.57587">
        <ele>227.97</ele>
        <time>2019-06-08T10:15:58Z</time>
      </trkpt>
      <trkpt lat="42.85204" lon="-8.57586">
        <ele>227.49</ele>
        <time>2019-06-08T10:15:59Z</time>
      </trkpt>
      <trkpt lat="42.85205" lon="-8.57585">
        <ele>227.97</ele>
        <time>2019-06-08T10:16:00Z</time>
      </trkpt>
      <trkpt lat="42.85218" lon="-8.57573">
        <ele>227.97</ele>
        <time>2019-06-08T10:16:15Z</time>
      </trkpt>
      <trkpt lat="42.85221" lon="-8.57569">
        <ele>227.97</ele>
        <time>2019-06-08T10:16:28Z</time>
      </trkpt>
      <trkpt lat="42.85231" lon="-8.5756">
        <ele>227.97</ele>
        <time>2019-06-08T10:16:38Z</time>
      </trkpt>
      <trkpt lat="42.85231" lon="-8.57558">
        <ele>227.97</ele>
        <time>2019-06-08T10:16:39Z</time>
      </trkpt>
      <trkpt lat="42.85236" lon="-8.57553">
        <ele>228.45</ele>
        <time>2019-06-08T10:16:44Z</time>
      </trkpt>
      <trkpt lat="42.85237" lon="-8.57551">
        <ele>227.49</ele>
        <time>2019-06-08T10:16:45Z</time>
      </trkpt>
      <trkpt lat="42.8524" lon="-8.57538">
        <ele>226.53</ele>
        <time>2019-06-08T10:16:53Z</time>
      </trkpt>
      <trkpt lat="42.85241" lon="-8.57537">
        <ele>227.49</ele>
        <time>2019-06-08T10:16:54Z</time>
      </trkpt>
      <trkpt lat="42.85242" lon="-8.57535">
        <ele>227.01</ele>
        <time>2019-06-08T10:16:55Z</time>
      </trkpt>
      <trkpt lat="42.85243" lon="-8.57534">
        <ele>226.53</ele>
        <time>2019-06-08T10:16:56Z</time>
      </trkpt>
      <trkpt lat="42.85244" lon="-8.57533">
        <ele>227.01</ele>
        <time>2019-06-08T10:16:57Z</time>
      </trkpt>
      <trkpt lat="42.85244" lon="-8.57532">
        <ele>226.53</ele>
        <time>2019-06-08T10:16:58Z</time>
      </trkpt>
      <trkpt lat="42.85245" lon="-8.57531">
        <ele>226.53</ele>
        <time>2019-06-08T10:16:59Z</time>
      </trkpt>
      <trkpt lat="42.85247" lon="-8.57529">
        <ele>227.01</ele>
        <time>2019-06-08T10:17:01Z</time>
      </trkpt>
      <trkpt lat="42.85248" lon="-8.57528">
        <ele>227.49</ele>
        <time>2019-06-08T10:17:02Z</time>
      </trkpt>
      <trkpt lat="42.85249" lon="-8.57528">
        <ele>227.01</ele>
        <time>2019-06-08T10:17:03Z</time>
      </trkpt>
      <trkpt lat="42.8525" lon="-8.57527">
        <ele>226.53</ele>
        <time>2019-06-08T10:17:04Z</time>
      </trkpt>
      <trkpt lat="42.85259" lon="-8.57518">
        <ele>226.53</ele>
        <time>2019-06-08T10:17:16Z</time>
      </trkpt>
      <trkpt lat="42.85268" lon="-8.57508">
        <ele>225.57</ele>
        <time>2019-06-08T10:17:26Z</time>
      </trkpt>
      <trkpt lat="42.85279" lon="-8.57486">
        <ele>226.05</ele>
        <time>2019-06-08T10:17:41Z</time>
      </trkpt>
      <trkpt lat="42.85289" lon="-8.57461">
        <ele>225.09</ele>
        <time>2019-06-08T10:17:57Z</time>
      </trkpt>
      <trkpt lat="42.85292" lon="-8.57453">
        <ele>224.12</ele>
        <time>2019-06-08T10:18:03Z</time>
      </trkpt>
      <trkpt lat="42.85294" lon="-8.5744">
        <ele>224.12</ele>
        <time>2019-06-08T10:18:15Z</time>
      </trkpt>
      <trkpt lat="42.85294" lon="-8.57438">
        <ele>223.64</ele>
        <time>2019-06-08T10:18:17Z</time>
      </trkpt>
      <trkpt lat="42.85293" lon="-8.57421">
        <ele>222.2</ele>
        <time>2019-06-08T10:18:26Z</time>
      </trkpt>
      <trkpt lat="42.85294" lon="-8.5742">
        <ele>222.2</ele>
        <time>2019-06-08T10:18:27Z</time>
      </trkpt>
      <trkpt lat="42.85295" lon="-8.57415">
        <ele>221.72</ele>
        <time>2019-06-08T10:18:31Z</time>
      </trkpt>
      <trkpt lat="42.85298" lon="-8.57413">
        <ele>221.72</ele>
        <time>2019-06-08T10:18:34Z</time>
      </trkpt>
      <trkpt lat="42.85299" lon="-8.57413">
        <ele>221.72</ele>
        <time>2019-06-08T10:18:35Z</time>
      </trkpt>
      <trkpt lat="42.85301" lon="-8.57412">
        <ele>221.72</ele>
        <time>2019-06-08T10:18:36Z</time>
      </trkpt>
      <trkpt lat="42.85316" lon="-8.57413">
        <ele>221.24</ele>
        <time>2019-06-08T10:18:48Z</time>
      </trkpt>
      <trkpt lat="42.85328" lon="-8.57416">
        <ele>220.28</ele>
        <time>2019-06-08T10:19:02Z</time>
      </trkpt>
      <trkpt lat="42.85335" lon="-8.57417">
        <ele>219.32</ele>
        <time>2019-06-08T10:19:14Z</time>
      </trkpt>
      <trkpt lat="42.85344" lon="-8.57417">
        <ele>217.88</ele>
        <time>2019-06-08T10:19:25Z</time>
      </trkpt>
      <trkpt lat="42.85349" lon="-8.57416">
        <ele>217.4</ele>
        <time>2019-06-08T10:19:33Z</time>
      </trkpt>
      <trkpt lat="42.8535" lon="-8.57416">
        <ele>217.4</ele>
        <time>2019-06-08T10:19:34Z</time>
      </trkpt>
      <trkpt lat="42.85351" lon="-8.57416">
        <ele>217.4</ele>
        <time>2019-06-08T10:19:35Z</time>
      </trkpt>
      <trkpt lat="42.85352" lon="-8.57416">
        <ele>217.4</ele>
        <time>2019-06-08T10:19:36Z</time>
      </trkpt>
      <trkpt lat="42.85353" lon="-8.57416">
        <ele>217.4</ele>
        <time>2019-06-08T10:19:37Z</time>
      </trkpt>
      <trkpt lat="42.85369" lon="-8.57416">
        <ele>216.43</ele>
        <time>2019-06-08T10:19:50Z</time>
      </trkpt>
      <trkpt lat="42.8537" lon="-8.57416">
        <ele>216.43</ele>
        <time>2019-06-08T10:19:51Z</time>
      </trkpt>
      <trkpt lat="42.85371" lon="-8.57416">
        <ele>216.43</ele>
        <time>2019-06-08T10:19:52Z</time>
      </trkpt>
      <trkpt lat="42.85373" lon="-8.57416">
        <ele>215.95</ele>
        <time>2019-06-08T10:19:53Z</time>
      </trkpt>
      <trkpt lat="42.85374" lon="-8.57415">
        <ele>215.95</ele>
        <time>2019-06-08T10:19:54Z</time>
      </trkpt>
      <trkpt lat="42.85375" lon="-8.57415">
        <ele>216.43</ele>
        <time>2019-06-08T10:19:55Z</time>
      </trkpt>
      <trkpt lat="42.85376" lon="-8.57415">
        <ele>216.43</ele>
        <time>2019-06-08T10:19:56Z</time>
      </trkpt>
      <trkpt lat="42.85393" lon="-8.57416">
        <ele>215.95</ele>
        <time>2019-06-08T10:20:10Z</time>
      </trkpt>
      <trkpt lat="42.85395" lon="-8.57415">
        <ele>215.95</ele>
        <time>2019-06-08T10:20:13Z</time>
      </trkpt>
      <trkpt lat="42.85412" lon="-8.57408">
        <ele>213.55</ele>
        <time>2019-06-08T10:20:26Z</time>
      </trkpt>
      <trkpt lat="42.8542" lon="-8.57399">
        <ele>213.55</ele>
        <time>2019-06-08T10:20:36Z</time>
      </trkpt>
      <trkpt lat="42.85417" lon="-8.57387">
        <ele>213.07</ele>
        <time>2019-06-08T10:20:47Z</time>
      </trkpt>
      <trkpt lat="42.85406" lon="-8.57371">
        <ele>212.11</ele>
        <time>2019-06-08T10:21:02Z</time>
      </trkpt>
      <trkpt lat="42.85385" lon="-8.57364">
        <ele>210.19</ele>
        <time>2019-06-08T10:21:17Z</time>
      </trkpt>
      <trkpt lat="42.85378" lon="-8.57361">
        <ele>209.7</ele>
        <time>2019-06-08T10:21:29Z</time>
      </trkpt>
      <trkpt lat="42.85362" lon="-8.57354">
        <ele>209.22</ele>
        <time>2019-06-08T10:21:42Z</time>
      </trkpt>
      <trkpt lat="42.85354" lon="-8.57349">
        <ele>208.26</ele>
        <time>2019-06-08T10:21:50Z</time>
      </trkpt>
      <trkpt lat="42.8535" lon="-8.57348">
        <ele>207.78</ele>
        <time>2019-06-08T10:21:52Z</time>
      </trkpt>
      <trkpt lat="42.85349" lon="-8.57347">
        <ele>208.74</ele>
        <time>2019-06-08T10:21:53Z</time>
      </trkpt>
      <trkpt lat="42.85347" lon="-8.57346">
        <ele>207.3</ele>
        <time>2019-06-08T10:21:54Z</time>
      </trkpt>
      <trkpt lat="42.85325" lon="-8.57333">
        <ele>205.38</ele>
        <time>2019-06-08T10:22:11Z</time>
      </trkpt>
      <trkpt lat="42.8532" lon="-8.57316">
        <ele>204.9</ele>
        <time>2019-06-08T10:22:23Z</time>
      </trkpt>
      <trkpt lat="42.8532" lon="-8.57315">
        <ele>205.38</ele>
        <time>2019-06-08T10:22:24Z</time>
      </trkpt>
      <trkpt lat="42.8532" lon="-8.57313">
        <ele>205.38</ele>
        <time>2019-06-08T10:22:25Z</time>
      </trkpt>
      <trkpt lat="42.85321" lon="-8.57312">
        <ele>204.9</ele>
        <time>2019-06-08T10:22:26Z</time>
      </trkpt>
      <trkpt lat="42.85321" lon="-8.57311">
        <ele>204.9</ele>
        <time>2019-06-08T10:22:27Z</time>
      </trkpt>
      <trkpt lat="42.85322" lon="-8.57309">
        <ele>204.9</ele>
        <time>2019-06-08T10:22:28Z</time>
      </trkpt>
      <trkpt lat="42.85327" lon="-8.57295">
        <ele>204.9</ele>
        <time>2019-06-08T10:22:39Z</time>
      </trkpt>
      <trkpt lat="42.85326" lon="-8.57293">
        <ele>205.86</ele>
        <time>2019-06-08T10:22:42Z</time>
      </trkpt>
      <trkpt lat="42.85325" lon="-8.57296">
        <ele>204.42</ele>
        <time>2019-06-08T10:22:58Z</time>
      </trkpt>
      <trkpt lat="42.85327" lon="-8.57298">
        <ele>204.9</ele>
        <time>2019-06-08T10:23:07Z</time>
      </trkpt>
      <trkpt lat="42.85341" lon="-8.57289">
        <ele>204.9</ele>
        <time>2019-06-08T10:23:18Z</time>
      </trkpt>
      <trkpt lat="42.85343" lon="-8.57288">
        <ele>204.42</ele>
        <time>2019-06-08T10:23:19Z</time>
      </trkpt>
      <trkpt lat="42.85344" lon="-8.57288">
        <ele>204.9</ele>
        <time>2019-06-08T10:23:20Z</time>
      </trkpt>
      <trkpt lat="42.85345" lon="-8.57288">
        <ele>204.42</ele>
        <time>2019-06-08T10:23:21Z</time>
      </trkpt>
      <trkpt lat="42.85346" lon="-8.57287">
        <ele>204.42</ele>
        <time>2019-06-08T10:23:22Z</time>
      </trkpt>
      <trkpt lat="42.85365" lon="-8.57283">
        <ele>204.42</ele>
        <time>2019-06-08T10:23:37Z</time>
      </trkpt>
      <trkpt lat="42.85378" lon="-8.57282">
        <ele>204.9</ele>
        <time>2019-06-08T10:23:51Z</time>
      </trkpt>
      <trkpt lat="42.85379" lon="-8.57282">
        <ele>204.9</ele>
        <time>2019-06-08T10:23:52Z</time>
      </trkpt>
      <trkpt lat="42.8538" lon="-8.57283">
        <ele>204.9</ele>
        <time>2019-06-08T10:23:53Z</time>
      </trkpt>
      <trkpt lat="42.85382" lon="-8.57284">
        <ele>204.9</ele>
        <time>2019-06-08T10:23:54Z</time>
      </trkpt>
      <trkpt lat="42.85399" lon="-8.57295">
        <ele>203.94</ele>
        <time>2019-06-08T10:24:07Z</time>
      </trkpt>
      <trkpt lat="42.85407" lon="-8.573">
        <ele>203.46</ele>
        <time>2019-06-08T10:24:15Z</time>
      </trkpt>
      <trkpt lat="42.85408" lon="-8.57301">
        <ele>203.94</ele>
        <time>2019-06-08T10:24:16Z</time>
      </trkpt>
      <trkpt lat="42.85428" lon="-8.57305">
        <ele>202.98</ele>
        <time>2019-06-08T10:24:31Z</time>
      </trkpt>
      <trkpt lat="42.85448" lon="-8.57298">
        <ele>202.01</ele>
        <time>2019-06-08T10:24:47Z</time>
      </trkpt>
      <trkpt lat="42.8547" lon="-8.57294">
        <ele>202.01</ele>
        <time>2019-06-08T10:25:05Z</time>
      </trkpt>
      <trkpt lat="42.85485" lon="-8.57289">
        <ele>202.01</ele>
        <time>2019-06-08T10:25:18Z</time>
      </trkpt>
      <trkpt lat="42.85507" lon="-8.57286">
        <ele>201.05</ele>
        <time>2019-06-08T10:25:35Z</time>
      </trkpt>
      <trkpt lat="42.85525" lon="-8.5728">
        <ele>200.09</ele>
        <time>2019-06-08T10:25:49Z</time>
      </trkpt>
      <trkpt lat="42.85546" lon="-8.57276">
        <ele>199.61</ele>
        <time>2019-06-08T10:26:05Z</time>
      </trkpt>
      <trkpt lat="42.85566" lon="-8.57271">
        <ele>198.65</ele>
        <time>2019-06-08T10:26:21Z</time>
      </trkpt>
      <trkpt lat="42.85584" lon="-8.57273">
        <ele>198.65</ele>
        <time>2019-06-08T10:26:37Z</time>
      </trkpt>
      <trkpt lat="42.85599" lon="-8.57288">
        <ele>199.13</ele>
        <time>2019-06-08T10:26:53Z</time>
      </trkpt>
      <trkpt lat="42.85614" lon="-8.57302">
        <ele>200.09</ele>
        <time>2019-06-08T10:27:09Z</time>
      </trkpt>
      <trkpt lat="42.85629" lon="-8.57323">
        <ele>200.09</ele>
        <time>2019-06-08T10:27:25Z</time>
      </trkpt>
      <trkpt lat="42.85635" lon="-8.5734">
        <ele>201.53</ele>
        <time>2019-06-08T10:27:40Z</time>
      </trkpt>
      <trkpt lat="42.85641" lon="-8.57359">
        <ele>202.98</ele>
        <time>2019-06-08T10:27:55Z</time>
      </trkpt>
      <trkpt lat="42.85641" lon="-8.57383">
        <ele>204.9</ele>
        <time>2019-06-08T10:28:13Z</time>
      </trkpt>
      <trkpt lat="42.85641" lon="-8.57392">
        <ele>205.38</ele>
        <time>2019-06-08T10:28:21Z</time>
      </trkpt>
      <trkpt lat="42.85641" lon="-8.57404">
        <ele>206.34</ele>
        <time>2019-06-08T10:28:31Z</time>
      </trkpt>
      <trkpt lat="42.85642" lon="-8.57425">
        <ele>209.7</ele>
        <time>2019-06-08T10:28:48Z</time>
      </trkpt>
      <trkpt lat="42.85646" lon="-8.57446">
        <ele>211.15</ele>
        <time>2019-06-08T10:29:05Z</time>
      </trkpt>
      <trkpt lat="42.85646" lon="-8.57468">
        <ele>213.07</ele>
        <time>2019-06-08T10:29:23Z</time>
      </trkpt>
      <trkpt lat="42.8565" lon="-8.5749">
        <ele>215.95</ele>
        <time>2019-06-08T10:29:40Z</time>
      </trkpt>
      <trkpt lat="42.85652" lon="-8.57494">
        <ele>216.91</ele>
        <time>2019-06-08T10:29:43Z</time>
      </trkpt>
      <trkpt lat="42.8566" lon="-8.57509">
        <ele>218.36</ele>
        <time>2019-06-08T10:29:56Z</time>
      </trkpt>
      <trkpt lat="42.85661" lon="-8.5751">
        <ele>218.36</ele>
        <time>2019-06-08T10:29:57Z</time>
      </trkpt>
      <trkpt lat="42.85661" lon="-8.57512">
        <ele>217.88</ele>
        <time>2019-06-08T10:29:58Z</time>
      </trkpt>
      <trkpt lat="42.85672" lon="-8.57527">
        <ele>219.32</ele>
        <time>2019-06-08T10:30:14Z</time>
      </trkpt>
      <trkpt lat="42.85675" lon="-8.5753">
        <ele>219.32</ele>
        <time>2019-06-08T10:30:31Z</time>
      </trkpt>
      <trkpt lat="42.8568" lon="-8.57533">
        <ele>219.32</ele>
        <time>2019-06-08T10:30:36Z</time>
      </trkpt>
      <trkpt lat="42.85681" lon="-8.57534">
        <ele>218.84</ele>
        <time>2019-06-08T10:30:37Z</time>
      </trkpt>
      <trkpt lat="42.85683" lon="-8.57534">
        <ele>218.36</ele>
        <time>2019-06-08T10:30:38Z</time>
      </trkpt>
      <trkpt lat="42.85697" lon="-8.57539">
        <ele>218.36</ele>
        <time>2019-06-08T10:30:55Z</time>
      </trkpt>
      <trkpt lat="42.85715" lon="-8.57547">
        <ele>216.43</ele>
        <time>2019-06-08T10:31:10Z</time>
      </trkpt>
      <trkpt lat="42.8573" lon="-8.57559">
        <ele>215.95</ele>
        <time>2019-06-08T10:31:25Z</time>
      </trkpt>
      <trkpt lat="42.85747" lon="-8.57571">
        <ele>215.47</ele>
        <time>2019-06-08T10:31:42Z</time>
      </trkpt>
      <trkpt lat="42.85753" lon="-8.57578">
        <ele>214.99</ele>
        <time>2019-06-08T10:31:50Z</time>
      </trkpt>
      <trkpt lat="42.85758" lon="-8.57581">
        <ele>214.99</ele>
        <time>2019-06-08T10:31:54Z</time>
      </trkpt>
      <trkpt lat="42.8576" lon="-8.57581">
        <ele>214.51</ele>
        <time>2019-06-08T10:31:55Z</time>
      </trkpt>
      <trkpt lat="42.85761" lon="-8.57582">
        <ele>214.51</ele>
        <time>2019-06-08T10:31:56Z</time>
      </trkpt>
      <trkpt lat="42.85771" lon="-8.57591">
        <ele>214.03</ele>
        <time>2019-06-08T10:32:09Z</time>
      </trkpt>
      <trkpt lat="42.8578" lon="-8.57601">
        <ele>214.03</ele>
        <time>2019-06-08T10:32:17Z</time>
      </trkpt>
      <trkpt lat="42.85791" lon="-8.57613">
        <ele>213.55</ele>
        <time>2019-06-08T10:32:28Z</time>
      </trkpt>
      <trkpt lat="42.85803" lon="-8.5763">
        <ele>212.59</ele>
        <time>2019-06-08T10:32:39Z</time>
      </trkpt>
      <trkpt lat="42.85804" lon="-8.57631">
        <ele>212.11</ele>
        <time>2019-06-08T10:32:40Z</time>
      </trkpt>
      <trkpt lat="42.85817" lon="-8.57638">
        <ele>211.15</ele>
        <time>2019-06-08T10:32:53Z</time>
      </trkpt>
      <trkpt lat="42.85831" lon="-8.57654">
        <ele>210.19</ele>
        <time>2019-06-08T10:33:08Z</time>
      </trkpt>
      <trkpt lat="42.85849" lon="-8.57672">
        <ele>210.19</ele>
        <time>2019-06-08T10:33:25Z</time>
      </trkpt>
      <trkpt lat="42.85866" lon="-8.57694">
        <ele>209.22</ele>
        <time>2019-06-08T10:33:44Z</time>
      </trkpt>
      <trkpt lat="42.85883" lon="-8.57707">
        <ele>209.22</ele>
        <time>2019-06-08T10:33:58Z</time>
      </trkpt>
      <trkpt lat="42.85897" lon="-8.57715">
        <ele>208.26</ele>
        <time>2019-06-08T10:34:11Z</time>
      </trkpt>
      <trkpt lat="42.85916" lon="-8.57709">
        <ele>207.78</ele>
        <time>2019-06-08T10:34:28Z</time>
      </trkpt>
      <trkpt lat="42.85924" lon="-8.57704">
        <ele>207.78</ele>
        <time>2019-06-08T10:34:41Z</time>
      </trkpt>
      <trkpt lat="42.85932" lon="-8.57696">
        <ele>206.82</ele>
        <time>2019-06-08T10:34:52Z</time>
      </trkpt>
      <trkpt lat="42.85939" lon="-8.57688">
        <ele>206.34</ele>
        <time>2019-06-08T10:34:58Z</time>
      </trkpt>
      <trkpt lat="42.8594" lon="-8.57687">
        <ele>206.34</ele>
        <time>2019-06-08T10:34:59Z</time>
      </trkpt>
      <trkpt lat="42.85951" lon="-8.5768">
        <ele>206.34</ele>
        <time>2019-06-08T10:35:09Z</time>
      </trkpt>
      <trkpt lat="42.85952" lon="-8.57679">
        <ele>206.34</ele>
        <time>2019-06-08T10:35:10Z</time>
      </trkpt>
      <trkpt lat="42.85965" lon="-8.57671">
        <ele>206.34</ele>
        <time>2019-06-08T10:35:26Z</time>
      </trkpt>
      <trkpt lat="42.85982" lon="-8.57662">
        <ele>206.34</ele>
        <time>2019-06-08T10:35:41Z</time>
      </trkpt>
      <trkpt lat="42.85983" lon="-8.57663">
        <ele>205.86</ele>
        <time>2019-06-08T10:35:42Z</time>
      </trkpt>
      <trkpt lat="42.85998" lon="-8.57675">
        <ele>207.78</ele>
        <time>2019-06-08T10:35:57Z</time>
      </trkpt>
      <trkpt lat="42.86007" lon="-8.57686">
        <ele>208.74</ele>
        <time>2019-06-08T10:36:10Z</time>
      </trkpt>
      <trkpt lat="42.86014" lon="-8.57692">
        <ele>209.7</ele>
        <time>2019-06-08T10:36:18Z</time>
      </trkpt>
      <trkpt lat="42.86016" lon="-8.57694">
        <ele>210.19</ele>
        <time>2019-06-08T10:36:21Z</time>
      </trkpt>
      <trkpt lat="42.86017" lon="-8.57695">
        <ele>210.67</ele>
        <time>2019-06-08T10:36:22Z</time>
      </trkpt>
      <trkpt lat="42.86018" lon="-8.57695">
        <ele>210.67</ele>
        <time>2019-06-08T10:36:23Z</time>
      </trkpt>
      <trkpt lat="42.86019" lon="-8.57696">
        <ele>210.67</ele>
        <time>2019-06-08T10:36:24Z</time>
      </trkpt>
      <trkpt lat="42.86021" lon="-8.57697">
        <ele>210.67</ele>
        <time>2019-06-08T10:36:25Z</time>
      </trkpt>
      <trkpt lat="42.86031" lon="-8.57701">
        <ele>211.15</ele>
        <time>2019-06-08T10:36:35Z</time>
      </trkpt>
      <trkpt lat="42.86032" lon="-8.57702">
        <ele>211.15</ele>
        <time>2019-06-08T10:36:36Z</time>
      </trkpt>
      <trkpt lat="42.86034" lon="-8.57702">
        <ele>211.15</ele>
        <time>2019-06-08T10:36:37Z</time>
      </trkpt>
      <trkpt lat="42.86055" lon="-8.57702">
        <ele>210.67</ele>
        <time>2019-06-08T10:36:53Z</time>
      </trkpt>
      <trkpt lat="42.86075" lon="-8.57709">
        <ele>210.67</ele>
        <time>2019-06-08T10:37:09Z</time>
      </trkpt>
      <trkpt lat="42.86089" lon="-8.57711">
        <ele>210.19</ele>
        <time>2019-06-08T10:37:20Z</time>
      </trkpt>
      <trkpt lat="42.8609" lon="-8.57711">
        <ele>210.67</ele>
        <time>2019-06-08T10:37:21Z</time>
      </trkpt>
      <trkpt lat="42.86091" lon="-8.57712">
        <ele>210.19</ele>
        <time>2019-06-08T10:37:22Z</time>
      </trkpt>
      <trkpt lat="42.86105" lon="-8.57713">
        <ele>211.63</ele>
        <time>2019-06-08T10:37:36Z</time>
      </trkpt>
      <trkpt lat="42.86123" lon="-8.57711">
        <ele>213.07</ele>
        <time>2019-06-08T10:37:52Z</time>
      </trkpt>
      <trkpt lat="42.86135" lon="-8.57705">
        <ele>214.51</ele>
        <time>2019-06-08T10:38:06Z</time>
      </trkpt>
      <trkpt lat="42.86136" lon="-8.57704">
        <ele>215.47</ele>
        <time>2019-06-08T10:38:07Z</time>
      </trkpt>
      <trkpt lat="42.86153" lon="-8.57686">
        <ele>215.47</ele>
        <time>2019-06-08T10:38:22Z</time>
      </trkpt>
      <trkpt lat="42.86157" lon="-8.57681">
        <ele>215.47</ele>
        <time>2019-06-08T10:38:37Z</time>
      </trkpt>
      <trkpt lat="42.8616" lon="-8.57678">
        <ele>214.99</ele>
        <time>2019-06-08T10:39:01Z</time>
      </trkpt>
      <trkpt lat="42.86174" lon="-8.57662">
        <ele>214.03</ele>
        <time>2019-06-08T10:39:17Z</time>
      </trkpt>
      <trkpt lat="42.86185" lon="-8.57648">
        <ele>213.55</ele>
        <time>2019-06-08T10:39:30Z</time>
      </trkpt>
      <trkpt lat="42.86191" lon="-8.57635">
        <ele>212.59</ele>
        <time>2019-06-08T10:39:39Z</time>
      </trkpt>
      <trkpt lat="42.86191" lon="-8.57633">
        <ele>212.59</ele>
        <time>2019-06-08T10:39:40Z</time>
      </trkpt>
      <trkpt lat="42.86198" lon="-8.57625">
        <ele>212.11</ele>
        <time>2019-06-08T10:39:47Z</time>
      </trkpt>
      <trkpt lat="42.86199" lon="-8.57624">
        <ele>212.11</ele>
        <time>2019-06-08T10:39:48Z</time>
      </trkpt>
      <trkpt lat="42.86199" lon="-8.57623">
        <ele>212.59</ele>
        <time>2019-06-08T10:39:49Z</time>
      </trkpt>
      <trkpt lat="42.862" lon="-8.57622">
        <ele>213.07</ele>
        <time>2019-06-08T10:39:50Z</time>
      </trkpt>
      <trkpt lat="42.86201" lon="-8.57621">
        <ele>212.11</ele>
        <time>2019-06-08T10:39:51Z</time>
      </trkpt>
      <trkpt lat="42.86202" lon="-8.5762">
        <ele>212.59</ele>
        <time>2019-06-08T10:39:52Z</time>
      </trkpt>
      <trkpt lat="42.86219" lon="-8.57602">
        <ele>209.7</ele>
        <time>2019-06-08T10:40:08Z</time>
      </trkpt>
      <trkpt lat="42.8624" lon="-8.57589">
        <ele>208.26</ele>
        <time>2019-06-08T10:40:26Z</time>
      </trkpt>
      <trkpt lat="42.86261" lon="-8.57583">
        <ele>207.78</ele>
        <time>2019-06-08T10:40:43Z</time>
      </trkpt>
      <trkpt lat="42.86277" lon="-8.57582">
        <ele>206.82</ele>
        <time>2019-06-08T10:40:57Z</time>
      </trkpt>
      <trkpt lat="42.86296" lon="-8.57583">
        <ele>205.86</ele>
        <time>2019-06-08T10:41:11Z</time>
      </trkpt>
      <trkpt lat="42.86297" lon="-8.5758">
        <ele>205.86</ele>
        <time>2019-06-08T10:41:13Z</time>
      </trkpt>
      <trkpt lat="42.86298" lon="-8.57579">
        <ele>205.38</ele>
        <time>2019-06-08T10:41:14Z</time>
      </trkpt>
      <trkpt lat="42.86302" lon="-8.57552">
        <ele>202.98</ele>
        <time>2019-06-08T10:41:29Z</time>
      </trkpt>
      <trkpt lat="42.86302" lon="-8.57551">
        <ele>202.49</ele>
        <time>2019-06-08T10:41:30Z</time>
      </trkpt>
      <trkpt lat="42.8631" lon="-8.57523">
        <ele>200.57</ele>
        <time>2019-06-08T10:41:46Z</time>
      </trkpt>
      <trkpt lat="42.86317" lon="-8.57494">
        <ele>197.69</ele>
        <time>2019-06-08T10:42:03Z</time>
      </trkpt>
      <trkpt lat="42.86326" lon="-8.57463">
        <ele>196.73</ele>
        <time>2019-06-08T10:42:22Z</time>
      </trkpt>
      <trkpt lat="42.8633" lon="-8.57455">
        <ele>196.73</ele>
        <time>2019-06-08T10:42:28Z</time>
      </trkpt>
      <trkpt lat="42.86339" lon="-8.57432">
        <ele>196.25</ele>
        <time>2019-06-08T10:42:43Z</time>
      </trkpt>
      <trkpt lat="42.86341" lon="-8.57428">
        <ele>195.77</ele>
        <time>2019-06-08T10:42:46Z</time>
      </trkpt>
      <trkpt lat="42.86341" lon="-8.57426">
        <ele>195.77</ele>
        <time>2019-06-08T10:42:47Z</time>
      </trkpt>
      <trkpt lat="42.86342" lon="-8.57424">
        <ele>195.77</ele>
        <time>2019-06-08T10:42:48Z</time>
      </trkpt>
      <trkpt lat="42.86344" lon="-8.57417">
        <ele>196.25</ele>
        <time>2019-06-08T10:42:53Z</time>
      </trkpt>
      <trkpt lat="42.86346" lon="-8.57415">
        <ele>195.77</ele>
        <time>2019-06-08T10:42:55Z</time>
      </trkpt>
      <trkpt lat="42.86347" lon="-8.57416">
        <ele>195.28</ele>
        <time>2019-06-08T10:42:56Z</time>
      </trkpt>
      <trkpt lat="42.86368" lon="-8.57424">
        <ele>195.28</ele>
        <time>2019-06-08T10:43:13Z</time>
      </trkpt>
      <trkpt lat="42.8638" lon="-8.57433">
        <ele>194.32</ele>
        <time>2019-06-08T10:43:28Z</time>
      </trkpt>
      <trkpt lat="42.86385" lon="-8.57439">
        <ele>192.88</ele>
        <time>2019-06-08T10:43:53Z</time>
      </trkpt>
      <trkpt lat="42.86386" lon="-8.57442">
        <ele>191.92</ele>
        <time>2019-06-08T10:43:55Z</time>
      </trkpt>
      <trkpt lat="42.86397" lon="-8.57461">
        <ele>189.52</ele>
        <time>2019-06-08T10:44:10Z</time>
      </trkpt>
      <trkpt lat="42.86411" lon="-8.57485">
        <ele>187.59</ele>
        <time>2019-06-08T10:44:27Z</time>
      </trkpt>
      <trkpt lat="42.86426" lon="-8.57505">
        <ele>186.63</ele>
        <time>2019-06-08T10:44:43Z</time>
      </trkpt>
      <trkpt lat="42.86443" lon="-8.57525">
        <ele>184.71</ele>
        <time>2019-06-08T10:45:00Z</time>
      </trkpt>
      <trkpt lat="42.86459" lon="-8.57546">
        <ele>184.71</ele>
        <time>2019-06-08T10:45:18Z</time>
      </trkpt>
      <trkpt lat="42.86461" lon="-8.57551">
        <ele>185.19</ele>
        <time>2019-06-08T10:45:28Z</time>
      </trkpt>
      <trkpt lat="42.86462" lon="-8.57552">
        <ele>185.19</ele>
        <time>2019-06-08T10:45:29Z</time>
      </trkpt>
      <trkpt lat="42.86477" lon="-8.57575">
        <ele>185.67</ele>
        <time>2019-06-08T10:45:48Z</time>
      </trkpt>
      <trkpt lat="42.86479" lon="-8.57581">
        <ele>185.19</ele>
        <time>2019-06-08T10:45:53Z</time>
      </trkpt>
      <trkpt lat="42.8648" lon="-8.57582">
        <ele>185.67</ele>
        <time>2019-06-08T10:45:54Z</time>
      </trkpt>
      <trkpt lat="42.86493" lon="-8.57602">
        <ele>185.67</ele>
        <time>2019-06-08T10:46:10Z</time>
      </trkpt>
      <trkpt lat="42.86495" lon="-8.57602">
        <ele>185.19</ele>
        <time>2019-06-08T10:46:11Z</time>
      </trkpt>
      <trkpt lat="42.86498" lon="-8.57602">
        <ele>184.23</ele>
        <time>2019-06-08T10:46:14Z</time>
      </trkpt>
      <trkpt lat="42.865" lon="-8.57601">
        <ele>184.23</ele>
        <time>2019-06-08T10:46:15Z</time>
      </trkpt>
      <trkpt lat="42.86502" lon="-8.576">
        <ele>183.75</ele>
        <time>2019-06-08T10:46:17Z</time>
      </trkpt>
      <trkpt lat="42.8651" lon="-8.5759">
        <ele>181.83</ele>
        <time>2019-06-08T10:46:29Z</time>
      </trkpt>
      <trkpt lat="42.86523" lon="-8.57571">
        <ele>179.42</ele>
        <time>2019-06-08T10:46:43Z</time>
      </trkpt>
      <trkpt lat="42.86533" lon="-8.5756">
        <ele>176.54</ele>
        <time>2019-06-08T10:46:56Z</time>
      </trkpt>
      <trkpt lat="42.86534" lon="-8.57559">
        <ele>177.02</ele>
        <time>2019-06-08T10:46:57Z</time>
      </trkpt>
      <trkpt lat="42.86535" lon="-8.57557">
        <ele>176.06</ele>
        <time>2019-06-08T10:46:58Z</time>
      </trkpt>
      <trkpt lat="42.86536" lon="-8.57556">
        <ele>177.5</ele>
        <time>2019-06-08T10:46:59Z</time>
      </trkpt>
      <trkpt lat="42.86537" lon="-8.57555">
        <ele>176.06</ele>
        <time>2019-06-08T10:47:00Z</time>
      </trkpt>
      <trkpt lat="42.86538" lon="-8.57554">
        <ele>176.06</ele>
        <time>2019-06-08T10:47:01Z</time>
      </trkpt>
      <trkpt lat="42.86538" lon="-8.57553">
        <ele>176.54</ele>
        <time>2019-06-08T10:47:02Z</time>
      </trkpt>
      <trkpt lat="42.86545" lon="-8.57545">
        <ele>175.1</ele>
        <time>2019-06-08T10:47:14Z</time>
      </trkpt>
      <trkpt lat="42.86562" lon="-8.57531">
        <ele>172.69</ele>
        <time>2019-06-08T10:47:31Z</time>
      </trkpt>
      <trkpt lat="42.8658" lon="-8.57518">
        <ele>169.33</ele>
        <time>2019-06-08T10:47:47Z</time>
      </trkpt>
      <trkpt lat="42.86599" lon="-8.57498">
        <ele>166.93</ele>
        <time>2019-06-08T10:48:05Z</time>
      </trkpt>
      <trkpt lat="42.86604" lon="-8.57477">
        <ele>167.41</ele>
        <time>2019-06-08T10:48:21Z</time>
      </trkpt>
      <trkpt lat="42.86605" lon="-8.57473">
        <ele>166.93</ele>
        <time>2019-06-08T10:48:24Z</time>
      </trkpt>
      <trkpt lat="42.86604" lon="-8.5747">
        <ele>166.93</ele>
        <time>2019-06-08T10:48:26Z</time>
      </trkpt>
      <trkpt lat="42.86604" lon="-8.57467">
        <ele>165.96</ele>
        <time>2019-06-08T10:48:28Z</time>
      </trkpt>
      <trkpt lat="42.86606" lon="-8.57462">
        <ele>165.96</ele>
        <time>2019-06-08T10:48:32Z</time>
      </trkpt>
      <trkpt lat="42.86606" lon="-8.5746">
        <ele>165.96</ele>
        <time>2019-06-08T10:48:33Z</time>
      </trkpt>
      <trkpt lat="42.86606" lon="-8.57459">
        <ele>166.45</ele>
        <time>2019-06-08T10:48:34Z</time>
      </trkpt>
      <trkpt lat="42.8661" lon="-8.57431">
        <ele>164.04</ele>
        <time>2019-06-08T10:48:51Z</time>
      </trkpt>
      <trkpt lat="42.8661" lon="-8.57406">
        <ele>164.04</ele>
        <time>2019-06-08T10:49:07Z</time>
      </trkpt>
      <trkpt lat="42.86611" lon="-8.57403">
        <ele>164.52</ele>
        <time>2019-06-08T10:49:14Z</time>
      </trkpt>
      <trkpt lat="42.86611" lon="-8.57401">
        <ele>164.04</ele>
        <time>2019-06-08T10:49:15Z</time>
      </trkpt>
      <trkpt lat="42.86611" lon="-8.574">
        <ele>164.04</ele>
        <time>2019-06-08T10:49:16Z</time>
      </trkpt>
      <trkpt lat="42.86611" lon="-8.57398">
        <ele>164.04</ele>
        <time>2019-06-08T10:49:17Z</time>
      </trkpt>
      <trkpt lat="42.86607" lon="-8.57373">
        <ele>163.56</ele>
        <time>2019-06-08T10:49:33Z</time>
      </trkpt>
      <trkpt lat="42.86605" lon="-8.57365">
        <ele>163.56</ele>
        <time>2019-06-08T10:49:38Z</time>
      </trkpt>
      <trkpt lat="42.86601" lon="-8.57345">
        <ele>163.56</ele>
        <time>2019-06-08T10:49:52Z</time>
      </trkpt>
      <trkpt lat="42.86601" lon="-8.57343">
        <ele>163.08</ele>
        <time>2019-06-08T10:49:53Z</time>
      </trkpt>
      <trkpt lat="42.866" lon="-8.57341">
        <ele>163.08</ele>
        <time>2019-06-08T10:49:54Z</time>
      </trkpt>
      <trkpt lat="42.86593" lon="-8.57326">
        <ele>162.12</ele>
        <time>2019-06-08T10:50:05Z</time>
      </trkpt>
      <trkpt lat="42.8659" lon="-8.57306">
        <ele>161.64</ele>
        <time>2019-06-08T10:50:18Z</time>
      </trkpt>
      <trkpt lat="42.8659" lon="-8.57295">
        <ele>161.16</ele>
        <time>2019-06-08T10:50:26Z</time>
      </trkpt>
      <trkpt lat="42.8659" lon="-8.57283">
        <ele>160.68</ele>
        <time>2019-06-08T10:50:35Z</time>
      </trkpt>
      <trkpt lat="42.86589" lon="-8.57279">
        <ele>161.16</ele>
        <time>2019-06-08T10:50:37Z</time>
      </trkpt>
      <trkpt lat="42.86583" lon="-8.57264">
        <ele>161.16</ele>
        <time>2019-06-08T10:50:46Z</time>
      </trkpt>
      <trkpt lat="42.86583" lon="-8.57251">
        <ele>161.16</ele>
        <time>2019-06-08T10:50:55Z</time>
      </trkpt>
      <trkpt lat="42.8658" lon="-8.57238">
        <ele>160.68</ele>
        <time>2019-06-08T10:51:08Z</time>
      </trkpt>
      <trkpt lat="42.86581" lon="-8.57232">
        <ele>160.68</ele>
        <time>2019-06-08T10:51:14Z</time>
      </trkpt>
      <trkpt lat="42.86583" lon="-8.57221">
        <ele>160.68</ele>
        <time>2019-06-08T10:51:22Z</time>
      </trkpt>
      <trkpt lat="42.86584" lon="-8.57219">
        <ele>160.68</ele>
        <time>2019-06-08T10:51:23Z</time>
      </trkpt>
      <trkpt lat="42.86584" lon="-8.57218">
        <ele>161.16</ele>
        <time>2019-06-08T10:51:24Z</time>
      </trkpt>
      <trkpt lat="42.86584" lon="-8.57216">
        <ele>161.64</ele>
        <time>2019-06-08T10:51:25Z</time>
      </trkpt>
      <trkpt lat="42.86584" lon="-8.57215">
        <ele>161.16</ele>
        <time>2019-06-08T10:51:26Z</time>
      </trkpt>
      <trkpt lat="42.86583" lon="-8.57213">
        <ele>161.16</ele>
        <time>2019-06-08T10:51:27Z</time>
      </trkpt>
      <trkpt lat="42.86584" lon="-8.57211">
        <ele>161.16</ele>
        <time>2019-06-08T10:51:28Z</time>
      </trkpt>
      <trkpt lat="42.86589" lon="-8.57189">
        <ele>161.64</ele>
        <time>2019-06-08T10:51:41Z</time>
      </trkpt>
      <trkpt lat="42.86591" lon="-8.57175">
        <ele>161.64</ele>
        <time>2019-06-08T10:51:53Z</time>
      </trkpt>
      <trkpt lat="42.86583" lon="-8.57159">
        <ele>162.12</ele>
        <time>2019-06-08T10:52:07Z</time>
      </trkpt>
      <trkpt lat="42.86582" lon="-8.57141">
        <ele>163.08</ele>
        <time>2019-06-08T10:52:20Z</time>
      </trkpt>
      <trkpt lat="42.86578" lon="-8.57125">
        <ele>164.52</ele>
        <time>2019-06-08T10:52:32Z</time>
      </trkpt>
      <trkpt lat="42.8656" lon="-8.57107">
        <ele>166.45</ele>
        <time>2019-06-08T10:52:50Z</time>
      </trkpt>
      <trkpt lat="42.86557" lon="-8.57105">
        <ele>166.45</ele>
        <time>2019-06-08T10:52:52Z</time>
      </trkpt>
      <trkpt lat="42.86547" lon="-8.57091">
        <ele>168.37</ele>
        <time>2019-06-08T10:53:07Z</time>
      </trkpt>
      <trkpt lat="42.86536" lon="-8.57077">
        <ele>169.33</ele>
        <time>2019-06-08T10:53:22Z</time>
      </trkpt>
      <trkpt lat="42.86525" lon="-8.57065">
        <ele>170.77</ele>
        <time>2019-06-08T10:53:37Z</time>
      </trkpt>
      <trkpt lat="42.86512" lon="-8.57048">
        <ele>173.17</ele>
        <time>2019-06-08T10:53:55Z</time>
      </trkpt>
      <trkpt lat="42.86499" lon="-8.57028">
        <ele>174.62</ele>
        <time>2019-06-08T10:54:11Z</time>
      </trkpt>
      <trkpt lat="42.86494" lon="-8.57018">
        <ele>175.1</ele>
        <time>2019-06-08T10:54:19Z</time>
      </trkpt>
      <trkpt lat="42.86481" lon="-8.57012">
        <ele>175.1</ele>
        <time>2019-06-08T10:54:31Z</time>
      </trkpt>
      <trkpt lat="42.86472" lon="-8.57002">
        <ele>174.14</ele>
        <time>2019-06-08T10:54:45Z</time>
      </trkpt>
      <trkpt lat="42.8646" lon="-8.56989">
        <ele>173.66</ele>
        <time>2019-06-08T10:55:04Z</time>
      </trkpt>
      <trkpt lat="42.86452" lon="-8.56988">
        <ele>173.17</ele>
        <time>2019-06-08T10:55:10Z</time>
      </trkpt>
      <trkpt lat="42.8645" lon="-8.56987">
        <ele>173.66</ele>
        <time>2019-06-08T10:55:11Z</time>
      </trkpt>
      <trkpt lat="42.86437" lon="-8.56984">
        <ele>173.17</ele>
        <time>2019-06-08T10:55:22Z</time>
      </trkpt>
      <trkpt lat="42.86435" lon="-8.56984">
        <ele>173.17</ele>
        <time>2019-06-08T10:55:23Z</time>
      </trkpt>
      <trkpt lat="42.86417" lon="-8.56988">
        <ele>173.66</ele>
        <time>2019-06-08T10:55:38Z</time>
      </trkpt>
      <trkpt lat="42.86405" lon="-8.56996">
        <ele>174.62</ele>
        <time>2019-06-08T10:55:51Z</time>
      </trkpt>
      <trkpt lat="42.86403" lon="-8.56998">
        <ele>173.66</ele>
        <time>2019-06-08T10:55:53Z</time>
      </trkpt>
      <trkpt lat="42.86389" lon="-8.57005">
        <ele>174.14</ele>
        <time>2019-06-08T10:56:04Z</time>
      </trkpt>
      <trkpt lat="42.86375" lon="-8.57004">
        <ele>174.14</ele>
        <time>2019-06-08T10:56:16Z</time>
      </trkpt>
      <trkpt lat="42.86359" lon="-8.57002">
        <ele>175.58</ele>
        <time>2019-06-08T10:56:30Z</time>
      </trkpt>
      <trkpt lat="42.86344" lon="-8.57004">
        <ele>176.06</ele>
        <time>2019-06-08T10:56:44Z</time>
      </trkpt>
      <trkpt lat="42.86322" lon="-8.57009">
        <ele>176.06</ele>
        <time>2019-06-08T10:57:01Z</time>
      </trkpt>
      <trkpt lat="42.86298" lon="-8.5701">
        <ele>176.06</ele>
        <time>2019-06-08T10:57:19Z</time>
      </trkpt>
      <trkpt lat="42.8628" lon="-8.57001">
        <ele>176.54</ele>
        <time>2019-06-08T10:57:33Z</time>
      </trkpt>
      <trkpt lat="42.86266" lon="-8.56994">
        <ele>177.02</ele>
        <time>2019-06-08T10:57:47Z</time>
      </trkpt>
      <trkpt lat="42.86249" lon="-8.56988">
        <ele>179.42</ele>
        <time>2019-06-08T10:58:01Z</time>
      </trkpt>
      <trkpt lat="42.86233" lon="-8.5698">
        <ele>180.38</ele>
        <time>2019-06-08T10:58:19Z</time>
      </trkpt>
      <trkpt lat="42.86214" lon="-8.56978">
        <ele>182.79</ele>
        <time>2019-06-08T10:58:39Z</time>
      </trkpt>
      <trkpt lat="42.86199" lon="-8.56976">
        <ele>184.71</ele>
        <time>2019-06-08T10:58:51Z</time>
      </trkpt>
      <trkpt lat="42.86197" lon="-8.56976">
        <ele>184.23</ele>
        <time>2019-06-08T10:58:52Z</time>
      </trkpt>
      <trkpt lat="42.86186" lon="-8.56975">
        <ele>181.83</ele>
        <time>2019-06-08T10:59:05Z</time>
      </trkpt>
      <trkpt lat="42.8618" lon="-8.56964">
        <ele>182.31</ele>
        <time>2019-06-08T10:59:26Z</time>
      </trkpt>
      <trkpt lat="42.86177" lon="-8.56941">
        <ele>184.71</ele>
        <time>2019-06-08T10:59:41Z</time>
      </trkpt>
      <trkpt lat="42.86186" lon="-8.56926">
        <ele>186.63</ele>
        <time>2019-06-08T10:59:56Z</time>
      </trkpt>
      <trkpt lat="42.86193" lon="-8.5691">
        <ele>187.59</ele>
        <time>2019-06-08T11:00:10Z</time>
      </trkpt>
      <trkpt lat="42.86205" lon="-8.56895">
        <ele>188.08</ele>
        <time>2019-06-08T11:00:25Z</time>
      </trkpt>
      <trkpt lat="42.86205" lon="-8.56891">
        <ele>188.08</ele>
        <time>2019-06-08T11:00:42Z</time>
      </trkpt>
      <trkpt lat="42.86213" lon="-8.56881">
        <ele>187.59</ele>
        <time>2019-06-08T11:00:55Z</time>
      </trkpt>
      <trkpt lat="42.86222" lon="-8.56864">
        <ele>188.56</ele>
        <time>2019-06-08T11:01:09Z</time>
      </trkpt>
      <trkpt lat="42.86232" lon="-8.56846">
        <ele>188.56</ele>
        <time>2019-06-08T11:01:23Z</time>
      </trkpt>
      <trkpt lat="42.86241" lon="-8.56822">
        <ele>189.04</ele>
        <time>2019-06-08T11:01:39Z</time>
      </trkpt>
      <trkpt lat="42.86243" lon="-8.56812">
        <ele>190.48</ele>
        <time>2019-06-08T11:01:52Z</time>
      </trkpt>
      <trkpt lat="42.86243" lon="-8.56808">
        <ele>190</ele>
        <time>2019-06-08T11:01:54Z</time>
      </trkpt>
      <trkpt lat="42.86243" lon="-8.56806">
        <ele>190</ele>
        <time>2019-06-08T11:01:55Z</time>
      </trkpt>
      <trkpt lat="42.86243" lon="-8.56803">
        <ele>190</ele>
        <time>2019-06-08T11:01:57Z</time>
      </trkpt>
      <trkpt lat="42.86244" lon="-8.56788">
        <ele>190.48</ele>
        <time>2019-06-08T11:02:10Z</time>
      </trkpt>
      <trkpt lat="42.86244" lon="-8.56783">
        <ele>190.96</ele>
        <time>2019-06-08T11:02:13Z</time>
      </trkpt>
      <trkpt lat="42.86241" lon="-8.56759">
        <ele>190.96</ele>
        <time>2019-06-08T11:02:29Z</time>
      </trkpt>
      <trkpt lat="42.86241" lon="-8.56754">
        <ele>190.96</ele>
        <time>2019-06-08T11:02:33Z</time>
      </trkpt>
      <trkpt lat="42.86242" lon="-8.56753">
        <ele>190.96</ele>
        <time>2019-06-08T11:02:34Z</time>
      </trkpt>
      <trkpt lat="42.86243" lon="-8.56752">
        <ele>190.48</ele>
        <time>2019-06-08T11:02:35Z</time>
      </trkpt>
      <trkpt lat="42.86244" lon="-8.5675">
        <ele>190.96</ele>
        <time>2019-06-08T11:02:48Z</time>
      </trkpt>
      <trkpt lat="42.8624" lon="-8.56749">
        <ele>190.96</ele>
        <time>2019-06-08T11:03:15Z</time>
      </trkpt>
      <trkpt lat="42.86239" lon="-8.56749">
        <ele>190.48</ele>
        <time>2019-06-08T11:03:39Z</time>
      </trkpt>
      <trkpt lat="42.86243" lon="-8.56746">
        <ele>190.96</ele>
        <time>2019-06-08T11:04:07Z</time>
      </trkpt>
      <trkpt lat="42.86245" lon="-8.56743">
        <ele>190.96</ele>
        <time>2019-06-08T11:04:33Z</time>
      </trkpt>
      <trkpt lat="42.86245" lon="-8.56741">
        <ele>191.44</ele>
        <time>2019-06-08T11:04:38Z</time>
      </trkpt>
      <trkpt lat="42.86245" lon="-8.56739">
        <ele>190.48</ele>
        <time>2019-06-08T11:04:40Z</time>
      </trkpt>
      <trkpt lat="42.86245" lon="-8.56737">
        <ele>191.44</ele>
        <time>2019-06-08T11:04:41Z</time>
      </trkpt>
      <trkpt lat="42.86238" lon="-8.56723">
        <ele>190</ele>
        <time>2019-06-08T11:04:53Z</time>
      </trkpt>
      <trkpt lat="42.86236" lon="-8.56719">
        <ele>189.52</ele>
        <time>2019-06-08T11:04:58Z</time>
      </trkpt>
      <trkpt lat="42.86236" lon="-8.56718">
        <ele>189.52</ele>
        <time>2019-06-08T11:04:59Z</time>
      </trkpt>
      <trkpt lat="42.8624" lon="-8.56706">
        <ele>189.04</ele>
        <time>2019-06-08T11:05:14Z</time>
      </trkpt>
      <trkpt lat="42.8624" lon="-8.56705">
        <ele>188.56</ele>
        <time>2019-06-08T11:05:15Z</time>
      </trkpt>
      <trkpt lat="42.86245" lon="-8.56699">
        <ele>189.04</ele>
        <time>2019-06-08T11:05:26Z</time>
      </trkpt>
      <trkpt lat="42.86246" lon="-8.56698">
        <ele>189.04</ele>
        <time>2019-06-08T11:05:27Z</time>
      </trkpt>
      <trkpt lat="42.86255" lon="-8.56686">
        <ele>189.52</ele>
        <time>2019-06-08T11:05:39Z</time>
      </trkpt>
      <trkpt lat="42.86267" lon="-8.56676">
        <ele>190.48</ele>
        <time>2019-06-08T11:05:51Z</time>
      </trkpt>
      <trkpt lat="42.8628" lon="-8.56666">
        <ele>190.96</ele>
        <time>2019-06-08T11:06:04Z</time>
      </trkpt>
      <trkpt lat="42.86294" lon="-8.56654">
        <ele>192.4</ele>
        <time>2019-06-08T11:06:19Z</time>
      </trkpt>
      <trkpt lat="42.86298" lon="-8.5665">
        <ele>192.4</ele>
        <time>2019-06-08T11:06:24Z</time>
      </trkpt>
      <trkpt lat="42.86307" lon="-8.5664">
        <ele>193.36</ele>
        <time>2019-06-08T11:06:36Z</time>
      </trkpt>
      <trkpt lat="42.8632" lon="-8.56622">
        <ele>194.8</ele>
        <time>2019-06-08T11:06:51Z</time>
      </trkpt>
      <trkpt lat="42.86323" lon="-8.56601">
        <ele>195.77</ele>
        <time>2019-06-08T11:07:07Z</time>
      </trkpt>
      <trkpt lat="42.86324" lon="-8.56595">
        <ele>196.25</ele>
        <time>2019-06-08T11:07:26Z</time>
      </trkpt>
      <trkpt lat="42.86332" lon="-8.56581">
        <ele>196.73</ele>
        <time>2019-06-08T11:07:42Z</time>
      </trkpt>
      <trkpt lat="42.86332" lon="-8.56573">
        <ele>197.69</ele>
        <time>2019-06-08T11:07:57Z</time>
      </trkpt>
      <trkpt lat="42.86337" lon="-8.56561">
        <ele>198.65</ele>
        <time>2019-06-08T11:08:09Z</time>
      </trkpt>
      <trkpt lat="42.8634" lon="-8.56554">
        <ele>199.61</ele>
        <time>2019-06-08T11:08:31Z</time>
      </trkpt>
      <trkpt lat="42.86348" lon="-8.56537">
        <ele>200.57</ele>
        <time>2019-06-08T11:08:46Z</time>
      </trkpt>
      <trkpt lat="42.86356" lon="-8.56528">
        <ele>200.57</ele>
        <time>2019-06-08T11:09:02Z</time>
      </trkpt>
      <trkpt lat="42.86356" lon="-8.56526">
        <ele>200.09</ele>
        <time>2019-06-08T11:09:14Z</time>
      </trkpt>
      <trkpt lat="42.86356" lon="-8.56528">
        <ele>200.57</ele>
        <time>2019-06-08T11:09:56Z</time>
      </trkpt>
      <trkpt lat="42.86355" lon="-8.56528">
        <ele>200.09</ele>
        <time>2019-06-08T11:10:27Z</time>
      </trkpt>
      <trkpt lat="42.86355" lon="-8.56528">
        <ele>200.57</ele>
        <time>2019-06-08T11:11:02Z</time>
      </trkpt>
      <trkpt lat="42.86356" lon="-8.56526">
        <ele>200.09</ele>
        <time>2019-06-08T11:11:47Z</time>
      </trkpt>
      <trkpt lat="42.86356" lon="-8.56528">
        <ele>200.57</ele>
        <time>2019-06-08T11:12:02Z</time>
      </trkpt>
      <trkpt lat="42.86356" lon="-8.56529">
        <ele>201.05</ele>
        <time>2019-06-08T11:12:18Z</time>
      </trkpt>
      <trkpt lat="42.86358" lon="-8.56528">
        <ele>201.53</ele>
        <time>2019-06-08T11:12:32Z</time>
      </trkpt>
      <trkpt lat="42.8636" lon="-8.56526">
        <ele>201.05</ele>
        <time>2019-06-08T11:12:35Z</time>
      </trkpt>
      <trkpt lat="42.86365" lon="-8.56523">
        <ele>200.57</ele>
        <time>2019-06-08T11:12:39Z</time>
      </trkpt>
      <trkpt lat="42.8638" lon="-8.56515">
        <ele>200.09</ele>
        <time>2019-06-08T11:12:53Z</time>
      </trkpt>
      <trkpt lat="42.86393" lon="-8.56505">
        <ele>200.09</ele>
        <time>2019-06-08T11:13:06Z</time>
      </trkpt>
      <trkpt lat="42.86409" lon="-8.56495">
        <ele>199.61</ele>
        <time>2019-06-08T11:13:20Z</time>
      </trkpt>
      <trkpt lat="42.86423" lon="-8.56478">
        <ele>198.65</ele>
        <time>2019-06-08T11:13:34Z</time>
      </trkpt>
      <trkpt lat="42.86434" lon="-8.56464">
        <ele>198.65</ele>
        <time>2019-06-08T11:13:49Z</time>
      </trkpt>
      <trkpt lat="42.86447" lon="-8.56449">
        <ele>198.65</ele>
        <time>2019-06-08T11:14:03Z</time>
      </trkpt>
      <trkpt lat="42.86447" lon="-8.56447">
        <ele>198.65</ele>
        <time>2019-06-08T11:14:04Z</time>
      </trkpt>
      <trkpt lat="42.86448" lon="-8.56447">
        <ele>199.13</ele>
        <time>2019-06-08T11:14:05Z</time>
      </trkpt>
      <trkpt lat="42.86461" lon="-8.56431">
        <ele>198.65</ele>
        <time>2019-06-08T11:14:21Z</time>
      </trkpt>
      <trkpt lat="42.86473" lon="-8.56416">
        <ele>198.17</ele>
        <time>2019-06-08T11:14:35Z</time>
      </trkpt>
      <trkpt lat="42.8648" lon="-8.56409">
        <ele>198.65</ele>
        <time>2019-06-08T11:14:43Z</time>
      </trkpt>
      <trkpt lat="42.86483" lon="-8.56403">
        <ele>198.65</ele>
        <time>2019-06-08T11:14:48Z</time>
      </trkpt>
      <trkpt lat="42.86484" lon="-8.56402">
        <ele>199.13</ele>
        <time>2019-06-08T11:14:49Z</time>
      </trkpt>
      <trkpt lat="42.86485" lon="-8.56401">
        <ele>199.13</ele>
        <time>2019-06-08T11:14:50Z</time>
      </trkpt>
      <trkpt lat="42.86496" lon="-8.56389">
        <ele>198.65</ele>
        <time>2019-06-08T11:15:01Z</time>
      </trkpt>
      <trkpt lat="42.86503" lon="-8.56378">
        <ele>199.13</ele>
        <time>2019-06-08T11:15:13Z</time>
      </trkpt>
      <trkpt lat="42.86513" lon="-8.56368">
        <ele>199.13</ele>
        <time>2019-06-08T11:15:25Z</time>
      </trkpt>
      <trkpt lat="42.86522" lon="-8.56357">
        <ele>198.65</ele>
        <time>2019-06-08T11:15:42Z</time>
      </trkpt>
      <trkpt lat="42.86539" lon="-8.56341">
        <ele>198.65</ele>
        <time>2019-06-08T11:15:56Z</time>
      </trkpt>
      <trkpt lat="42.86549" lon="-8.56325">
        <ele>198.65</ele>
        <time>2019-06-08T11:16:08Z</time>
      </trkpt>
      <trkpt lat="42.86551" lon="-8.56322">
        <ele>198.17</ele>
        <time>2019-06-08T11:16:10Z</time>
      </trkpt>
      <trkpt lat="42.86561" lon="-8.56311">
        <ele>198.17</ele>
        <time>2019-06-08T11:16:20Z</time>
      </trkpt>
      <trkpt lat="42.86564" lon="-8.56309">
        <ele>198.17</ele>
        <time>2019-06-08T11:16:23Z</time>
      </trkpt>
      <trkpt lat="42.86569" lon="-8.56302">
        <ele>198.17</ele>
        <time>2019-06-08T11:16:29Z</time>
      </trkpt>
      <trkpt lat="42.86571" lon="-8.563">
        <ele>198.65</ele>
        <time>2019-06-08T11:16:31Z</time>
      </trkpt>
      <trkpt lat="42.86575" lon="-8.56299">
        <ele>198.17</ele>
        <time>2019-06-08T11:16:35Z</time>
      </trkpt>
      <trkpt lat="42.86581" lon="-8.56303">
        <ele>198.65</ele>
        <time>2019-06-08T11:16:41Z</time>
      </trkpt>
      <trkpt lat="42.86592" lon="-8.56316">
        <ele>200.09</ele>
        <time>2019-06-08T11:16:55Z</time>
      </trkpt>
      <trkpt lat="42.86601" lon="-8.56315">
        <ele>201.05</ele>
        <time>2019-06-08T11:17:08Z</time>
      </trkpt>
      <trkpt lat="42.86603" lon="-8.56312">
        <ele>201.05</ele>
        <time>2019-06-08T11:17:10Z</time>
      </trkpt>
      <trkpt lat="42.86615" lon="-8.56297">
        <ele>201.53</ele>
        <time>2019-06-08T11:17:25Z</time>
      </trkpt>
      <trkpt lat="42.86617" lon="-8.56297">
        <ele>202.01</ele>
        <time>2019-06-08T11:17:28Z</time>
      </trkpt>
      <trkpt lat="42.86624" lon="-8.56298">
        <ele>202.49</ele>
        <time>2019-06-08T11:17:33Z</time>
      </trkpt>
      <trkpt lat="42.86637" lon="-8.56295">
        <ele>202.98</ele>
        <time>2019-06-08T11:17:46Z</time>
      </trkpt>
      <trkpt lat="42.86645" lon="-8.5629">
        <ele>203.46</ele>
        <time>2019-06-08T11:17:59Z</time>
      </trkpt>
      <trkpt lat="42.8666" lon="-8.56283">
        <ele>204.42</ele>
        <time>2019-06-08T11:18:13Z</time>
      </trkpt>
      <trkpt lat="42.86671" lon="-8.56277">
        <ele>205.38</ele>
        <time>2019-06-08T11:18:26Z</time>
      </trkpt>
      <trkpt lat="42.86681" lon="-8.5627">
        <ele>206.34</ele>
        <time>2019-06-08T11:18:38Z</time>
      </trkpt>
      <trkpt lat="42.86693" lon="-8.56258">
        <ele>207.78</ele>
        <time>2019-06-08T11:18:52Z</time>
      </trkpt>
      <trkpt lat="42.86706" lon="-8.56246">
        <ele>208.26</ele>
        <time>2019-06-08T11:19:08Z</time>
      </trkpt>
      <trkpt lat="42.86707" lon="-8.56246">
        <ele>208.26</ele>
        <time>2019-06-08T11:19:09Z</time>
      </trkpt>
      <trkpt lat="42.86721" lon="-8.56234">
        <ele>210.19</ele>
        <time>2019-06-08T11:19:25Z</time>
      </trkpt>
      <trkpt lat="42.86728" lon="-8.56227">
        <ele>210.19</ele>
        <time>2019-06-08T11:19:32Z</time>
      </trkpt>
      <trkpt lat="42.8674" lon="-8.56218">
        <ele>212.11</ele>
        <time>2019-06-08T11:19:46Z</time>
      </trkpt>
      <trkpt lat="42.86751" lon="-8.56216">
        <ele>214.03</ele>
        <time>2019-06-08T11:19:59Z</time>
      </trkpt>
      <trkpt lat="42.86755" lon="-8.56227">
        <ele>214.51</ele>
        <time>2019-06-08T11:20:13Z</time>
      </trkpt>
      <trkpt lat="42.86755" lon="-8.5623">
        <ele>214.03</ele>
        <time>2019-06-08T11:20:31Z</time>
      </trkpt>
      <trkpt lat="42.86755" lon="-8.56234">
        <ele>214.03</ele>
        <time>2019-06-08T11:20:53Z</time>
      </trkpt>
      <trkpt lat="42.8676" lon="-8.56235">
        <ele>214.51</ele>
        <time>2019-06-08T11:21:17Z</time>
      </trkpt>
      <trkpt lat="42.8677" lon="-8.56225">
        <ele>214.99</ele>
        <time>2019-06-08T11:21:28Z</time>
      </trkpt>
      <trkpt lat="42.86782" lon="-8.5621">
        <ele>214.99</ele>
        <time>2019-06-08T11:21:42Z</time>
      </trkpt>
      <trkpt lat="42.86794" lon="-8.56195">
        <ele>215.95</ele>
        <time>2019-06-08T11:21:55Z</time>
      </trkpt>
      <trkpt lat="42.86798" lon="-8.56188">
        <ele>215.95</ele>
        <time>2019-06-08T11:22:01Z</time>
      </trkpt>
      <trkpt lat="42.86806" lon="-8.56175">
        <ele>215.95</ele>
        <time>2019-06-08T11:22:15Z</time>
      </trkpt>
      <trkpt lat="42.86815" lon="-8.56168">
        <ele>216.43</ele>
        <time>2019-06-08T11:22:27Z</time>
      </trkpt>
      <trkpt lat="42.86827" lon="-8.56159">
        <ele>216.91</ele>
        <time>2019-06-08T11:22:40Z</time>
      </trkpt>
      <trkpt lat="42.86826" lon="-8.56145">
        <ele>216.91</ele>
        <time>2019-06-08T11:22:44Z</time>
      </trkpt>
      <trkpt lat="42.86829" lon="-8.56135">
        <ele>216.91</ele>
        <time>2019-06-08T11:22:51Z</time>
      </trkpt>
      <trkpt lat="42.86839" lon="-8.56122">
        <ele>216.91</ele>
        <time>2019-06-08T11:23:04Z</time>
      </trkpt>
      <trkpt lat="42.86847" lon="-8.56109">
        <ele>217.4</ele>
        <time>2019-06-08T11:23:18Z</time>
      </trkpt>
      <trkpt lat="42.86859" lon="-8.56089">
        <ele>218.36</ele>
        <time>2019-06-08T11:23:35Z</time>
      </trkpt>
      <trkpt lat="42.86868" lon="-8.5607">
        <ele>218.84</ele>
        <time>2019-06-08T11:23:50Z</time>
      </trkpt>
      <trkpt lat="42.86874" lon="-8.56059">
        <ele>219.32</ele>
        <time>2019-06-08T11:24:04Z</time>
      </trkpt>
      <trkpt lat="42.86885" lon="-8.56044">
        <ele>219.8</ele>
        <time>2019-06-08T11:24:19Z</time>
      </trkpt>
      <trkpt lat="42.86892" lon="-8.56036">
        <ele>219.32</ele>
        <time>2019-06-08T11:24:28Z</time>
      </trkpt>
      <trkpt lat="42.86906" lon="-8.56019">
        <ele>219.8</ele>
        <time>2019-06-08T11:24:44Z</time>
      </trkpt>
      <trkpt lat="42.86914" lon="-8.56005">
        <ele>220.76</ele>
        <time>2019-06-08T11:24:56Z</time>
      </trkpt>
      <trkpt lat="42.86926" lon="-8.55989">
        <ele>221.24</ele>
        <time>2019-06-08T11:25:10Z</time>
      </trkpt>
      <trkpt lat="42.86936" lon="-8.55976">
        <ele>221.72</ele>
        <time>2019-06-08T11:25:25Z</time>
      </trkpt>
      <trkpt lat="42.86937" lon="-8.55975">
        <ele>221.72</ele>
        <time>2019-06-08T11:25:29Z</time>
      </trkpt>
      <trkpt lat="42.86947" lon="-8.55964">
        <ele>222.68</ele>
        <time>2019-06-08T11:25:42Z</time>
      </trkpt>
      <trkpt lat="42.86951" lon="-8.55951">
        <ele>222.68</ele>
        <time>2019-06-08T11:25:53Z</time>
      </trkpt>
      <trkpt lat="42.86961" lon="-8.55938">
        <ele>223.64</ele>
        <time>2019-06-08T11:26:05Z</time>
      </trkpt>
      <trkpt lat="42.86966" lon="-8.55933">
        <ele>224.12</ele>
        <time>2019-06-08T11:26:12Z</time>
      </trkpt>
      <trkpt lat="42.86971" lon="-8.55925">
        <ele>224.12</ele>
        <time>2019-06-08T11:26:17Z</time>
      </trkpt>
      <trkpt lat="42.86981" lon="-8.55908">
        <ele>225.57</ele>
        <time>2019-06-08T11:26:32Z</time>
      </trkpt>
      <trkpt lat="42.86989" lon="-8.55894">
        <ele>226.05</ele>
        <time>2019-06-08T11:26:43Z</time>
      </trkpt>
      <trkpt lat="42.86996" lon="-8.55877">
        <ele>226.53</ele>
        <time>2019-06-08T11:26:56Z</time>
      </trkpt>
      <trkpt lat="42.87006" lon="-8.55867">
        <ele>227.01</ele>
        <time>2019-06-08T11:27:08Z</time>
      </trkpt>
      <trkpt lat="42.87012" lon="-8.55861">
        <ele>227.49</ele>
        <time>2019-06-08T11:27:16Z</time>
      </trkpt>
      <trkpt lat="42.8702" lon="-8.55851">
        <ele>227.49</ele>
        <time>2019-06-08T11:27:27Z</time>
      </trkpt>
      <trkpt lat="42.87031" lon="-8.55837">
        <ele>227.49</ele>
        <time>2019-06-08T11:27:40Z</time>
      </trkpt>
      <trkpt lat="42.87039" lon="-8.55825">
        <ele>228.93</ele>
        <time>2019-06-08T11:27:53Z</time>
      </trkpt>
      <trkpt lat="42.8704" lon="-8.55821">
        <ele>228.93</ele>
        <time>2019-06-08T11:27:56Z</time>
      </trkpt>
      <trkpt lat="42.87049" lon="-8.55803">
        <ele>229.41</ele>
        <time>2019-06-08T11:28:10Z</time>
      </trkpt>
      <trkpt lat="42.87054" lon="-8.55797">
        <ele>229.41</ele>
        <time>2019-06-08T11:28:16Z</time>
      </trkpt>
      <trkpt lat="42.87058" lon="-8.55793">
        <ele>229.89</ele>
        <time>2019-06-08T11:28:21Z</time>
      </trkpt>
      <trkpt lat="42.87067" lon="-8.5578">
        <ele>229.89</ele>
        <time>2019-06-08T11:28:33Z</time>
      </trkpt>
      <trkpt lat="42.87078" lon="-8.55767">
        <ele>230.85</ele>
        <time>2019-06-08T11:28:46Z</time>
      </trkpt>
      <trkpt lat="42.87086" lon="-8.55753">
        <ele>231.33</ele>
        <time>2019-06-08T11:28:59Z</time>
      </trkpt>
      <trkpt lat="42.87094" lon="-8.55743">
        <ele>231.81</ele>
        <time>2019-06-08T11:29:10Z</time>
      </trkpt>
      <trkpt lat="42.87105" lon="-8.55725">
        <ele>231.81</ele>
        <time>2019-06-08T11:29:24Z</time>
      </trkpt>
      <trkpt lat="42.87113" lon="-8.55712">
        <ele>232.78</ele>
        <time>2019-06-08T11:29:38Z</time>
      </trkpt>
      <trkpt lat="42.87122" lon="-8.55699">
        <ele>233.26</ele>
        <time>2019-06-08T11:29:51Z</time>
      </trkpt>
      <trkpt lat="42.87136" lon="-8.55684">
        <ele>234.22</ele>
        <time>2019-06-08T11:30:09Z</time>
      </trkpt>
      <trkpt lat="42.87146" lon="-8.55669">
        <ele>234.7</ele>
        <time>2019-06-08T11:30:23Z</time>
      </trkpt>
      <trkpt lat="42.87158" lon="-8.55648">
        <ele>235.66</ele>
        <time>2019-06-08T11:30:37Z</time>
      </trkpt>
      <trkpt lat="42.87165" lon="-8.55636">
        <ele>236.14</ele>
        <time>2019-06-08T11:30:48Z</time>
      </trkpt>
      <trkpt lat="42.87171" lon="-8.5563">
        <ele>236.62</ele>
        <time>2019-06-08T11:30:55Z</time>
      </trkpt>
      <trkpt lat="42.8718" lon="-8.55614">
        <ele>236.62</ele>
        <time>2019-06-08T11:31:09Z</time>
      </trkpt>
      <trkpt lat="42.87188" lon="-8.55598">
        <ele>237.1</ele>
        <time>2019-06-08T11:31:22Z</time>
      </trkpt>
      <trkpt lat="42.87193" lon="-8.55584">
        <ele>238.06</ele>
        <time>2019-06-08T11:31:32Z</time>
      </trkpt>
      <trkpt lat="42.872" lon="-8.5557">
        <ele>238.54</ele>
        <time>2019-06-08T11:31:44Z</time>
      </trkpt>
      <trkpt lat="42.87201" lon="-8.55569">
        <ele>238.54</ele>
        <time>2019-06-08T11:31:45Z</time>
      </trkpt>
      <trkpt lat="42.87206" lon="-8.55564">
        <ele>238.06</ele>
        <time>2019-06-08T11:31:51Z</time>
      </trkpt>
      <trkpt lat="42.87212" lon="-8.55554">
        <ele>238.54</ele>
        <time>2019-06-08T11:32:03Z</time>
      </trkpt>
      <trkpt lat="42.87215" lon="-8.55535">
        <ele>238.54</ele>
        <time>2019-06-08T11:32:17Z</time>
      </trkpt>
      <trkpt lat="42.87215" lon="-8.5553">
        <ele>238.54</ele>
        <time>2019-06-08T11:32:21Z</time>
      </trkpt>
      <trkpt lat="42.87217" lon="-8.55527">
        <ele>238.06</ele>
        <time>2019-06-08T11:32:34Z</time>
      </trkpt>
      <trkpt lat="42.87215" lon="-8.55531">
        <ele>238.06</ele>
        <time>2019-06-08T11:33:08Z</time>
      </trkpt>
      <trkpt lat="42.87218" lon="-8.5553">
        <ele>238.06</ele>
        <time>2019-06-08T11:33:37Z</time>
      </trkpt>
      <trkpt lat="42.87216" lon="-8.55531">
        <ele>239.02</ele>
        <time>2019-06-08T11:34:04Z</time>
      </trkpt>
      <trkpt lat="42.87221" lon="-8.5552">
        <ele>238.54</ele>
        <time>2019-06-08T11:34:21Z</time>
      </trkpt>
      <trkpt lat="42.87222" lon="-8.55511">
        <ele>238.54</ele>
        <time>2019-06-08T11:34:28Z</time>
      </trkpt>
      <trkpt lat="42.87225" lon="-8.55494">
        <ele>238.54</ele>
        <time>2019-06-08T11:34:42Z</time>
      </trkpt>
      <trkpt lat="42.87228" lon="-8.55481">
        <ele>238.54</ele>
        <time>2019-06-08T11:34:55Z</time>
      </trkpt>
      <trkpt lat="42.87234" lon="-8.55467">
        <ele>238.54</ele>
        <time>2019-06-08T11:35:07Z</time>
      </trkpt>
      <trkpt lat="42.87243" lon="-8.55448">
        <ele>238.54</ele>
        <time>2019-06-08T11:35:19Z</time>
      </trkpt>
      <trkpt lat="42.87252" lon="-8.55431">
        <ele>238.06</ele>
        <time>2019-06-08T11:35:30Z</time>
      </trkpt>
      <trkpt lat="42.87267" lon="-8.55413">
        <ele>239.02</ele>
        <time>2019-06-08T11:35:46Z</time>
      </trkpt>
      <trkpt lat="42.87279" lon="-8.55391">
        <ele>238.54</ele>
        <time>2019-06-08T11:36:02Z</time>
      </trkpt>
      <trkpt lat="42.8728" lon="-8.55391">
        <ele>238.54</ele>
        <time>2019-06-08T11:36:03Z</time>
      </trkpt>
      <trkpt lat="42.87293" lon="-8.55378">
        <ele>239.02</ele>
        <time>2019-06-08T11:36:17Z</time>
      </trkpt>
      <trkpt lat="42.87296" lon="-8.55373">
        <ele>239.02</ele>
        <time>2019-06-08T11:36:21Z</time>
      </trkpt>
      <trkpt lat="42.87298" lon="-8.55373">
        <ele>239.02</ele>
        <time>2019-06-08T11:36:23Z</time>
      </trkpt>
      <trkpt lat="42.873" lon="-8.55369">
        <ele>238.54</ele>
        <time>2019-06-08T11:36:26Z</time>
      </trkpt>
      <trkpt lat="42.87309" lon="-8.55359">
        <ele>239.02</ele>
        <time>2019-06-08T11:36:38Z</time>
      </trkpt>
      <trkpt lat="42.8731" lon="-8.55361">
        <ele>238.54</ele>
        <time>2019-06-08T11:36:40Z</time>
      </trkpt>
      <trkpt lat="42.87313" lon="-8.55369">
        <ele>237.58</ele>
        <time>2019-06-08T11:36:46Z</time>
      </trkpt>
      <trkpt lat="42.87319" lon="-8.55376">
        <ele>237.1</ele>
        <time>2019-06-08T11:37:00Z</time>
      </trkpt>
      <trkpt lat="42.87325" lon="-8.55374">
        <ele>236.62</ele>
        <time>2019-06-08T11:37:06Z</time>
      </trkpt>
      <trkpt lat="42.87329" lon="-8.55369">
        <ele>236.14</ele>
        <time>2019-06-08T11:37:11Z</time>
      </trkpt>
      <trkpt lat="42.87331" lon="-8.55355">
        <ele>237.58</ele>
        <time>2019-06-08T11:37:24Z</time>
      </trkpt>
      <trkpt lat="42.87328" lon="-8.55345">
        <ele>238.54</ele>
        <time>2019-06-08T11:37:35Z</time>
      </trkpt>
      <trkpt lat="42.87327" lon="-8.55335">
        <ele>238.54</ele>
        <time>2019-06-08T11:37:41Z</time>
      </trkpt>
      <trkpt lat="42.87328" lon="-8.55323">
        <ele>238.54</ele>
        <time>2019-06-08T11:37:48Z</time>
      </trkpt>
      <trkpt lat="42.87331" lon="-8.55318">
        <ele>239.02</ele>
        <time>2019-06-08T11:37:51Z</time>
      </trkpt>
      <trkpt lat="42.87338" lon="-8.55302">
        <ele>239.02</ele>
        <time>2019-06-08T11:38:01Z</time>
      </trkpt>
      <trkpt lat="42.87348" lon="-8.55273">
        <ele>239.02</ele>
        <time>2019-06-08T11:38:17Z</time>
      </trkpt>
      <trkpt lat="42.87364" lon="-8.55265">
        <ele>238.54</ele>
        <time>2019-06-08T11:38:30Z</time>
      </trkpt>
      <trkpt lat="42.87371" lon="-8.5526">
        <ele>238.54</ele>
        <time>2019-06-08T11:38:43Z</time>
      </trkpt>
      <trkpt lat="42.87382" lon="-8.5525">
        <ele>238.54</ele>
        <time>2019-06-08T11:38:55Z</time>
      </trkpt>
      <trkpt lat="42.87395" lon="-8.55237">
        <ele>238.54</ele>
        <time>2019-06-08T11:39:08Z</time>
      </trkpt>
      <trkpt lat="42.87404" lon="-8.5522">
        <ele>238.54</ele>
        <time>2019-06-08T11:39:21Z</time>
      </trkpt>
      <trkpt lat="42.87411" lon="-8.55211">
        <ele>238.06</ele>
        <time>2019-06-08T11:39:30Z</time>
      </trkpt>
      <trkpt lat="42.87413" lon="-8.55207">
        <ele>238.54</ele>
        <time>2019-06-08T11:39:33Z</time>
      </trkpt>
      <trkpt lat="42.87416" lon="-8.55191">
        <ele>237.58</ele>
        <time>2019-06-08T11:39:47Z</time>
      </trkpt>
      <trkpt lat="42.87431" lon="-8.55179">
        <ele>238.54</ele>
        <time>2019-06-08T11:40:00Z</time>
      </trkpt>
      <trkpt lat="42.87439" lon="-8.55163">
        <ele>238.06</ele>
        <time>2019-06-08T11:40:15Z</time>
      </trkpt>
      <trkpt lat="42.87448" lon="-8.55154">
        <ele>238.06</ele>
        <time>2019-06-08T11:40:24Z</time>
      </trkpt>
      <trkpt lat="42.87456" lon="-8.55137">
        <ele>237.58</ele>
        <time>2019-06-08T11:40:38Z</time>
      </trkpt>
      <trkpt lat="42.87458" lon="-8.55135">
        <ele>237.58</ele>
        <time>2019-06-08T11:40:40Z</time>
      </trkpt>
      <trkpt lat="42.87473" lon="-8.55121">
        <ele>238.06</ele>
        <time>2019-06-08T11:40:54Z</time>
      </trkpt>
      <trkpt lat="42.87488" lon="-8.55109">
        <ele>238.54</ele>
        <time>2019-06-08T11:41:10Z</time>
      </trkpt>
      <trkpt lat="42.87494" lon="-8.55102">
        <ele>238.06</ele>
        <time>2019-06-08T11:41:18Z</time>
      </trkpt>
      <trkpt lat="42.87502" lon="-8.55084">
        <ele>238.54</ele>
        <time>2019-06-08T11:41:32Z</time>
      </trkpt>
      <trkpt lat="42.8751" lon="-8.55066">
        <ele>239.51</ele>
        <time>2019-06-08T11:41:46Z</time>
      </trkpt>
      <trkpt lat="42.8752" lon="-8.55054">
        <ele>240.47</ele>
        <time>2019-06-08T11:42:00Z</time>
      </trkpt>
      <trkpt lat="42.87532" lon="-8.5504">
        <ele>240.95</ele>
        <time>2019-06-08T11:42:16Z</time>
      </trkpt>
      <trkpt lat="42.87532" lon="-8.55039">
        <ele>240.47</ele>
        <time>2019-06-08T11:42:17Z</time>
      </trkpt>
      <trkpt lat="42.87542" lon="-8.55031">
        <ele>241.91</ele>
        <time>2019-06-08T11:42:26Z</time>
      </trkpt>
      <trkpt lat="42.87559" lon="-8.55027">
        <ele>242.39</ele>
        <time>2019-06-08T11:42:39Z</time>
      </trkpt>
      <trkpt lat="42.8756" lon="-8.5502">
        <ele>242.87</ele>
        <time>2019-06-08T11:42:51Z</time>
      </trkpt>
      <trkpt lat="42.87549" lon="-8.55014">
        <ele>242.87</ele>
        <time>2019-06-08T11:43:15Z</time>
      </trkpt>
      <trkpt lat="42.87548" lon="-8.55014">
        <ele>242.39</ele>
        <time>2019-06-08T11:43:32Z</time>
      </trkpt>
      <trkpt lat="42.87543" lon="-8.55012">
        <ele>242.39</ele>
        <time>2019-06-08T11:43:49Z</time>
      </trkpt>
      <trkpt lat="42.87548" lon="-8.54999">
        <ele>243.83</ele>
        <time>2019-06-08T11:44:01Z</time>
      </trkpt>
      <trkpt lat="42.87564" lon="-8.54979">
        <ele>243.83</ele>
        <time>2019-06-08T11:44:13Z</time>
      </trkpt>
      <trkpt lat="42.87574" lon="-8.54963">
        <ele>245.75</ele>
        <time>2019-06-08T11:44:28Z</time>
      </trkpt>
      <trkpt lat="42.87588" lon="-8.54947">
        <ele>246.23</ele>
        <time>2019-06-08T11:44:42Z</time>
      </trkpt>
      <trkpt lat="42.8759" lon="-8.54942">
        <ele>246.72</ele>
        <time>2019-06-08T11:44:46Z</time>
      </trkpt>
      <trkpt lat="42.87598" lon="-8.54928">
        <ele>247.2</ele>
        <time>2019-06-08T11:44:57Z</time>
      </trkpt>
      <trkpt lat="42.87598" lon="-8.54906">
        <ele>247.68</ele>
        <time>2019-06-08T11:45:09Z</time>
      </trkpt>
      <trkpt lat="42.87603" lon="-8.54892">
        <ele>249.12</ele>
        <time>2019-06-08T11:45:23Z</time>
      </trkpt>
      <trkpt lat="42.87608" lon="-8.54874">
        <ele>249.12</ele>
        <time>2019-06-08T11:45:38Z</time>
      </trkpt>
      <trkpt lat="42.87609" lon="-8.54873">
        <ele>248.64</ele>
        <time>2019-06-08T11:45:39Z</time>
      </trkpt>
      <trkpt lat="42.87613" lon="-8.54856">
        <ele>249.12</ele>
        <time>2019-06-08T11:45:51Z</time>
      </trkpt>
      <trkpt lat="42.8762" lon="-8.54834">
        <ele>249.12</ele>
        <time>2019-06-08T11:46:04Z</time>
      </trkpt>
      <trkpt lat="42.87625" lon="-8.54817">
        <ele>249.12</ele>
        <time>2019-06-08T11:46:16Z</time>
      </trkpt>
      <trkpt lat="42.87632" lon="-8.54807">
        <ele>249.12</ele>
        <time>2019-06-08T11:46:29Z</time>
      </trkpt>
      <trkpt lat="42.87633" lon="-8.54805">
        <ele>249.12</ele>
        <time>2019-06-08T11:46:31Z</time>
      </trkpt>
      <trkpt lat="42.87639" lon="-8.54785">
        <ele>249.6</ele>
        <time>2019-06-08T11:46:44Z</time>
      </trkpt>
      <trkpt lat="42.87639" lon="-8.54783">
        <ele>249.6</ele>
        <time>2019-06-08T11:46:45Z</time>
      </trkpt>
      <trkpt lat="42.87644" lon="-8.54765">
        <ele>249.6</ele>
        <time>2019-06-08T11:46:58Z</time>
      </trkpt>
      <trkpt lat="42.87646" lon="-8.54754">
        <ele>250.08</ele>
        <time>2019-06-08T11:47:09Z</time>
      </trkpt>
      <trkpt lat="42.87649" lon="-8.54742">
        <ele>250.08</ele>
        <time>2019-06-08T11:47:23Z</time>
      </trkpt>
      <trkpt lat="42.87657" lon="-8.54726">
        <ele>250.08</ele>
        <time>2019-06-08T11:47:36Z</time>
      </trkpt>
      <trkpt lat="42.87664" lon="-8.54714">
        <ele>250.56</ele>
        <time>2019-06-08T11:47:47Z</time>
      </trkpt>
      <trkpt lat="42.87671" lon="-8.5469">
        <ele>251.52</ele>
        <time>2019-06-08T11:48:02Z</time>
      </trkpt>
      <trkpt lat="42.87676" lon="-8.54677">
        <ele>251.04</ele>
        <time>2019-06-08T11:48:15Z</time>
      </trkpt>
      <trkpt lat="42.87679" lon="-8.5467">
        <ele>251.52</ele>
        <time>2019-06-08T11:48:26Z</time>
      </trkpt>
      <trkpt lat="42.87682" lon="-8.54669">
        <ele>251.04</ele>
        <time>2019-06-08T11:48:44Z</time>
      </trkpt>
      <trkpt lat="42.87684" lon="-8.5467">
        <ele>251.04</ele>
        <time>2019-06-08T11:48:58Z</time>
      </trkpt>
      <trkpt lat="42.8769" lon="-8.54672">
        <ele>251.52</ele>
        <time>2019-06-08T11:49:17Z</time>
      </trkpt>
      <trkpt lat="42.87693" lon="-8.54671">
        <ele>251.04</ele>
        <time>2019-06-08T11:49:32Z</time>
      </trkpt>
      <trkpt lat="42.87696" lon="-8.54672">
        <ele>251.52</ele>
        <time>2019-06-08T11:49:56Z</time>
      </trkpt>
      <trkpt lat="42.87697" lon="-8.54672">
        <ele>251.52</ele>
        <time>2019-06-08T11:50:09Z</time>
      </trkpt>
      <trkpt lat="42.877" lon="-8.54661">
        <ele>251.52</ele>
        <time>2019-06-08T11:50:22Z</time>
      </trkpt>
      <trkpt lat="42.87705" lon="-8.54648">
        <ele>251.52</ele>
        <time>2019-06-08T11:50:36Z</time>
      </trkpt>
      <trkpt lat="42.87713" lon="-8.54635">
        <ele>251.52</ele>
        <time>2019-06-08T11:50:50Z</time>
      </trkpt>
      <trkpt lat="42.87723" lon="-8.54627">
        <ele>252</ele>
        <time>2019-06-08T11:51:04Z</time>
      </trkpt>
      <trkpt lat="42.8773" lon="-8.54613">
        <ele>252</ele>
        <time>2019-06-08T11:51:17Z</time>
      </trkpt>
      <trkpt lat="42.87734" lon="-8.54592">
        <ele>252</ele>
        <time>2019-06-08T11:51:30Z</time>
      </trkpt>
      <trkpt lat="42.87743" lon="-8.54578">
        <ele>252.48</ele>
        <time>2019-06-08T11:51:42Z</time>
      </trkpt>
      <trkpt lat="42.8775" lon="-8.54567">
        <ele>252.48</ele>
        <time>2019-06-08T11:51:54Z</time>
      </trkpt>
      <trkpt lat="42.87759" lon="-8.54556">
        <ele>253.93</ele>
        <time>2019-06-08T11:52:07Z</time>
      </trkpt>
      <trkpt lat="42.87771" lon="-8.54545">
        <ele>252.48</ele>
        <time>2019-06-08T11:52:23Z</time>
      </trkpt>
      <trkpt lat="42.87789" lon="-8.54537">
        <ele>252</ele>
        <time>2019-06-08T11:52:38Z</time>
      </trkpt>
      <trkpt lat="42.87803" lon="-8.54534">
        <ele>252</ele>
        <time>2019-06-08T11:52:53Z</time>
      </trkpt>
      <trkpt lat="42.87816" lon="-8.54526">
        <ele>251.52</ele>
        <time>2019-06-08T11:53:08Z</time>
      </trkpt>
      <trkpt lat="42.8783" lon="-8.54519">
        <ele>251.04</ele>
        <time>2019-06-08T11:53:21Z</time>
      </trkpt>
      <trkpt lat="42.87841" lon="-8.54513">
        <ele>250.08</ele>
        <time>2019-06-08T11:53:37Z</time>
      </trkpt>
      <trkpt lat="42.87856" lon="-8.5451">
        <ele>249.12</ele>
        <time>2019-06-08T11:53:50Z</time>
      </trkpt>
      <trkpt lat="42.87876" lon="-8.5451">
        <ele>248.64</ele>
        <time>2019-06-08T11:54:04Z</time>
      </trkpt>
      <trkpt lat="42.8789" lon="-8.54508">
        <ele>248.64</ele>
        <time>2019-06-08T11:54:18Z</time>
      </trkpt>
      <trkpt lat="42.87896" lon="-8.54514">
        <ele>248.16</ele>
        <time>2019-06-08T11:54:29Z</time>
      </trkpt>
      <trkpt lat="42.87914" lon="-8.54508">
        <ele>249.12</ele>
        <time>2019-06-08T11:54:42Z</time>
      </trkpt>
      <trkpt lat="42.87938" lon="-8.54495">
        <ele>249.6</ele>
        <time>2019-06-08T11:54:57Z</time>
      </trkpt>
      <trkpt lat="42.87949" lon="-8.54494">
        <ele>250.08</ele>
        <time>2019-06-08T11:55:12Z</time>
      </trkpt>
      <trkpt lat="42.87965" lon="-8.54509">
        <ele>251.04</ele>
        <time>2019-06-08T11:55:27Z</time>
      </trkpt>
      <trkpt lat="42.87977" lon="-8.54513">
        <ele>251.52</ele>
        <time>2019-06-08T11:55:36Z</time>
      </trkpt>
      <trkpt lat="42.8799" lon="-8.54516">
        <ele>252.48</ele>
        <time>2019-06-08T11:55:46Z</time>
      </trkpt>
      <trkpt lat="42.88001" lon="-8.54517">
        <ele>252.96</ele>
        <time>2019-06-08T11:55:57Z</time>
      </trkpt>
      <trkpt lat="42.88011" lon="-8.54526">
        <ele>253.44</ele>
        <time>2019-06-08T11:56:07Z</time>
      </trkpt>
      <trkpt lat="42.88012" lon="-8.54528">
        <ele>253.44</ele>
        <time>2019-06-08T11:56:08Z</time>
      </trkpt>
      <trkpt lat="42.88011" lon="-8.54533">
        <ele>253.44</ele>
        <time>2019-06-08T11:56:10Z</time>
      </trkpt>
      <trkpt lat="42.88009" lon="-8.54551">
        <ele>252.96</ele>
        <time>2019-06-08T11:56:16Z</time>
      </trkpt>
      <trkpt lat="42.88017" lon="-8.5457">
        <ele>252.48</ele>
        <time>2019-06-08T11:56:28Z</time>
      </trkpt>
      <trkpt lat="42.88019" lon="-8.54573">
        <ele>252.48</ele>
        <time>2019-06-08T11:56:31Z</time>
      </trkpt>
      <trkpt lat="42.88027" lon="-8.5459">
        <ele>252.96</ele>
        <time>2019-06-08T11:56:45Z</time>
      </trkpt>
      <trkpt lat="42.88043" lon="-8.54575">
        <ele>253.93</ele>
        <time>2019-06-08T11:56:57Z</time>
      </trkpt>
      <trkpt lat="42.88048" lon="-8.54569">
        <ele>254.41</ele>
        <time>2019-06-08T11:57:20Z</time>
      </trkpt>
      <trkpt lat="42.88047" lon="-8.54569">
        <ele>254.41</ele>
        <time>2019-06-08T11:57:36Z</time>
      </trkpt>
      <trkpt lat="42.88049" lon="-8.54574">
        <ele>253.93</ele>
        <time>2019-06-08T11:57:56Z</time>
      </trkpt>
      <trkpt lat="42.88047" lon="-8.54575">
        <ele>254.41</ele>
        <time>2019-06-08T11:58:10Z</time>
      </trkpt>
      <trkpt lat="42.88043" lon="-8.54569">
        <ele>254.41</ele>
        <time>2019-06-08T11:58:37Z</time>
      </trkpt>
      <trkpt lat="42.88046" lon="-8.54574">
        <ele>254.41</ele>
        <time>2019-06-08T11:58:57Z</time>
      </trkpt>
      <trkpt lat="42.88042" lon="-8.5457">
        <ele>253.93</ele>
        <time>2019-06-08T11:59:09Z</time>
      </trkpt>
      <trkpt lat="42.88038" lon="-8.54577">
        <ele>254.41</ele>
        <time>2019-06-08T11:59:32Z</time>
      </trkpt>
      <trkpt lat="42.8804" lon="-8.54578">
        <ele>253.93</ele>
        <time>2019-06-08T11:59:50Z</time>
      </trkpt>
      <trkpt lat="42.88039" lon="-8.54579">
        <ele>253.93</ele>
        <time>2019-06-08T12:00:05Z</time>
      </trkpt>
      <trkpt lat="42.88034" lon="-8.54588">
        <ele>254.41</ele>
        <time>2019-06-08T12:00:21Z</time>
      </trkpt>
      <trkpt lat="42.8804" lon="-8.54579">
        <ele>254.89</ele>
        <time>2019-06-08T12:00:33Z</time>
      </trkpt>
      <trkpt lat="42.88042" lon="-8.54577">
        <ele>254.41</ele>
        <time>2019-06-08T12:00:49Z</time>
      </trkpt>
      <trkpt lat="42.88043" lon="-8.54576">
        <ele>254.41</ele>
        <time>2019-06-08T12:01:11Z</time>
      </trkpt>
      <trkpt lat="42.88044" lon="-8.54578">
        <ele>254.89</ele>
        <time>2019-06-08T12:01:35Z</time>
      </trkpt>
      <trkpt lat="42.88044" lon="-8.54579">
        <ele>254.41</ele>
        <time>2019-06-08T12:01:58Z</time>
      </trkpt>
      <trkpt lat="42.88043" lon="-8.54576">
        <ele>254.41</ele>
        <time>2019-06-08T12:02:13Z</time>
      </trkpt>
      <trkpt lat="42.88043" lon="-8.54577">
        <ele>254.89</ele>
        <time>2019-06-08T12:02:31Z</time>
      </trkpt>
      <trkpt lat="42.88042" lon="-8.54577">
        <ele>254.89</ele>
        <time>2019-06-08T12:02:47Z</time>
      </trkpt>
      <trkpt lat="42.88041" lon="-8.54578">
        <ele>254.89</ele>
        <time>2019-06-08T12:03:02Z</time>
      </trkpt>
      <trkpt lat="42.88042" lon="-8.54581">
        <ele>255.37</ele>
        <time>2019-06-08T12:03:22Z</time>
      </trkpt>
      <trkpt lat="42.88044" lon="-8.54578">
        <ele>255.37</ele>
        <time>2019-06-08T12:03:36Z</time>
      </trkpt>
      <trkpt lat="42.8804" lon="-8.54582">
        <ele>255.37</ele>
        <time>2019-06-08T12:03:52Z</time>
      </trkpt>
      <trkpt lat="42.88037" lon="-8.54588">
        <ele>255.37</ele>
        <time>2019-06-08T12:04:12Z</time>
      </trkpt>
      <trkpt lat="42.88039" lon="-8.54588">
        <ele>255.85</ele>
        <time>2019-06-08T12:04:26Z</time>
      </trkpt>
      <trkpt lat="42.88041" lon="-8.5459">
        <ele>255.85</ele>
        <time>2019-06-08T12:04:49Z</time>
      </trkpt>
      <trkpt lat="42.88044" lon="-8.54587">
        <ele>255.85</ele>
        <time>2019-06-08T12:05:07Z</time>
      </trkpt>
      <trkpt lat="42.88039" lon="-8.54583">
        <ele>255.37</ele>
        <time>2019-06-08T12:05:34Z</time>
      </trkpt>
      <trkpt lat="42.88041" lon="-8.54583">
        <ele>255.85</ele>
        <time>2019-06-08T12:06:03Z</time>
      </trkpt>
      <trkpt lat="42.88039" lon="-8.54584">
        <ele>256.81</ele>
        <time>2019-06-08T12:06:11Z</time>
      </trkpt>
      <trkpt lat="42.88028" lon="-8.54583">
        <ele>256.33</ele>
        <time>2019-06-08T12:06:25Z</time>
      </trkpt>
      <trkpt lat="42.88018" lon="-8.54585">
        <ele>257.29</ele>
        <time>2019-06-08T12:06:39Z</time>
      </trkpt>
      <trkpt lat="42.88004" lon="-8.54595">
        <ele>256.81</ele>
        <time>2019-06-08T12:06:54Z</time>
      </trkpt>
      <trkpt lat="42.88006" lon="-8.54597">
        <ele>256.33</ele>
        <time>2019-06-08T12:07:10Z</time>
      </trkpt>
    </trkseg>
  </trk>
</gpx>